[[{"header":{"parameterUnit":"m.s-1","parameterCategory":1,"la1":30.6,"la2":29.2853,"lo1":-89.7004,"lo2":-87.6739,"dy":0.0162,"dx":0.0183,"nx":112,"ny":82,"refTime":"2024-06-08T12:00:00:Z","depth":0,"parameterNumber":2,"parameterNumberName":"U-component_of_WINDS"},"data":[0.0,0.0,0.0,0.0,0.0,0.0,0.0,0.0,0.0,0.0,0.0,0.0,0.0,0.0,0.0,0.0,0.0,0.0,0.0,0.0,0.0,0.0,0.0,0.0,0.0,0.0,0.0,0.0,0.0,0.0,0.0,0.0,0.0,0.0,0.0,0.0,0.0,0.0,0.0,0.0,0.0,0.0,0.0,0.0,0.0,0.0,0.0,0.0,0.0,0.0,0.0,0.0,0.0,0.0,0.0,0.0,0.0,0.0,0.0,0.0,0.0,0.0,0.0,0.0,0.0,0.0,0.0,0.0,0.0,0.0,0.0,0.0,0.0,0.0,0.0,0.0,0.0,0.0,0.0,0.0,0.0,0.0,0.0,0.0,0.0,0.0,0.0,0.0,0.0,0.0,0.3402,0.379,0.403,0.4309,0.4539,0.4344,0.4401,0.4849,0.0,0.0,0.0,0.0,0.0,0.0,0.0,0.0,0.0,0.0,0.0,0.0,0.0,0.0,0.0,0.0,0.0,0.0,0.0,0.0,0.0,0.0,0.0,0.0,0.0,0.0,0.0,0.0,0.0,0.0,0.0,0.0,0.0,0.0,0.0,0.0,0.0,0.0,0.0,0.0,0.0,0.0,0.0,0.0,0.0,0.0,0.0,0.0,0.0,0.0,0.0,0.0,0.0,0.0,0.0,0.0,0.0,0.0,0.0,0.0,0.0,0.0,0.0,0.0,0.0,0.0,0.0,0.0,0.0,0.0,0.0,0.0,0.0,0.0,0.0,0.0,0.0,0.0,0.0,0.0,0.0,0.0,0.0,0.0,0.0,0.0,0.0,0.0,0.0,0.0,0.0,0.0,0.0,0.0,0.0,0.0,0.0,0.0,0.0,0.0,0.0,0.0,0.0,0.0,0.3328,0.3926,0.4092,0.4769,0.6147,0.5551,0.5665,0.693,0.0,0.0,0.0,0.0,0.0,0.0,0.0,0.0,0.0,0.0,0.0,0.0,0.0,0.0,0.0,0.0,0.0,0.0,0.0,0.0,0.0,0.0,0.0,0.0,0.0,0.0,0.0,0.0,0.0,0.0,0.0,0.0,0.0,0.0,0.0,0.0,0.0,0.0,0.0,0.0,0.0,0.0,0.0,0.0,0.0,0.0,0.0,0.0,0.0,0.0,0.0,0.0,0.0,0.0,0.0,0.0,0.0,0.0,0.0,0.0,0.0,0.0,0.0,0.0,0.0,0.0,0.0,0.0,0.0,0.0,0.0,0.0,0.0,0.0,0.0,0.0,0.0,0.0,0.0,0.0,0.0,0.0,0.0,0.0,0.0,0.0,0.0,0.0,0.0,0.0,0.0,0.0,0.0,0.0,0.0,0.0,0.0,0.0,0.0,0.0,0.0,0.0,0.0,0.3191,0.3505,0.3858,0.4457,0.5104,0.582,0.5899,0.6262,0.7061,0.5757,0.0,0.0,0.0,0.0,0.0,0.0,0.0,0.0,0.0,0.0,0.0,0.0,0.0,0.0,0.0,0.0,0.0,0.0,0.0,0.0,0.0,0.0,0.0,0.0,0.0,0.0,0.0,0.0,0.0,0.0,0.0,0.0,0.0,0.0,0.0,0.0,0.0,0.0,0.0,0.0,0.0,0.0,0.0,0.0,0.0,0.0,0.0,0.0,0.0,0.0,0.0,0.0,0.0,0.0,0.0,0.0,0.0,0.0,0.0,0.0,0.0,0.0,0.0,0.0,0.0,0.0,0.0,0.0,0.0,0.0,0.0,0.0,0.0,0.0,0.0,0.0,0.0,0.0,0.0,0.0,0.0,0.0,0.0,0.0,0.0,0.0,0.0,0.0,0.0,0.0,0.0,0.0,0.0,0.0,0.0,0.0,0.0,0.0,0.0,0.0,0.0,0.0,0.3738,0.4042,0.4302,0.5069,0.5656,0.5866,0.6232,0.6599,0.6813,0.6217,0.0,0.0,0.0,0.0,0.0,0.0,0.0,0.0,0.0,0.0,0.0,0.0,0.0,0.0,0.0,0.0,0.0,0.0,0.0,0.0,0.0,0.0,0.0,0.0,0.0,0.0,0.0,0.0,0.0,0.0,0.0,0.0,0.0,0.0,0.0,0.0,0.0,0.0,0.0,0.0,0.0,0.0,0.0,0.0,0.0,0.0,0.0,0.0,0.0,0.0,0.0,0.0,0.0,0.0,0.0,0.0,0.0,0.0,0.0,0.0,0.0,0.0,0.0,0.0,0.0,0.0,0.0,0.0,0.0,0.0,0.0,0.0,0.0,0.0,0.0,0.0,0.0,0.0,0.0,0.0,0.0,0.0,0.0,0.0,0.0,0.0,0.0,0.0,0.0,0.0,0.0,0.0,0.0,0.0,0.0,0.0,0.0,0.0,0.0,0.0,0.0,0.0,0.4566,0.5205,0.5804,0.6251,0.6779,0.7481,0.7088,0.6836,0.6986,0.6481,0.0,0.0,0.0,0.0,0.0,0.0,0.0,0.0,0.0,0.0,0.0,0.0,0.0,0.0,0.0,0.0,0.0,0.0,0.0,0.0,0.0,0.0,0.0,0.0,0.0,0.0,0.0,0.0,0.0,0.0,0.0,0.0,0.0,0.0,0.0,0.0,0.0,0.0,0.0,0.0,0.0,0.0,0.0,0.0,0.0,0.0,0.0,0.0,0.0,0.0,0.0,0.0,0.0,0.0,0.0,0.0,0.0,0.0,0.0,0.0,0.0,0.0,0.0,0.0,0.0,0.0,0.0,0.0,0.0,0.0,0.0,0.0,0.0,0.0,0.0,0.0,0.0,0.0,0.0,0.0,0.0,0.0,0.0,0.0,0.0,0.0,0.0,0.0,0.0,0.0,0.0,0.0,0.0,0.0,0.0,0.0,0.0,0.0,0.0,0.0,0.0,0.0,0.4791,0.5464,0.0,0.6615,0.7266,0.7531,0.7706,0.7647,0.7338,0.0,0.0,0.0,0.0,0.0,0.0,0.0,0.0,0.0,0.0,0.0,0.0,0.0,0.0,0.0,0.0,0.0,0.0,0.0,0.0,0.0,0.0,0.0,0.0,0.0,0.0,0.0,0.0,0.0,0.0,0.0,0.0,0.0,0.0,0.0,0.0,0.0,0.0,0.0,0.0,0.0,0.0,0.0,0.0,0.0,0.0,0.0,0.0,0.0,0.0,0.0,0.0,0.0,0.0,0.0,0.0,0.0,0.0,0.0,0.0,0.0,0.0,0.0,0.0,0.0,0.0,0.0,0.0,0.0,0.0,0.0,0.0,0.0,0.0,0.0,0.0,0.0,0.0,0.0,0.0,0.0,0.0,0.0,0.0,0.0,0.0,0.0,0.0,0.0,0.0,0.0,0.0,0.0,0.0,0.0,0.0,0.0,0.0,0.0,0.0,0.0,0.0,0.4236,0.5277,0.6113,0.6377,0.7293,0.7888,0.7803,0.799,0.7876,0.7268,0.0,0.0,0.0,0.0,0.0,0.0,0.0,0.0,0.0,0.0,0.0,0.0,0.0,0.0,0.0,0.0,0.0,0.0,0.0,0.0,0.0,0.0,0.0,0.0,0.0,0.0,0.0,0.0,0.0,0.0,0.0,0.0,0.0,0.0,0.0,0.0,0.0,0.0,0.0,0.0,0.0,0.0,0.0,0.0,0.0,0.0,0.0,0.0,0.0,0.0,0.0,0.0,0.0,0.0,0.0,0.0,0.0,0.0,0.0,0.0,0.0,0.0,0.0,0.0,0.0,0.0,0.0,0.0,0.0,0.0,0.0,0.0,0.0,0.0,0.0,0.0,0.0,0.0,0.0,0.0,0.0,0.0,0.0,0.0,0.0,0.0,0.0,0.0,0.0,0.0,0.0,0.0,0.0,0.0,0.0,0.0,0.0,0.0,0.0,0.0,0.0,0.0,0.4822,0.618,0.7293,0.7831,0.8457,0.8687,0.84,0.7866,0.7261,0.0,0.0,0.0,0.0,0.0,0.0,0.0,0.0,0.0,0.0,0.0,0.0,0.0,0.0,0.0,0.0,0.0,0.0,0.0,0.0,0.0,0.0,0.0,0.0,0.0,0.0,0.0,0.0,0.0,0.0,0.0,0.0,0.0,0.0,0.0,0.0,0.0,0.0,0.0,0.0,0.0,0.0,0.0,0.0,0.0,0.0,0.0,0.0,0.0,0.0,0.0,0.0,0.0,0.0,0.0,0.0,0.0,0.0,0.0,0.0,0.0,0.0,0.0,0.0,0.0,0.0,0.0,0.0,0.0,0.0,0.0,0.0,0.0,0.0,0.0,0.0,0.0,0.0,0.0,0.0,0.0,0.0,0.0,0.0,0.0,0.0,0.0,0.0,0.0,0.0,0.0,0.0,0.0,0.0,0.0,0.0,0.0,0.0,0.0,0.0,0.0,0.0,0.0,0.5262,0.6709,0.7732,0.7882,0.8457,0.8687,0.84,0.8385,0.7835,0.668,0.0,0.0,0.0,0.0,0.0,0.0,0.0,0.0,0.0,0.0,0.0,0.0,0.0,0.0,0.0,0.0,0.0,0.0,0.0,0.0,0.0,0.0,0.0,0.0,0.0,0.0,0.0,0.0,0.0,0.0,0.0,0.0,0.0,0.0,0.0,0.0,0.0,0.0,0.0,0.0,0.0,0.0,0.0,0.0,0.0,0.0,0.0,0.0,0.0,0.0,0.0,0.0,0.0,0.0,0.0,0.0,0.0,0.0,0.0,0.0,0.0,0.0,0.0,0.0,0.0,0.0,0.0,0.0,0.0,0.0,0.0,0.0,0.0,0.0,0.0,0.0,0.0,0.0,0.0,0.0,0.0,0.0,0.0,0.0,0.0,0.0,0.0,0.0,0.0,0.0,0.0,0.0,0.0,0.0,0.0,0.0,0.0,0.0,0.0,0.0,0.0,0.0,0.5587,0.6956,0.7928,0.8093,0.8772,0.9085,0.8834,0.8981,0.8501,0.7079,0.0,0.0,0.0,0.0,0.0,0.0,0.0,0.0,0.0,0.0,0.0,0.0,0.0,0.0,0.0,0.0,0.0,0.0,0.0,0.0,0.0,0.0,0.0,0.0,0.0,0.0,0.0,0.0,0.0,0.0,0.0,0.0,0.0,0.0,0.0,0.0,0.0,0.0,0.0,0.0,0.0,0.0,0.0,0.0,0.0,0.0,0.0,0.0,0.0,0.0,0.0,0.0,0.0,0.0,0.0,0.0,0.0,0.0,0.0,0.0,0.0,0.0,0.0,0.0,0.0,0.0,0.0,0.0,0.0,0.0,0.0,0.0,0.0,0.0,0.0,0.0,0.0,0.0,0.0,0.0,0.0,0.0,0.0,0.0,0.0,0.0,0.0,0.0,0.0,0.0,0.0,0.0,0.0,0.0,0.0,0.0,0.0,0.0,0.0,0.0,0.0,0.0,0.5924,0.7128,0.8076,0.8347,0.9227,0.9683,0.9411,0.9627,0.9207,0.7792,0.0,0.0,0.0,0.0,0.0,0.0,0.0,0.0,0.0,0.0,0.0,0.0,0.0,0.0,0.0,0.0,0.0,0.0,0.0,0.0,0.0,0.0,0.0,0.0,0.0,0.0,0.0,0.0,0.0,0.0,0.0,0.0,0.0,0.0,0.0,0.0,0.0,0.0,0.0,0.0,0.0,0.0,0.0,0.0,0.0,0.0,0.0,0.0,0.0,0.0,0.0,0.0,0.0,0.0,0.0,0.0,0.0,0.0,0.0,0.0,0.2645,0.2609,0.0,0.0,0.0,0.0,0.0,0.0,0.0,0.0,0.0,0.0,0.0,0.0,0.0,0.0,0.0,0.0,0.0,0.0,0.0,0.0,0.0,0.0,0.0,0.0,0.0,0.0,0.0,0.0,0.0,0.0,0.0,0.0,0.0,0.0,0.0,0.0,0.0,0.0,0.0,0.0,0.6415,0.7533,0.8303,0.8367,0.9227,0.9683,0.9411,1.0001,0.9891,0.869,0.7638,0.0,0.0,0.0,0.0,0.0,0.0,0.0,0.0,0.0,0.0,0.0,0.0,0.0,0.0,0.0,0.0,0.0,0.0,0.0,0.0,0.0,0.0,0.0,0.0,0.0,0.0,0.0,0.0,0.0,0.0,0.0,0.0,0.0,0.0,0.0,0.0,0.0,0.0,0.0,0.0,0.0,0.0,0.0,0.0,0.0,0.0,0.0,0.0,0.0,0.0,0.0,0.0,0.0,0.0,0.0,0.0,0.0,0.0,0.0,0.2935,0.2774,0.0,0.0,0.0,0.0,0.0,0.0,0.0,0.0,0.0,0.0,0.0,0.0,0.0,0.0,0.0,0.0,0.0,0.0,0.0,0.0,0.0,0.0,0.0,0.0,0.0,0.0,0.0,0.0,0.0,0.0,0.0,0.0,0.0,0.0,0.0,0.0,0.0,0.0,0.0,0.0,0.6979,0.7809,0.843,0.8571,0.9316,0.9896,1.0069,1.0591,1.0508,0.9643,0.8709,0.0,0.0,0.0,0.0,0.0,0.0,0.0,0.0,0.0,0.0,0.0,0.0,0.0,0.0,0.0,0.0,0.0,0.0,0.0,0.0,0.0,0.0,0.0,0.0,0.0,0.0,0.0,0.0,0.0,0.0,0.0,0.0,0.0,0.0,0.0,0.0,0.0,0.0,0.0,0.0,0.0,0.0,0.0,0.0,0.0,0.0,0.0,0.0,0.0,0.0,0.0,0.0,0.0,0.3936,0.3923,0.3837,0.3703,0.3721,0.3812,0.3593,0.3366,0.3236,0.321,0.0,0.0,0.0,0.0,0.0,0.0,0.0,0.0,0.0,0.0,0.0,0.0,0.0,0.0,0.0,0.0,0.0,0.0,0.0,0.0,0.0,0.0,0.7129,0.7161,0.7408,0.7456,0.6673,0.0,0.0,0.0,0.0,0.0,0.0,0.0,0.0,0.0,0.0,0.0,0.7416,0.8091,0.854,0.8781,0.9413,1.0064,1.0767,1.1072,1.1049,1.0661,0.9781,0.8607,0.0,0.0,0.0,0.0,0.0,0.0,0.0,0.0,0.0,0.0,0.0,0.0,0.0,0.0,0.0,0.0,0.0,0.0,0.0,0.0,0.0,0.0,0.0,0.0,0.0,0.0,0.0,0.0,0.0,0.0,0.0,0.0,0.3431,0.3499,0.0,0.0,0.0,0.0,0.0,0.0,0.0,0.0,0.0,0.0,0.0,0.0,0.0,0.409,0.4126,0.478,0.4938,0.4567,0.471,0.4765,0.469,0.4204,0.3972,0.3992,0.4709,0.0,0.3692,0.3571,0.0,0.0,0.0,0.0,0.0,0.0,0.0,0.0,0.0,0.0,0.0,0.0,0.0,0.0,0.0,0.0,0.0,0.0,0.0,0.0,0.0,0.0,0.7611,0.7736,0.8039,0.8153,0.7776,0.7311,0.6617,0.5415,0.5225,0.4998,0.0,0.0,0.0,0.0,0.0,0.0,0.7496,0.8216,0.8764,0.8804,0.9413,1.0064,1.0767,1.1072,1.1388,1.1919,1.0502,0.9513,0.9283,0.7447,0.0,0.0,0.0,0.0,0.0,0.0,0.0,0.0,0.0,0.0,0.0,0.0,0.0,0.0,0.0,0.0,0.0,0.0,0.0,0.0,0.0,0.0,0.0,0.0,0.0,0.0,0.0,0.0,0.0,0.3521,0.3799,0.3859,0.3704,0.3352,0.0,0.0,0.0,0.0,0.0,0.0,0.0,0.0,0.0,0.395,0.3964,0.3997,0.41,0.4503,0.4592,0.4396,0.461,0.4895,0.5253,0.4941,0.5048,0.5473,0.5873,0.5759,0.5316,0.4686,0.4371,0.4192,0.0,0.0,0.0,0.0,0.3771,0.3677,0.4059,0.4006,0.3705,0.3686,0.0,0.0,0.0,0.0,0.0,0.0,0.0,0.5141,0.5654,0.6638,0.754,0.7719,0.8207,0.8584,0.845,0.8213,0.7659,0.6395,0.6298,0.61,0.509,0.5374,0.0,0.0,0.0,0.7342,0.7905,0.8098,0.8321,0.8752,0.9061,0.9514,1.0163,1.0326,1.0744,1.1598,1.0939,1.0225,0.949,0.8433,0.7323,0.0,0.0,0.0,0.0,0.0,0.0,0.0,0.0,0.0,0.0,0.0,0.0,0.0,0.0,0.0,0.0,0.0,0.0,0.0,0.0,0.0,0.0,0.0,0.0,0.0,0.0,0.0,0.0,0.3964,0.4192,0.4165,0.4259,0.3983,0.0,0.0,0.0,0.0,0.0,0.0,0.3276,0.3292,0.3481,0.3895,0.3909,0.3982,0.4131,0.4245,0.4354,0.4511,0.468,0.5113,0.5762,0.5762,0.6091,0.6588,0.6804,0.6858,0.6827,0.5812,0.5371,0.5214,0.4523,0.4142,0.398,0.4137,0.405,0.3946,0.4212,0.4226,0.4184,0.4158,0.4107,0.4038,0.3817,0.0,0.0,0.0,0.0,0.4745,0.547,0.6395,0.7278,0.7841,0.8427,0.8808,0.8808,0.8959,0.8625,0.726,0.7193,0.7025,0.5936,0.62,0.0,0.6771,0.6842,0.7208,0.8033,0.7884,0.7883,0.848,0.8699,0.9057,0.9766,0.9814,1.016,1.1064,1.1002,1.0509,0.9549,0.9013,0.8074,0.666,0.0,0.0,0.0,0.0,0.0,0.0,0.0,0.0,0.0,0.0,0.0,0.0,0.0,0.0,0.0,0.0,0.0,0.0,0.0,0.0,0.0,0.0,0.0,0.0,0.0,0.0,0.0,0.0,0.0,0.4592,0.497,0.0,0.0,0.0,0.0,0.3114,0.3189,0.3402,0.3743,0.3758,0.3902,0.4162,0.4174,0.4295,0.4494,0.4503,0.4829,0.542,0.5429,0.5817,0.6532,0.6532,0.6588,0.6642,0.7345,0.767,0.7593,0.6696,0.6329,0.6299,0.6119,0.5644,0.5037,0.5178,0.479,0.4194,0.4399,0.4362,0.4217,0.4399,0.4348,0.4182,0.4165,0.4061,0.0,0.0,0.4224,0.4572,0.6135,0.6573,0.7007,0.8424,0.8755,0.8808,0.8808,0.9312,0.9295,0.775,0.7455,0.7374,0.7086,0.0,0.725,0.7737,0.7499,0.7276,0.7341,0.7568,0.7723,0.7723,0.8371,0.9057,0.9766,0.9814,1.0108,1.0788,1.0471,1.0224,1.0139,0.8981,0.8173,0.7829,0.6425,0.0,0.0,0.0,0.0,0.0,0.0,0.0,0.0,0.0,0.0,0.0,0.0,0.0,0.0,0.0,0.0,0.0,0.0,0.0,0.0,0.0,0.0,0.0,0.0,0.0,0.0,0.0,0.0,0.5818,0.6023,0.0,0.4707,0.4788,0.4519,0.3635,0.3693,0.3822,0.4023,0.4035,0.4178,0.438,0.4385,0.4411,0.4517,0.4948,0.5271,0.5485,0.598,0.6583,0.7292,0.7292,0.7563,0.8046,0.8318,0.8427,0.8365,0.805,0.769,0.7203,0.6642,0.6298,0.6046,0.6122,0.5666,0.5031,0.5144,0.4803,0.4394,0.4501,0.4428,0.4385,0.4385,0.4348,0.4316,0.437,0.4705,0.5143,0.5747,0.6581,0.7453,0.794,0.848,0.8808,0.8808,0.9012,0.8974,0.8453,0.8676,0.8877,0.8623,0.8347,0.8221,0.8194,0.784,0.7748,0.8228,0.7935,0.7886,0.8371,0.8643,0.8906,0.9162,0.9159,0.9465,1.0111,1.0003,0.9939,0.9861,0.9105,0.8416,0.7927,0.6845,0.5985,0.0,0.0,0.0,0.0,0.0,0.0,0.0,0.0,0.0,0.0,0.0,0.0,0.0,0.0,0.0,0.0,0.0,0.0,0.0,0.0,0.0,0.0,0.0,0.0,0.0,0.4912,0.5611,0.6203,0.6515,0.6419,0.5807,0.5715,0.5313,0.4373,0.4136,0.411,0.4312,0.4529,0.4681,0.4836,0.4842,0.4952,0.5226,0.538,0.5758,0.6249,0.6745,0.7343,0.8049,0.8049,0.8321,0.8808,0.8808,0.8808,0.8814,0.8911,0.8622,0.8172,0.7591,0.7182,0.6966,0.6966,0.6527,0.588,0.6002,0.5381,0.4589,0.4971,0.5024,0.4988,0.5044,0.5288,0.55,0.5386,0.5699,0.6064,0.6213,0.6958,0.7777,0.7993,0.8427,0.8808,0.8808,0.8956,0.9162,0.9162,0.9309,0.9397,0.9242,0.8978,0.8741,0.855,0.8041,0.7883,0.8374,0.7993,0.7886,0.8374,0.8646,0.8808,0.8808,0.8808,0.9012,0.9409,0.9361,0.9313,0.9251,0.874,0.82,0.7787,0.6894,0.6202,0.5708,0.0,0.0,0.0,0.0,0.0,0.0,0.0,0.0,0.0,0.0,0.0,0.0,0.0,0.0,0.0,0.0,0.0,0.0,0.0,0.0,0.0,0.0,0.0,0.3956,0.4875,0.5558,0.5714,0.64,0.6753,0.6668,0.6253,0.5838,0.5377,0.4668,0.4316,0.4563,0.5164,0.554,0.554,0.554,0.5871,0.6588,0.5925,0.6303,0.7723,0.7723,0.8103,0.8808,0.8808,0.8808,0.8808,0.8818,0.8821,0.8844,0.908,0.92,0.917,0.8945,0.8397,0.775,0.775,0.7311,0.6695,0.7023,0.6003,0.48,0.587,0.6154,0.6092,0.6223,0.6821,0.7436,0.7161,0.7149,0.721,0.7637,0.7729,0.794,0.8646,0.8808,0.8808,0.8808,0.9312,0.9707,0.9707,0.9208,0.8752,0.8808,0.8804,0.8808,0.8808,0.8212,0.0,0.7723,0.7723,0.7723,0.7723,0.8374,0.8808,0.8808,0.8808,0.8808,0.8808,0.8534,0.8427,0.8424,0.7846,0.752,0.751,0.6663,0.6075,0.5738,0.0,0.0,0.0,0.0,0.0,0.0,0.0,0.0,0.0,0.0,0.0,0.0,0.0,0.0,0.0,0.0,0.0,0.0,0.0,0.0,0.0,0.3743,0.4286,0.4404,0.4882,0.5621,0.6706,0.7051,0.7221,0.7391,0.684,0.638,0.6277,0.5582,0.5387,0.5987,0.6206,0.631,0.631,0.631,0.6369,0.6588,0.6907,0.7286,0.7723,0.8262,0.859,0.8808,0.8808,0.8808,0.8818,0.9031,0.9067,0.9087,0.9439,0.9563,0.9556,0.9476,0.9326,0.9149,0.9149,0.8687,0.8,0.7541,0.7054,0.6728,0.7022,0.7138,0.7101,0.7101,0.7299,0.7467,0.7405,0.7616,0.7925,0.8023,0.8304,0.8537,0.8752,0.8808,0.8808,0.8808,0.8524,0.8299,0.8299,0.7714,0.7714,0.9246,0.911,0.8808,0.8808,0.8646,0.848,0.848,0.848,0.848,0.848,0.8699,0.8808,0.8808,0.8808,0.8808,0.8808,0.8534,0.8567,0.8951,0.8235,0.7699,0.7513,0.7017,0.664,0.0,0.0,0.0,0.0,0.0,0.0,0.0,0.0,0.0,0.0,0.0,0.0,0.0,0.0,0.0,0.0,0.0,0.0,0.0,0.0,0.0,0.0,0.3784,0.424,0.4422,0.4817,0.5534,0.6774,0.6968,0.7297,0.8087,0.7506,0.7074,0.7074,0.6362,0.6145,0.6586,0.6912,0.7074,0.7074,0.7074,0.7235,0.7506,0.7616,0.7833,0.8156,0.8593,0.8871,0.8988,0.8988,0.9058,0.9182,0.9352,0.9426,0.9449,0.9743,0.9863,0.9853,0.0,0.0,0.0,0.0,0.8663,0.8024,0.7647,0.7255,0.7031,0.7517,0.7881,0.8127,0.8229,0.8507,0.8789,0.862,0.8782,0.8993,0.8877,0.8727,0.8656,0.8656,0.838,0.8069,0.8012,0.766,0.7354,0.7255,0.6912,0.0,0.8227,0.8137,0.7993,0.8318,0.8103,0.7993,0.8318,0.8321,0.848,0.8755,0.8808,0.8808,0.8808,0.8808,0.0,0.0,0.0,0.8463,0.8665,0.7608,0.0,0.0,0.0,0.0,0.0,0.715,0.0,0.0,0.5068,0.4514,0.0,0.0,0.0,0.0,0.0,0.0,0.0,0.0,0.0,0.0,0.0,0.0,0.0,0.0,0.0,0.0,0.3534,0.3797,0.414,0.467,0.5351,0.6184,0.6465,0.7128,0.8537,0.8103,0.7723,0.7833,0.7128,0.675,0.6858,0.7453,0.0,0.0,0.0,0.8187,0.8905,0.8218,0.8218,0.8905,0.8905,0.9038,0.9236,0.9236,0.9432,0.9686,0.9719,0.9733,0.9756,1.0043,1.0167,1.014,0.9883,0.9783,0.9721,0.8806,0.8085,0.7516,0.7533,0.0,0.0,0.7769,0.8593,0.9213,0.9391,0.998,1.0504,1.0114,0.9954,0.9869,0.9555,0.8863,0.824,0.824,0.7653,0.7069,0.6929,0.6867,0.6736,0.6551,0.644,0.6369,0.6477,0.6532,0.6804,0.7453,0.702,0.6858,0.7506,0.756,0.7833,0.8593,0.859,0.0,0.8646,0.859,0.8537,0.8537,0.8355,0.8035,0.7743,0.6523,0.6474,0.7682,0.7077,0.7074,0.773,0.7989,0.7794,0.7018,0.5681,0.5031,0.0,0.0,0.0,0.0,0.0,0.0,0.0,0.0,0.0,0.0,0.0,0.0,0.0,0.0,0.0,0.3458,0.3824,0.4108,0.4185,0.4454,0.4903,0.5595,0.623,0.6966,0.7833,0.7777,0.794,0.8537,0.7883,0.7723,0.8318,0.8537,0.8697,0.8925,0.871,0.8869,0.9509,0.9105,0.9105,0.9516,0.9516,0.0,0.9599,0.9599,0.9629,0.9699,0.9933,1.0033,1.0057,1.0354,1.0474,1.053,1.0477,1.0456,1.0329,0.9436,0.9055,0.8805,0.814,0.8257,0.875,0.898,0.9618,1.0292,1.0351,1.0495,0.0,0.9657,0.9283,0.8851,0.8129,0.7612,0.7356,0.7356,0.724,0.7109,0.7067,0.6513,0.5988,0.5951,0.5378,0.506,0.5599,0.6202,0.6642,0.6804,0.6696,0.6642,0.6804,0.6804,0.7074,0.783,0.7399,0.7292,0.7886,0.7345,0.702,0.702,0.6977,0.6844,0.6545,0.6465,0.6475,0.6539,0.638,0.638,0.6534,0.6582,0.6631,0.6665,0.6296,0.5796,0.0,0.0,0.0,0.0,0.0,0.0,0.0,0.0,0.0,0.0,0.0,0.1157,0.0,0.0,0.1736,0.2953,0.3751,0.4234,0.4346,0.4418,0.4734,0.5431,0.6145,0.675,0.7128,0.783,0.8265,0.8265,0.8265,0.8427,0.8755,0.8945,0.9088,0.918,0.9242,0.9389,0.9679,0.9536,0.9536,0.9683,0.9683,0.976,0.99,0.9464,0.9607,1.013,0.9838,0.9958,1.0351,1.0561,1.0624,1.0624,1.0624,1.0624,1.0428,0.9131,0.8681,0.8549,0.7635,0.7897,0.8745,0.9139,0.9594,0.998,0.998,0.9652,0.9195,0.8745,0.8523,0.8296,0.7858,0.7334,0.688,0.688,0.6572,0.6237,0.6142,0.5748,0.5423,0.5346,0.4966,0.4713,0.513,0.5398,0.5662,0.5984,0.5769,0.566,0.5982,0.6036,0.631,0.7074,0.6804,0.675,0.7128,0.6804,0.6588,0.6588,0.6256,0.6152,0.6365,0.5878,0.5831,0.6415,0.6039,0.6039,0.6413,0.6413,0.6473,0.6586,0.6146,0.5776,0.0,0.0,0.0,0.0,0.0,0.0,0.0,0.0,0.244,0.2201,0.1759,0.1134,0.0181,-0.0,0.0595,0.231,0.353,0.4292,0.4503,0.4517,0.4679,0.5218,0.5928,0.6423,0.6588,0.783,0.8374,0.794,0.848,0.8831,0.8888,0.906,0.9236,0.9352,0.9586,0.974,0.9853,0.9796,0.9796,0.9856,0.9856,0.9914,0.9891,0.9192,0.931,1.004,0.9527,0.9789,1.0624,1.0624,1.0495,1.0368,1.0368,1.0234,0.9974,0.8678,0.8223,0.8091,0.7046,0.7242,0.8091,0.8616,0.8879,0.9075,0.9075,0.8549,0.7962,0.7765,0.7765,0.77,0.7572,0.6985,0.6461,0.6461,0.5879,0.5328,0.5201,0.5152,0.5098,0.4982,0.4838,0.4775,0.4897,0.4716,0.4761,0.5274,0.486,0.4679,0.5218,0.5326,0.5599,0.631,0.6258,0.6206,0.6206,0.6206,0.6206,0.6206,0.5655,0.5546,0.6152,0.5119,0.5007,0.6152,0.5601,0.5601,0.6206,0.6206,0.6206,0.6152,0.5601,0.538,0.2144,0.1545,0.1001,0.1014,0.1064,0.1226,0.0,0.0,0.2201,0.319,0.168,0.0142,0.005,-0.0,0.0474,0.201,0.3493,0.4468,0.4519,0.4517,0.4517,0.4625,0.522,0.5871,0.6532,0.7345,0.8046,0.8646,0.8752,0.8918,0.9123,0.9167,0.9419,1.0003,0.9803,0.9937,1.052,1.0197,1.0197,1.0524,1.0524,1.0094,0.9357,0.9291,0.8913,0.835,0.9008,0.9789,1.0624,1.0624,1.0107,0.9466,0.9466,0.9005,0.8353,0.8944,0.9139,0.8944,0.7242,0.7242,0.7897,0.7242,0.7502,0.8159,0.8159,0.8091,0.7829,0.7046,0.685,0.6656,0.5883,0.5624,0.5557,0.5557,0.5493,0.5423,0.534,0.5228,0.5125,0.5109,0.4991,0.4899,0.4916,0.4891,0.4821,0.48,0.4604,0.4517,0.4625,0.4625,0.4895,0.5542,0.5115,0.4736,0.4736,0.4736,0.4736,0.4736,0.468,0.4625,0.4736,0.4572,0.4572,0.4736,0.468,0.4625,0.4736,0.4736,0.4736,0.4736,0.4625,0.4948,0.1232,0.0614,0.037,0.0,0.0383,0.0433,0.0679,0.0771,0.1395,0.3643,0.3026,0.1948,0.1394,0.1262,0.1764,0.0,0.4103,0.448,0.4519,0.4517,0.4517,0.4517,0.5111,0.5597,0.5925,0.7393,0.8265,0.8156,0.8689,0.906,0.9176,0.9508,0.9863,1.0107,1.0167,1.0311,1.0621,1.0438,1.0184,0.9849,0.9849,0.9393,0.8549,0.8027,0.7894,0.8027,0.8353,0.9069,0.9786,0.9326,0.8871,0.8549,0.8549,0.8288,0.7959,0.7829,0.7765,0.7697,0.6979,0.6913,0.7242,0.7437,0.7372,0.724,0.724,0.692,0.6402,0.6077,0.5945,0.5881,0.5491,0.5428,0.5428,0.5428,0.5428,0.5428,0.5428,0.5309,0.5265,0.5265,0.5145,0.507,0.5162,0.5035,0.4926,0.4943,0.4745,0.4562,0.4531,0.4517,0.4625,0.4895,0.4679,0.4517,0.4517,0.4517,0.4517,0.4517,0.4517,0.4517,0.4517,0.4517,0.4517,0.4517,0.4517,0.4517,0.4517,0.4517,0.4517,0.4517,0.4517,0.4624,0.1216,0.0663,0.0,0.008,-0.0,-0.0,-0.0,-0.0,0.0819,0.3667,0.3882,0.3394,0.2792,0.2765,0.3176,0.4343,0.4479,0.4475,0.4519,0.4517,0.4517,0.4517,0.5275,0.5814,0.5814,0.7444,0.8371,0.8046,0.8741,0.922,0.9359,0.9766,1.007,1.0234,1.0367,1.0478,1.0624,1.0364,0.9916,0.9271,0.9075,0.8484,0.7635,0.6724,0.6787,0.7632,0.7632,0.8156,0.8877,0.8288,0.7829,0.7632,0.7632,0.7507,0.7181,0.6595,0.6656,0.7046,0.6785,0.6719,0.6785,0.7181,0.6854,0.6332,0.6332,0.5881,0.5428,0.5428,0.5428,0.5428,0.5428,0.5428,0.5428,0.5428,0.5428,0.5428,0.5428,0.5428,0.5428,0.5428,0.527,0.523,0.5342,0.5182,0.5062,0.5121,0.4916,0.4697,0.4545,0.4544,0.4517,0.4517,0.4517,0.4517,0.4517,0.4517,0.4517,0.4517,0.4517,0.4517,0.4517,0.4517,0.4517,0.4517,0.4517,0.4517,0.4517,0.4517,0.4517,0.4517,0.4517,0.4517,0.2917,0.0,0.1466,0.0293,-0.0,-0.0,-0.0,-0.0,0.0682,0.3136,0.3603,0.3687,0.3907,0.4229,0.4438,0.4513,0.4479,0.4475,0.4519,0.4517,0.4517,0.4517,0.5716,0.6588,0.0,0.7289,0.8046,0.8699,0.902,0.9365,0.9653,0.9686,0.9957,1.0591,1.0274,1.0267,1.0621,0.9789,0.9335,0.9271,0.842,0.757,0.6719,0.5817,0.5945,0.6719,0.6719,0.7242,0.8027,0.8027,0.7502,0.6719,0.6719,0.6203,0.5493,0.5428,0.6533,0.7829,0.6979,0.6719,0.659,0.5752,0.5493,0.5427,0.5427,0.5427,0.5428,0.5428,0.5428,0.5428,0.5428,0.5428,0.5428,0.5428,0.5428,0.5428,0.5428,0.5428,0.5428,0.5428,0.5425,0.5423,0.5428,0.5422,0.5299,0.5152,0.5006,0.4857,0.4702,0.4553,0.4517,0.4517,0.4517,0.4517,0.4517,0.4517,0.4517,0.4517,0.4517,0.4517,0.4517,0.4517,0.4517,0.4517,0.4517,0.4517,0.4517,0.4517,0.4517,0.4517,0.4517,0.4517,0.3161,0.0,0.2751,0.2437,0.1194,-0.0,-0.0,-0.0,0.0235,0.1045,0.248,0.3644,0.3878,0.4061,0.4211,0.4302,0.4407,0.4522,0.4517,0.4517,0.4517,0.4517,0.5771,0.0,0.0,0.0,0.0,0.8755,0.9259,0.9576,0.9679,1.0053,1.0419,1.0614,1.0464,1.0203,0.9722,0.9463,0.8745,0.7567,0.6662,0.6143,0.5817,0.5557,0.5879,0.6654,0.6075,0.6336,0.7111,0.6533,0.6077,0.5817,0.5817,0.5686,0.5428,0.5428,0.5752,0.6208,0.5947,0.5817,0.5817,0.5491,0.5428,0.5428,0.5428,0.5428,0.5428,0.5428,0.5428,0.5428,0.5428,0.5428,0.5428,0.5428,0.5428,0.5428,0.5428,0.5428,0.5428,0.5428,0.5428,0.5428,0.5428,0.5428,0.5308,0.5153,0.4923,0.4711,0.4558,0.4549,0.4517,0.4517,0.4517,0.4517,0.4517,0.4517,0.4517,0.4517,0.4517,0.4517,0.4517,0.4517,0.4517,0.4517,0.4517,0.4517,0.4517,0.4517,0.4517,0.4517,0.4517,0.4517,0.3245,0.33,0.3355,0.3553,0.2416,0.1073,0.0179,-0.0,0.014,0.0558,0.1861,0.3161,0.3775,0.3892,0.4005,0.4162,0.4324,0.4404,0.451,0.4517,0.4517,0.4517,0.5496,0.6202,0.0,0.0,0.0,0.8752,0.9252,0.9573,0.9676,1.0043,1.0406,1.0614,1.0193,0.9743,0.9274,0.8681,0.7637,0.6205,0.5688,0.5428,0.5428,0.5428,0.5686,0.6203,0.5622,0.5684,0.6205,0.5622,0.5428,0.5428,0.5428,0.5428,0.5428,0.5428,0.5428,0.5428,0.5428,0.5428,0.5428,0.5428,0.5428,0.5428,0.5428,0.5428,0.5428,0.5428,0.5428,0.5428,0.5428,0.5428,0.5428,0.5428,0.5428,0.5428,0.5428,0.5428,0.5428,0.5428,0.5428,0.5428,0.5428,0.5428,0.5308,0.5153,0.4969,0.4774,0.457,0.4543,0.458,0.4522,0.4517,0.4517,0.4517,0.4517,0.4517,0.4517,0.4517,0.4517,0.4517,0.4517,0.4517,0.4517,0.4517,0.4517,0.4517,0.4517,0.4517,0.4517,0.4517,0.4517,0.3316,0.3319,0.3355,0.3542,0.3588,0.3004,0.067,0.0089,0.0402,0.1558,0.1821,0.2243,0.0,0.0,0.3877,0.4125,0.4185,0.4246,0.4498,0.4517,0.4519,0.0,0.0,0.0,0.0,0.0,0.0,0.8609,0.8931,0.9217,0.957,0.96,0.986,1.0478,0.9327,0.8876,0.9137,0.7502,0.6203,0.5428,0.5428,0.5428,0.5428,0.5428,0.5428,0.5428,0.5428,0.5428,0.5428,0.5428,0.5428,0.5428,0.5428,0.5428,0.5428,0.5428,0.5428,0.5428,0.5428,0.5428,0.5428,0.5428,0.5428,0.5428,0.5428,0.5428,0.5428,0.5428,0.5428,0.5428,0.5428,0.5428,0.5428,0.5428,0.5428,0.5428,0.5428,0.5428,0.5428,0.5428,0.5428,0.5428,0.5428,0.5428,0.5311,0.5164,0.5143,0.5031,0.473,0.4691,0.4633,0.4534,0.4517,0.4517,0.4517,0.4517,0.4517,0.4517,0.4517,0.4517,0.4517,0.4517,0.4517,0.4517,0.4517,0.4517,0.4517,0.4517,0.4517,0.4517,0.4517,0.4517,0.349,0.3522,0.3531,0.357,0.3581,0.3266,0.205,0.1351,0.1067,0.1364,0.2117,0.2809,0.0,0.0,0.0,0.3877,0.4048,0.0,0.4498,0.4517,0.0,0.5164,0.0,0.5706,0.6256,0.6477,0.0,0.7369,0.766,0.7841,0.8021,0.8327,0.8482,0.867,0.8353,0.7963,0.737,0.6272,0.5622,0.5428,0.5428,0.5428,0.5428,0.5428,0.5428,0.5428,0.5428,0.5428,0.5428,0.5428,0.5428,0.5428,0.5428,0.5428,0.5428,0.5428,0.5428,0.5428,0.5428,0.5428,0.5428,0.5428,0.5428,0.5428,0.5428,0.5428,0.5428,0.5428,0.5428,0.5428,0.5428,0.5428,0.5428,0.5428,0.5428,0.5428,0.5428,0.5428,0.5428,0.5428,0.5428,0.5428,0.5428,0.5428,0.5413,0.5308,0.5303,0.5155,0.4743,0.4691,0.4633,0.4534,0.4517,0.4517,0.4517,0.4517,0.4517,0.4517,0.4517,0.4517,0.4517,0.4517,0.4517,0.4517,0.4517,0.4517,0.4517,0.4517,0.4517,0.4517,0.4517,0.4517,0.3602,0.358,0.358,0.358,0.358,0.3473,0.2922,0.2435,0.2089,0.2044,0.2554,0.0,0.3051,0.3279,0.0,0.0,0.0,0.0,0.4488,0.4517,0.4625,0.0,0.5056,0.0,0.5662,0.5739,0.5812,0.5996,0.6725,0.7228,0.7484,0.7684,0.7861,0.8024,0.7635,0.6983,0.6139,0.562,0.5428,0.5428,0.5428,0.5428,0.5428,0.5428,0.5428,0.5428,0.5428,0.5428,0.5428,0.5428,0.5428,0.5428,0.5428,0.5428,0.5428,0.5428,0.5428,0.5428,0.5428,0.5428,0.5428,0.5428,0.5428,0.5428,0.5428,0.5428,0.5428,0.5428,0.5428,0.5428,0.5428,0.5428,0.5428,0.5428,0.5428,0.5428,0.5428,0.5428,0.5428,0.5428,0.5428,0.5428,0.5428,0.5428,0.5428,0.5428,0.5428,0.5223,0.484,0.4791,0.4706,0.4541,0.4579,0.4536,0.4522,0.458,0.4591,0.452,0.4517,0.4517,0.4517,0.4517,0.4517,0.4517,0.4517,0.4517,0.4517,0.4517,0.4517,0.4517,0.4517,0.4553,0.358,0.358,0.358,0.358,0.358,0.3542,0.3355,0.3174,0.3072,0.3017,0.0,0.2972,0.3023,0.3147,0.3351,0.3712,0.0,0.4099,0.4472,0.4517,0.4517,0.4625,0.457,0.4517,0.4625,0.4656,0.4753,0.4906,0.5982,0.6821,0.7214,0.7233,0.7382,0.763,0.6918,0.6137,0.5428,0.5428,0.5428,0.5428,0.5428,0.5428,0.5428,0.5428,0.5428,0.5428,0.5428,0.5428,0.5428,0.5428,0.5428,0.5428,0.5428,0.5428,0.5428,0.5428,0.5428,0.5428,0.5428,0.5428,0.5428,0.5428,0.5428,0.5428,0.5428,0.5428,0.5428,0.5428,0.5428,0.5428,0.5428,0.5428,0.5428,0.5428,0.5428,0.5428,0.5428,0.5428,0.5428,0.5428,0.5428,0.5428,0.5428,0.5428,0.5428,0.5428,0.5428,0.5254,0.4958,0.4919,0.4801,0.4551,0.4582,0.4606,0.4529,0.4584,0.4602,0.4527,0.4517,0.4517,0.4517,0.4517,0.4517,0.4517,0.4517,0.4517,0.4517,0.4517,0.4517,0.4517,0.4517,0.4545,0.358,0.358,0.358,0.358,0.358,0.3539,0.3345,0.3123,0.0,0.0,0.2747,0.2608,0.2734,0.2883,0.3124,0.3548,0.0,0.0,0.0,0.0,0.4679,0.0,0.0,0.4732,0.5271,0.4934,0.0,0.4906,0.5246,0.5506,0.5767,0.5776,0.5789,0.5817,0.5686,0.5556,0.5428,0.5428,0.5428,0.5428,0.5428,0.5428,0.5428,0.5428,0.5428,0.5428,0.5428,0.5428,0.5428,0.5428,0.5428,0.5428,0.5428,0.5428,0.5428,0.5428,0.5428,0.5428,0.5428,0.5428,0.5428,0.5428,0.5428,0.5428,0.5428,0.5428,0.5428,0.5428,0.5428,0.5428,0.5428,0.5428,0.5428,0.5428,0.5428,0.5428,0.5428,0.5428,0.5428,0.5428,0.5428,0.5428,0.5428,0.5428,0.5428,0.5428,0.5428,0.5254,0.4958,0.4919,0.4801,0.4551,0.4543,0.4546,0.4519,0.4543,0.4546,0.4519,0.4517,0.4517,0.4517,0.4517,0.4517,0.4517,0.4517,0.4517,0.4517,0.4517,0.4517,0.4517,0.4517,0.4545,0.358,0.358,0.358,0.358,0.3519,0.342,0.3224,0.0,0.0,0.0,0.2496,0.2386,0.2567,0.0,0.0,0.0,0.0,0.0,0.0,0.0,0.0,0.0,0.0,0.4625,0.0,0.4899,0.484,0.4914,0.5126,0.5284,0.5425,0.5428,0.5428,0.5428,0.5428,0.5428,0.5428,0.5428,0.5428,0.5428,0.5428,0.5428,0.5428,0.5428,0.5428,0.5428,0.5428,0.5428,0.5428,0.5428,0.5428,0.5428,0.5428,0.5428,0.5428,0.5428,0.5428,0.5428,0.5428,0.5428,0.5428,0.5428,0.5428,0.5428,0.5428,0.5428,0.5428,0.5428,0.5428,0.5428,0.5428,0.5428,0.5428,0.5428,0.5428,0.5428,0.5428,0.5428,0.5428,0.5428,0.5428,0.5428,0.5428,0.5428,0.5428,0.5428,0.5428,0.5282,0.5059,0.5028,0.4884,0.4558,0.4535,0.4548,0.4525,0.4536,0.4546,0.4522,0.4517,0.4517,0.4517,0.4517,0.4517,0.4517,0.4517,0.4517,0.4517,0.4517,0.4517,0.4517,0.4517,0.4587,0.3573,0.3641,0.3753,0.3624,0.3548,0.3431,0.3154,0.2868,0.0,0.0,0.2397,0.2325,0.254,0.0,0.2857,0.0,0.3451,0.0,0.0,0.0,0.0,0.0,0.0,0.0,0.4517,0.474,0.0,0.4919,0.5194,0.5428,0.5428,0.5428,0.5428,0.5428,0.5428,0.5428,0.5428,0.5428,0.5428,0.5428,0.5428,0.5428,0.5428,0.5428,0.5428,0.5428,0.5428,0.5428,0.5428,0.5428,0.5428,0.5428,0.5428,0.5428,0.5428,0.5428,0.5428,0.5428,0.5428,0.5428,0.5428,0.5428,0.5428,0.5428,0.5428,0.5428,0.5428,0.5428,0.5428,0.5428,0.5428,0.5428,0.5428,0.5428,0.5428,0.5428,0.5428,0.5428,0.5428,0.5428,0.5428,0.5428,0.5428,0.5428,0.5428,0.5428,0.5428,0.5306,0.515,0.513,0.4984,0.4601,0.4638,0.4629,0.4531,0.4574,0.459,0.4525,0.4517,0.4517,0.4517,0.4517,0.4517,0.4517,0.4517,0.4517,0.4517,0.4517,0.4517,0.4517,0.4517,0.4626,0.3451,0.3803,0.422,0.3707,0.3846,0.3957,0.3271,0.0,0.0,0.2815,0.2609,0.248,0.281,0.2884,0.2958,0.3253,0.0,0.3532,0.0,0.0,0.0,0.0,0.0,0.0,0.4517,0.474,0.4919,0.4919,0.5194,0.5428,0.5428,0.5428,0.5428,0.5428,0.5428,0.5428,0.5428,0.5428,0.5428,0.5428,0.5428,0.5428,0.5428,0.5428,0.5428,0.5428,0.5428,0.5428,0.5428,0.5428,0.5428,0.5428,0.5428,0.5428,0.5428,0.5428,0.5428,0.5428,0.5428,0.5428,0.5428,0.5428,0.5428,0.5428,0.5428,0.5428,0.5428,0.5428,0.5428,0.5428,0.5428,0.5428,0.5428,0.5428,0.5428,0.5428,0.5428,0.5428,0.5428,0.5428,0.5428,0.5428,0.5428,0.5428,0.5428,0.5428,0.5428,0.5306,0.515,0.513,0.5065,0.4894,0.4765,0.4629,0.4531,0.4531,0.4534,0.4519,0.4517,0.4517,0.4517,0.4517,0.4517,0.4517,0.4517,0.4517,0.4517,0.4517,0.4517,0.4517,0.4517,0.4626,0.4325,0.4593,0.487,0.4659,0.4546,0.4361,0.4087,0.0,0.2999,0.3112,0.2843,0.2686,0.3066,0.2946,0.3005,0.3724,0.3641,0.3658,0.4139,0.0,0.0,0.0,0.4411,0.0,0.0,0.0,0.4855,0.5033,0.5155,0.5264,0.5423,0.5428,0.5428,0.5428,0.5428,0.5428,0.5428,0.5428,0.5428,0.5428,0.5428,0.5428,0.5428,0.5428,0.5428,0.5428,0.5428,0.5428,0.5428,0.5428,0.5428,0.5428,0.5428,0.5428,0.5428,0.5428,0.5428,0.5428,0.5428,0.5428,0.5428,0.5428,0.5428,0.5428,0.5428,0.5428,0.5428,0.5428,0.5428,0.5428,0.5428,0.5428,0.5428,0.5428,0.5428,0.5428,0.5428,0.5428,0.5428,0.5428,0.5428,0.5428,0.5428,0.5428,0.5428,0.5428,0.5428,0.5338,0.5277,0.5269,0.5213,0.5062,0.4916,0.4802,0.4741,0.4652,0.4599,0.4599,0.4568,0.4517,0.4517,0.4517,0.4517,0.4517,0.4517,0.4517,0.4517,0.4517,0.4517,0.4517,0.4517,0.4626,0.4803,0.5122,0.5381,0.5209,0.5039,0.4808,0.0,0.3876,0.3321,0.3402,0.3168,0.3032,0.3359,0.3269,0.3385,0.4074,0.4044,0.404,0.4535,0.4734,0.0,0.0,0.0,0.5007,0.4842,0.4711,0.4814,0.5108,0.513,0.5198,0.5418,0.5428,0.5428,0.5428,0.5428,0.5428,0.5428,0.5428,0.5428,0.5428,0.5428,0.5428,0.5428,0.5428,0.5428,0.5428,0.5428,0.5428,0.5428,0.5428,0.5428,0.5428,0.5428,0.5428,0.5428,0.5428,0.5428,0.5428,0.5428,0.5428,0.5428,0.5428,0.5428,0.5428,0.5428,0.5428,0.5428,0.5428,0.5428,0.5428,0.5428,0.5428,0.5428,0.5428,0.5428,0.5428,0.5428,0.5428,0.5428,0.5428,0.5428,0.5428,0.5428,0.5428,0.5428,0.5428,0.5428,0.5411,0.5299,0.5333,0.5303,0.5147,0.5081,0.4996,0.4863,0.4752,0.4672,0.4626,0.4579,0.4517,0.4517,0.4517,0.4517,0.4517,0.4517,0.4517,0.4517,0.4517,0.4517,0.4517,0.4517,0.4626,0.4553,0.512,0.5553,0.5022,0.5203,0.5259,0.0,0.3737,0.3375,0.3647,0.3574,0.3523,0.3682,0.396,0.4197,0.4202,0.4416,0.4786,0.541,0.5784,0.0,0.0,0.0,0.6312,0.5542,0.4989,0.4814,0.5108,0.513,0.5198,0.5418,0.5428,0.5428,0.5428,0.5428,0.5428,0.5428,0.5428,0.5428,0.5428,0.5428,0.5428,0.5428,0.5428,0.5428,0.5428,0.5428,0.5428,0.5428,0.5428,0.5428,0.5428,0.5428,0.5428,0.5428,0.5428,0.5428,0.5428,0.5428,0.5428,0.5428,0.5428,0.5428,0.5428,0.5428,0.5428,0.5428,0.5428,0.5428,0.5428,0.5428,0.5428,0.5428,0.5428,0.5428,0.5428,0.5428,0.5428,0.5428,0.5428,0.5428,0.5428,0.5428,0.5428,0.5428,0.5428,0.5428,0.5306,0.5152,0.5267,0.5303,0.5147,0.5265,0.5176,0.4731,0.4692,0.4626,0.4531,0.4519,0.4517,0.4517,0.4517,0.4517,0.4517,0.4517,0.4517,0.4517,0.4517,0.4517,0.4517,0.4517,0.4626,0.501,0.5362,0.5617,0.5251,0.528,0.5241,0.4734,0.4334,0.4025,0.3917,0.3883,0.3905,0.4136,0.4192,0.4506,0.5415,0.5382,0.5271,0.0,0.0,0.0,0.5025,0.5103,0.5062,0.0,0.4671,0.4618,0.4816,0.4926,0.505,0.5196,0.5304,0.5428,0.5428,0.5428,0.5428,0.5428,0.5428,0.5428,0.5428,0.5428,0.5428,0.5428,0.5428,0.5428,0.5428,0.5428,0.5428,0.5428,0.5428,0.5428,0.5428,0.5428,0.5428,0.5428,0.5428,0.5428,0.5428,0.5428,0.5428,0.5428,0.5428,0.5428,0.5428,0.5428,0.5428,0.5428,0.5428,0.5428,0.5428,0.5428,0.5428,0.5428,0.5428,0.5428,0.5428,0.5428,0.5428,0.5428,0.5428,0.5428,0.5428,0.5428,0.5428,0.5428,0.5428,0.5428,0.541,0.5294,0.5238,0.5186,0.5135,0.5174,0.5189,0.5153,0.5052,0.493,0.4784,0.4677,0.4572,0.452,0.4517,0.4517,0.4517,0.4517,0.4517,0.4517,0.4517,0.4517,0.4522,0.4677,0.4826,0.0,0.5276,0.5337,0.5277,0.526,0.5181,0.4878,0.4602,0.4357,0.4193,0.4152,0.4138,0.4129,0.4388,0.4837,0.549,0.5499,0.5482,0.0,0.0,0.0,0.5145,0.0,0.0,0.4895,0.4625,0.4582,0.4679,0.4779,0.4919,0.512,0.5172,0.5247,0.5425,0.5428,0.5428,0.5428,0.5428,0.5428,0.5428,0.5428,0.5428,0.5428,0.5428,0.5428,0.5428,0.5428,0.5428,0.0,0.5428,0.5428,0.5428,0.5428,0.5428,0.5428,0.5428,0.5428,0.5428,0.5428,0.5428,0.5428,0.5428,0.5428,0.5428,0.5428,0.5428,0.5428,0.5428,0.5428,0.5428,0.5428,0.5428,0.5428,0.5428,0.5428,0.5428,0.5428,0.5428,0.5428,0.5428,0.5428,0.5428,0.5428,0.5428,0.5428,0.5428,0.5428,0.5387,0.5209,0.5157,0.5109,0.5057,0.5052,0.5111,0.5262,0.5186,0.507,0.4928,0.4775,0.4648,0.4551,0.4548,0.4517,0.4517,0.4517,0.4517,0.4517,0.4517,0.4517,0.4522,0.4718,0.4865,0.0,0.492,0.0,0.5043,0.511,0.5073,0.4811,0.4553,0.0,0.4375,0.4361,0.4251,0.3801,0.4554,0.509,0.4725,0.4991,0.0,0.0,0.5937,0.0,0.0,0.5819,0.0,0.5433,0.484,0.4579,0.4663,0.4684,0.4811,0.5084,0.4984,0.5045,0.5387,0.5396,0.5406,0.5428,0.5406,0.5401,0.5411,0.5411,0.5411,0.5411,0.5423,0.5428,0.5428,0.5428,0.5428,0.5428,0.5428,0.5428,0.5428,0.5428,0.5428,0.5428,0.5428,0.5428,0.5428,0.5428,0.542,0.5411,0.5411,0.5418,0.5428,0.5428,0.5428,0.5428,0.5428,0.5428,0.5428,0.5428,0.5428,0.5428,0.5428,0.5428,0.5428,0.5428,0.5428,0.5428,0.5428,0.5428,0.5428,0.5428,0.5428,0.5428,0.5428,0.5418,0.525,0.4984,0.5036,0.5057,0.4945,0.4916,0.4962,0.5104,0.5114,0.5055,0.4913,0.477,0.4685,0.4675,0.4594,0.4517,0.4517,0.4517,0.4517,0.4517,0.4517,0.4517,0.452,0.4619,0.4774,0.4029,0.0,0.4189,0.4201,0.4395,0.4495,0.0,0.4252,0.4335,0.0,0.0,0.0,0.3963,0.4223,0.4596,0.5055,0.0,0.0,0.5424,0.0,0.0,0.4999,0.4844,0.4734,0.4734,0.457,0.4532,0.4568,0.4624,0.4721,0.4791,0.4874,0.495,0.5021,0.5023,0.5131,0.5427,0.5137,0.5077,0.5186,0.5186,0.5186,0.5189,0.5308,0.5428,0.5428,0.5428,0.5428,0.5428,0.5428,0.5428,0.5428,0.5428,0.5428,0.5428,0.5428,0.5428,0.5428,0.5428,0.5284,0.5186,0.5186,0.5265,0.5428,0.5428,0.5428,0.5428,0.5428,0.5428,0.5428,0.5428,0.5428,0.5428,0.5428,0.5428,0.5428,0.5428,0.5428,0.5428,0.5428,0.5428,0.5428,0.5428,0.5428,0.5428,0.5428,0.526,0.5201,0.5252,0.4987,0.4869,0.506,0.4879,0.4804,0.4957,0.4969,0.4904,0.4753,0.4709,0.4638,0.4577,0.4537,0.4517,0.4517,0.4517,0.4517,0.4517,0.4517,0.4517,0.452,0.4619,0.4774,0.3629,0.3846,0.4022,0.4116,0.4358,0.4514,0.4201,0.0,0.0,0.0,0.0,0.0,0.0,0.0,0.0,0.0,0.4716,0.0,0.0,0.0,0.4517,0.4517,0.4517,0.4517,0.4517,0.4517,0.4517,0.4517,0.454,0.4618,0.4687,0.4702,0.4774,0.4914,0.4782,0.4855,0.5157,0.4999,0.4958,0.5033,0.5099,0.513,0.5135,0.5291,0.5428,0.5428,0.5428,0.5428,0.5428,0.5428,0.5428,0.5428,0.5428,0.5428,0.5418,0.5281,0.5255,0.5247,0.5181,0.5103,0.5043,0.5109,0.5187,0.5269,0.534,0.5428,0.5428,0.5428,0.5428,0.5428,0.5428,0.5428,0.5428,0.5428,0.5428,0.5428,0.5428,0.5428,0.5428,0.5428,0.5428,0.5428,0.5428,0.5428,0.5337,0.5265,0.5184,0.5111,0.506,0.4841,0.4752,0.4913,0.4723,0.4648,0.4801,0.4814,0.4808,0.4796,0.4796,0.4757,0.4675,0.4592,0.4517,0.4517,0.4517,0.4517,0.4517,0.4517,0.4517,0.4519,0.4546,0.4704,0.3575,0.3862,0.4203,0.4353,0.4584,0.4739,0.0,0.0,0.0,0.0,0.0,0.0,0.0,0.0,0.0,0.0,0.0,0.0,0.4195,0.4375,0.452,0.452,0.452,0.4519,0.4517,0.4517,0.4517,0.4517,0.4517,0.4575,0.4648,0.4589,0.4582,0.4841,0.4597,0.4642,0.4963,0.4908,0.4862,0.4886,0.5006,0.5064,0.5069,0.5247,0.5326,0.5326,0.5326,0.5326,0.5325,0.5303,0.5294,0.5294,0.5294,0.5294,0.5279,0.5147,0.5099,0.5077,0.4933,0.4899,0.4935,0.5031,0.5079,0.5121,0.5254,0.5308,0.5326,0.5326,0.5343,0.5428,0.5428,0.5428,0.5428,0.5428,0.5428,0.5422,0.5332,0.5326,0.5326,0.5326,0.5326,0.5333,0.5425,0.5342,0.5281,0.515,0.5091,0.4981,0.4753,0.4685,0.4674,0.4721,0.4568,0.4591,0.4709,0.4726,0.478,0.4911,0.4919,0.4908,0.4886,0.4635,0.4543,0.4517,0.4517,0.4517,0.4517,0.4517,0.4517,0.4517,0.4517,0.4613,0.3916,0.4371,0.4751,0.4397,0.456,0.4786,0.4743,0.0,0.0,0.0,0.0,0.0,0.0,0.0,0.3948,0.0,0.0,0.4223,0.0,0.0,0.4475,0.4475,0.4475,0.4472,0.4519,0.4517,0.4517,0.4517,0.4517,0.4529,0.4551,0.4531,0.4539,0.4587,0.4543,0.4812,0.5407,0.4862,0.4597,0.4726,0.4746,0.4757,0.4769,0.5042,0.5165,0.5165,0.5165,0.5165,0.5157,0.5035,0.4986,0.4986,0.4986,0.4986,0.4984,0.496,0.495,0.493,0.4779,0.4809,0.4901,0.4792,0.4845,0.4957,0.4979,0.507,0.5165,0.5165,0.526,0.5428,0.5428,0.5428,0.5428,0.5428,0.5428,0.5326,0.5194,0.5165,0.5165,0.5165,0.5165,0.5206,0.5338,0.5254,0.5157,0.5133,0.4918,0.4789,0.4874,0.4657,0.4596,0.4855,0.4631,0.4577,0.4858,0.4884,0.4894,0.4918,0.4919,0.4862,0.4731,0.468,0.4594,0.4519,0.4517,0.4517,0.4517,0.4517,0.4517,0.4517,0.4517,0.4557,0.3801,0.4196,0.4622,0.4406,0.4883,0.5293,0.488,0.0,0.0,0.0,0.0,0.0,0.0,0.0,0.3899,0.3913,0.0,0.4224,0.436,0.4428,0.4525,0.4525,0.4525,0.4522,0.4517,0.4517,0.4517,0.4517,0.4517,0.4517,0.4517,0.4517,0.4679,0.5001,0.5058,0.5384,0.6091,0.5769,0.5485,0.5121,0.5214,0.5089,0.4697,0.4918,0.5016,0.5016,0.5016,0.5016,0.5011,0.4945,0.4919,0.4919,0.4919,0.4919,0.4908,0.4826,0.4743,0.4662,0.4592,0.4613,0.4675,0.4687,0.4738,0.4811,0.4894,0.4965,0.5016,0.5016,0.5182,0.5428,0.5428,0.5299,0.5237,0.5237,0.5179,0.5103,0.5031,0.5016,0.5016,0.5016,0.5016,0.5038,0.5109,0.5064,0.4987,0.4906,0.4777,0.4685,0.4674,0.455,0.4572,0.4657,0.4546,0.4575,0.466,0.4824,0.4919,0.4919,0.4991,0.4892,0.458,0.4726,0.4702,0.4522,0.4517,0.4517,0.4517,0.4517,0.452,0.4525,0.452,0.4546,0.3798,0.4122,0.4537,0.4498,0.0,0.5517,0.5105,0.0,0.0,0.0,0.0,0.0,0.0,0.3997,0.0,0.4012,0.4177,0.4338,0.4505,0.452,0.452,0.452,0.452,0.452,0.4517,0.4517,0.4517,0.4517,0.4517,0.4517,0.4517,0.4625,0.4948,0.5485,0.5651,0.6088,0.6858,0.6696,0.6256,0.5487,0.5636,0.5368,0.4643,0.4796,0.4867,0.4867,0.4867,0.4867,0.4863,0.4828,0.4811,0.4811,0.4811,0.4811,0.4797,0.468,0.4562,0.4517,0.4517,0.4517,0.4537,0.4599,0.4638,0.4658,0.4777,0.4836,0.4867,0.4867,0.5055,0.5257,0.5257,0.517,0.5081,0.5081,0.4997,0.4908,0.4874,0.4867,0.4867,0.4867,0.4867,0.4877,0.4913,0.4889,0.4826,0.4707,0.466,0.4594,0.4534,0.4517,0.4517,0.4517,0.4549,0.4587,0.4565,0.4784,0.4902,0.4869,0.5031,0.4945,0.4589,0.4741,0.4738,0.4522,0.4517,0.4517,0.4517,0.4517,0.4522,0.4475,0.452,0.4473,0.4263,0.4633,0.4938,0.4798,0.4833,0.0,0.5506,0.546,0.0,0.5227,0.0,0.0,0.0,0.3987,0.3982,0.4014,0.426,0.451,0.4475,0.4477,0.4477,0.4477,0.4477,0.4473,0.4519,0.4517,0.4517,0.4517,0.4517,0.4517,0.4517,0.5111,0.5431,0.5485,0.6147,0.6856,0.7613,0.6966,0.6256,0.5485,0.55,0.5183,0.4539,0.4638,0.4706,0.4706,0.4706,0.4706,0.4696,0.4553,0.4551,0.4551,0.4551,0.4551,0.4549,0.4539,0.4527,0.4517,0.4517,0.4517,0.4519,0.4531,0.4534,0.4537,0.4548,0.4594,0.4706,0.4706,0.4824,0.495,0.495,0.4942,0.4935,0.4935,0.4926,0.488,0.4738,0.4706,0.4706,0.4706,0.4706,0.4752,0.4894,0.4801,0.4702,0.4692,0.457,0.4531,0.4519,0.4517,0.4517,0.4517,0.4589,0.4731,0.4874,0.4906,0.4857,0.4716,0.4974,0.4992,0.4687,0.4696,0.4629,0.452,0.4517,0.4517,0.4517,0.4517,0.4517,0.4519,0.4517,0.4524,0.4063,0.4354,0.4622,0.4554,0.468,0.0,0.0,0.5787,0.5721,0.5181,0.5166,0.0,0.0,0.0,0.3909,0.4004,0.4194,0.4362,0.4455,0.4524,0.4524,0.4524,0.4524,0.4522,0.4517,0.4517,0.4517,0.4517,0.4517,0.468,0.5111,0.5378,0.5921,0.6848,0.7125,0.7399,0.7723,0.7399,0.6686,0.5485,0.5982,0.5819,0.5111,0.5177,0.521,0.5152,0.4769,0.4548,0.4545,0.4543,0.4517,0.4517,0.4517,0.4517,0.4517,0.4517,0.4517,0.4517,0.4517,0.4517,0.4517,0.4517,0.4517,0.4517,0.4517,0.4558,0.4548,0.4548,0.459,0.4679,0.487,0.4848,0.4777,0.4777,0.4704,0.4619,0.456,0.4548,0.4548,0.4548,0.4548,0.4568,0.4626,0.4587,0.4548,0.4548,0.4555,0.4517,0.4517,0.4517,0.4517,0.4517,0.4568,0.4609,0.4765,0.4777,0.4752,0.4694,0.4884,0.4863,0.456,0.464,0.4623,0.4477,0.452,0.452,0.4472,0.452,0.452,0.4472,0.452,0.452,0.3869,0.4074,0.4258,0.0,0.0,0.0,0.5432,0.5824,0.589,0.5416,0.5157,0.4742,0.3753,0.0,0.0,0.3995,0.4097,0.4246,0.4498,0.4517,0.4517,0.4517,0.4517,0.4517,0.4517,0.4517,0.4517,0.4517,0.4517,0.4679,0.5164,0.5378,0.6086,0.7289,0.7343,0.7453,0.7723,0.723,0.6519,0.5485,0.6036,0.5873,0.5162,0.5162,0.5162,0.5164,0.4679,0.4517,0.4517,0.4517,0.4517,0.4517,0.4517,0.4517,0.4517,0.4517,0.4517,0.4517,0.4517,0.4517,0.4517,0.4517,0.4517,0.4517,0.4517,0.4517,0.4517,0.4517,0.4517,0.4565,0.4721,0.4697,0.4619,0.4619,0.4594,0.4517,0.4517,0.4517,0.4517,0.4517,0.4517,0.4517,0.4517,0.4517,0.4517,0.4517,0.4517,0.4517,0.4517,0.4517,0.4537,0.4585,0.4546,0.458,0.4679,0.4646,0.4619,0.4619,0.4721,0.4685,0.4527,0.4565,0.4579,0.4482,0.4019,0.4019,0.4479,0.4525,0.4524,0.4473,0.452,0.4524,0.3828,0.3914,0.0,0.0,0.0,0.0,0.514,0.5502,0.5786,0.6103,0.5216,0.422,0.3709,0.3741,0.0,0.3995,0.4095,0.4242,0.4498,0.4517,0.4517,0.4517,0.4517,0.4517,0.4517,0.4517,0.4517,0.4517,0.4517,0.4517,0.4519,0.5166,0.5817,0.6586,0.6588,0.6964,0.767,0.6246,0.5485,0.5485,0.5485,0.5166,0.4519,0.4519,0.4519,0.4519,0.4519,0.4517,0.4517,0.4517,0.4517,0.4517,0.4517,0.4517,0.4517,0.4517,0.4517,0.4517,0.4517,0.4517,0.4517,0.4517,0.4517,0.4517,0.4517,0.4517,0.4517,0.4517,0.4517,0.4517,0.4517,0.4517,0.4517,0.4517,0.4517,0.4517,0.4517,0.4517,0.4517,0.4517,0.4517,0.4517,0.4517,0.4517,0.4517,0.4517,0.4517,0.4517,0.4517,0.4517,0.4577,0.4674,0.4553,0.458,0.4675,0.455,0.4517,0.4517,0.4472,0.4473,0.4517,0.4473,0.4479,0.4479,0.3014,0.2959,0.4479,0.4479,0.4473,0.4517,0.4517,0.4524,0.4109,0.4223,0.0,0.0,0.0,0.0,0.0,0.5426,0.0,0.0,0.4957,0.4478,0.4744,0.4483,0.4306,0.4611,0.4307,0.4175,0.4481,0.4517,0.4517,0.4517,0.4517,0.4517,0.4517,0.4517,0.4517,0.4517,0.4517,0.4679,0.5164,0.5378,0.5817,0.6586,0.6588,0.6475,0.614,0.5703,0.5271,0.4787,0.4787,0.495,0.5218,0.5218,0.5218,0.5218,0.5218,0.495,0.4517,0.4517,0.4517,0.4517,0.4517,0.4517,0.4517,0.4517,0.4517,0.4517,0.4517,0.4517,0.4517,0.4517,0.4517,0.4517,0.4517,0.4517,0.4517,0.4517,0.4517,0.4517,0.4517,0.4517,0.4517,0.4517,0.4517,0.4517,0.4517,0.4517,0.4517,0.4517,0.4517,0.4517,0.4517,0.4517,0.4517,0.4517,0.4517,0.4517,0.4517,0.4517,0.4536,0.4582,0.4544,0.4536,0.4582,0.4544,0.452,0.4473,0.4477,0.4477,0.4473,0.4484,0.4492,0.4492,0.335,0.3349,0.4492,0.4482,0.448,0.4485,0.4485,0.4489,0.4131,0.0,0.0,0.0,0.0,0.5162,0.5633,0.0,0.0,0.0,0.5216,0.5173,0.5262,0.5,0.4757,0.4795,0.4566,0.4453,0.4766,0.4856,0.5005,0.5281,0.5336,0.5336,0.5336,0.5336,0.5336,0.5336,0.5336,0.5496,0.5928,0.5651,0.5817,0.6586,0.6043,0.5821,0.5925,0.5649,0.5435,0.5336,0.5062,0.5111,0.5485,0.5216,0.5111,0.5111,0.5111,0.4895,0.4517,0.4517,0.4517,0.4517,0.4517,0.4517,0.4517,0.4517,0.4517,0.4517,0.4517,0.4517,0.4517,0.4517,0.4517,0.4517,0.4517,0.4517,0.4517,0.4517,0.4517,0.4517,0.4517,0.4517,0.4517,0.4517,0.4517,0.4517,0.4517,0.4517,0.4517,0.4517,0.4517,0.4517,0.4517,0.4517,0.4517,0.4517,0.4517,0.4517,0.4517,0.452,0.4522,0.4517,0.452,0.4522,0.4517,0.4517,0.452,0.4472,0.4135,0.391,0.391,0.4262,0.4497,0.4497,0.3919,0.3917,0.4497,0.449,0.4315,0.3919,0.3919,0.3806,0.4047,0.0,0.0,0.0,0.0,0.0,0.5075,0.6085,0.6677,0.5607,0.0,0.6047,0.5567,0.5435,0.525,0.4916,0.4911,0.5041,0.5328,0.5458,0.5788,0.6502,0.6576,0.6588,0.6588,0.6588,0.6588,0.6588,0.6588,0.6588,0.6588,0.5982,0.5928,0.6586,0.5336,0.5281,0.6588,0.5925,0.5925,0.6477,0.5814,0.5487,0.5378,0.4787,0.4517,0.457,0.4517,0.4517,0.457,0.4517,0.4517,0.4517,0.4517,0.4517,0.4517,0.4517,0.4517,0.4517,0.4517,0.4517,0.4517,0.4517,0.4517,0.4517,0.4517,0.4517,0.4517,0.4517,0.4517,0.4517,0.4517,0.4517,0.4517,0.4517,0.4517,0.4517,0.4517,0.4517,0.4517,0.4517,0.4517,0.4517,0.4517,0.4517,0.4517,0.4517,0.4517,0.4517,0.4519,0.4472,0.4418,0.4294,0.4416,0.4475,0.4519,0.4519,0.4519,0.4519,0.3623,0.3119,0.3121,0.3749,0.4211,0.4494,0.4497,0.4497,0.4496,0.4497,0.3976,0.2951,0.3064,0.29,0.0,0.4469,0.0,0.0,0.0,0.5759,0.5337,0.6163,0.6813,0.6133,0.6093,0.6307,0.6595,0.6301,0.5998,0.6053,0.5679,0.546,0.5665,0.5921,0.6102,0.6261,0.6475,0.6588,0.6588,0.6588,0.6588,0.6588,0.6588,0.6588,0.6588,0.6423,0.6423,0.6588,0.6315,0.6315,0.6588,0.6423,0.6145,0.5762,0.5597,0.5216,0.4734,0.4572,0.4787,0.5271,0.4734,0.4787,0.5218,0.4732,0.4517,0.4517,0.4517,0.4517,0.4517,0.4517,0.4517,0.4517,0.4517,0.4517,0.4517,0.4517,0.4517,0.4517,0.4517,0.4517,0.4517,0.4517,0.4517,0.4517,0.4517,0.4517,0.4517,0.4517,0.4517,0.4517,0.4517,0.4517,0.4517,0.4517,0.4517,0.4517,0.4517,0.4517,0.4517,0.4517,0.4517,0.452,0.4473,0.4477,0.4025,0.2843,0.3751,0.4489,0.4475,0.4475,0.4475,0.4475,0.4306,0.4196,0.415,0.2122,0.2065,0.4482,0.4501,0.4502,0.4482,0.4492,0.3754,0.2398,0.3637,0.4098,0.0,0.0,0.0,0.0,0.0,0.0,0.5917,0.6398,0.6772,0.6619,0.6605,0.6686,0.6937,0.6771,0.652,0.6349,0.6113,0.6,0.617,0.6336,0.6632,0.699,0.7117,0.7298,0.7422,0.7437,0.7538,0.7658,0.7667,0.7667,0.7667,0.7343,0.6966,0.6588,0.6256,0.6256,0.6588,0.6256,0.6253,0.6522,0.5812,0.5166,0.4517,0.4517,0.4679,0.5003,0.4679,0.4679,0.5003,0.4625,0.4517,0.4517,0.4517,0.4517,0.4517,0.4517,0.4517,0.4517,0.4517,0.4517,0.4517,0.4517,0.4517,0.4517,0.4517,0.4517,0.4517,0.4517,0.4517,0.4517,0.4517,0.4517,0.4517,0.4517,0.4517,0.4517,0.4517,0.4517,0.4517,0.4517,0.4517,0.4517,0.4517,0.4517,0.4517,0.4517,0.4517,0.4519,0.4525,0.3855,0.3351,0.3294,0.2737,0.2626,0.335,0.4087,0.4489,0.4489,0.4489,0.449,0.4497,0.2969,0.2911,0.4487,0.4501,0.4501,0.4489,0.4501,0.4101,0.3301,0.4101,0.4509,0.0,0.0,0.0,0.0,0.0,0.0,0.6436,0.6554,0.6597,0.6887,0.6987,0.6979,0.6979,0.6979,0.6852,0.6392,0.6437,0.6574,0.6806,0.6982,0.7295,0.7893,0.8081,0.8211,0.8323,0.8393,0.8518,0.8711,0.8731,0.8754,0.8804,0.8212,0.756,0.6804,0.6199,0.6088,0.6588,0.5982,0.6251,0.7286,0.5977,0.5056,0.4517,0.4517,0.4517,0.4517,0.4517,0.4517,0.4517,0.4517,0.4517,0.4517,0.4517,0.4517,0.4517,0.4517,0.4517,0.4517,0.4517,0.4517,0.4517,0.4517,0.4517,0.4517,0.4517,0.4517,0.4517,0.4517,0.4517,0.4517,0.4517,0.4517,0.4517,0.4519,0.4519,0.4517,0.4517,0.4517,0.4517,0.452,0.452,0.4519,0.4517,0.4517,0.4517,0.4517,0.4517,0.4519,0.4522,0.3404,0.2904,0.3635,0.1507,0.0503,0.1728,0.2964,0.3814,0.4096,0.4096,0.4096,0.4096,0.4335,0.4509,0.4501,0.3987,0.3871,0.4096,0.4392,0.4337,0.4096,0.4106,0.4225,0.0,0.0,0.0,0.0,0.0,0.6225,0.0,0.0,0.6334,0.0,0.6844,0.6979,0.6979,0.6979,0.6979,0.6898,0.6927,0.7123,0.7637,0.795,0.8149,0.8249,0.8841,0.8943,0.8075,0.8401,0.8624,0.8457,0.8434,0.854,0.8794,0.8699,0.8318,0.756,0.745,0.7125,0.6588,0.6477,0.6253,0.576,0.5005,0.457,0.4517,0.4517,0.4517,0.4517,0.4517,0.4517,0.4517,0.4517,0.4517,0.4517,0.4517,0.4517,0.4517,0.4517,0.4517,0.4517,0.4517,0.4517,0.4517,0.4517,0.4517,0.4517,0.4517,0.4517,0.4517,0.4517,0.4517,0.4517,0.4517,0.4517,0.4519,0.4473,0.4524,0.4517,0.4517,0.4517,0.452,0.4475,0.4477,0.4473,0.4519,0.4517,0.4517,0.4517,0.4517,0.4524,0.449,0.4322,0.325,0.084,0.0224,0.0056,0.0279,0.0503,0.1172,0.2399,0.2512,0.2512,0.2512,0.3764,0.4514,0.4512,0.1906,0.1231,0.2512,0.3822,0.3821,0.2512,0.2513,0.3249,0.4508,0.0,0.0,0.0,0.0,0.605,0.5969,0.0,0.5992,0.6324,0.6488,0.6637,0.6961,0.6979,0.6979,0.6979,0.6979,0.7108,0.7363,0.7475,0.7563,0.7563,0.7889,0.8003,0.7698,0.7888,0.8138,0.8387,0.8012,0.7925,0.8143,0.7777,0.7233,0.6465,0.6465,0.6303,0.598,0.5605,0.5279,0.495,0.4625,0.4517,0.4517,0.4524,0.4524,0.4517,0.4517,0.4517,0.4517,0.4517,0.4517,0.4517,0.4517,0.4517,0.4517,0.4517,0.4517,0.4517,0.4517,0.4517,0.4517,0.4517,0.4517,0.4517,0.4517,0.4517,0.4517,0.4517,0.4517,0.4517,0.4517,0.4522,0.4472,0.4477,0.3855,0.3457,0.4301,0.4522,0.452,0.4477,0.4479,0.4479,0.448,0.4525,0.4522,0.4479,0.4475,0.4477,0.4496,0.4502,0.3994,0.2639,0.1009,-0.0,-0.0,-0.0,0.028,0.095,0.095,0.095,0.095,0.3261,0.4524,0.4524,0.1514,0.0336,0.0948,0.1623,0.2523,0.3422,0.1734,0.1343,0.0,0.0,0.0,0.0,0.0,0.5906,0.0,0.0,0.5817,0.6018,0.6082,0.6236,0.6707,0.6864,0.6934,0.6969,0.6979,0.7063,0.7192,0.7234,0.7234,0.7234,0.7353,0.7401,0.7375,0.7531,0.7708,0.7905,0.7444,0.7203,0.7298,0.6786,0.6149,0.5403,0.54,0.5319,0.5153,0.4716,0.4522,0.4522,0.4524,0.4525,0.4525,0.4479,0.4307,0.3958,0.4351,0.4522,0.4522,0.4522,0.4522,0.4522,0.4524,0.4524,0.4522,0.4524,0.4522,0.4517,0.452,0.4519,0.4517,0.4517,0.4517,0.4517,0.4517,0.4517,0.4517,0.452,0.4522,0.4522,0.4525,0.4477,0.4484,0.4489,0.3298,0.2622,0.4195,0.4473,0.4472,0.4477,0.3858,0.3579,0.4379,0.4196,0.4021,0.4435,0.4147,0.4032,0.4443,0.4509,0.4228,0.343,0.1345,-0.0,-0.0,-0.0,-0.0,-0.0,-0.0,-0.0,-0.0,0.2136,0.3383,0.3383,0.1122,-0.0,-0.0,-0.0,0.1177,0.3317,0.1065,-0.0,0.0,0.0,0.0,0.0,0.0,0.0,0.0,0.0,0.5847,0.5743,0.5735,0.5832,0.6182,0.6465,0.67,0.6977,0.6979,0.7192,0.7787,0.7833,0.7833,0.7833,0.8316,0.8189,0.7129,0.7555,0.7567,0.6763,0.6647,0.6524,0.6282,0.6244,0.5905,0.5119,0.5121,0.4861,0.4256,0.4406,0.4477,0.4479,0.449,0.4496,0.4496,0.4496,0.3697,0.2399,0.3856,0.4477,0.4477,0.4477,0.4477,0.4479,0.449,0.4489,0.4479,0.4492,0.448,0.4519,0.4473,0.4525,0.4517,0.4517,0.4517,0.4517,0.4517,0.4517,0.4519,0.4475,0.4477,0.448,0.4492,0.4496,0.4499,0.4509,0.3306,0.2622,0.4195,0.4489,0.4492,0.448,0.2175,0.1116,0.3984,0.3299,0.2792,0.4268,0.3244,0.2851,0.4338,0.4514,0.343,0.056,0.0112,-0.0,-0.0,-0.0,-0.0,-0.0,-0.0,-0.0,-0.0,0.0168,0.0224,0.0224,0.0056,-0.0,-0.0,-0.0,0.0056,0.0224,0.0056,-0.0,0.0,0.0,0.0,0.0,0.5118,0.5432,0.5564,0.5733,0.5888,0.5848,0.5841,0.584,0.5885,0.6149,0.6445,0.6697,0.6744,0.6889,0.7252,0.7318,0.7318,0.7318,0.7482,0.7311,0.6559,0.6689,0.6582,0.6075,0.5639,0.5407,0.5471,0.5042,0.4654,0.4411,0.4411,0.4293,0.405,0.4209,0.4287,0.4289,0.3432,0.3018,0.3074,0.4045,0.4219,0.3649,0.3193,0.3584,0.449,0.449,0.3919,0.3014,0.3016,0.3016,0.3128,0.415,0.3863,0.3178,0.4139,0.4475,0.4472,0.4519,0.4517,0.4517,0.4517,0.4522,0.4473,0.4477,0.3801,0.3014,0.3016,0.3758,0.4224,0.3263,0.1903,0.1452,0.3987,0.4506,0.4507,0.4502,0.2069,0.0335,0.14,0.1956,0.2065,0.1679,0.2802,0.3199,0.1794,0.1626,0.1177,0.0112,-0.0,-0.0,-0.0,-0.0,-0.0,-0.0,-0.0,-0.0,-0.0,-0.0,-0.0,-0.0,-0.0,-0.0,-0.0,-0.0,-0.0,-0.0,-0.0,-0.0,0.1623,0.0,0.0,0.0,0.0,0.4774,0.5069,0.558,0.5929,0.5743,0.5797,0.5828,0.5594,0.5762,0.6028,0.6418,0.6485,0.6546,0.6834,0.6877,0.6914,0.6969,0.6979,0.6771,0.6267,0.6181,0.5943,0.5328,0.4848,0.4588,0.4617,0.4155,0.3871,0.3871,0.3917,0.3944,0.3949,0.4058,0.4164,0.4275,0.2366,0.1452,0.1508,0.3599,0.4519,0.4404,0.2355,0.2071,0.3078,0.4099,0.3874,0.2854,0.1843,0.1451,0.1562,0.263,0.2628,0.2287,0.279,0.3633,0.4477,0.4525,0.452,0.4517,0.4522,0.4472,0.448,0.4489,0.3754,0.274,0.1731,0.2239,0.2751,0.1684,0.0728,0.0559,0.2581,0.3772,0.4514,0.4514,0.2073,-0.0,-0.0,0.0839,0.1118,0.0168,0.1682,0.2244,0.028,-0.0,-0.0,-0.0,-0.0,-0.0,-0.0,-0.0,-0.0,-0.0,-0.0,-0.0,-0.0,-0.0,-0.0,-0.0,-0.0,-0.0,-0.0,-0.0,-0.0,-0.0,-0.0,-0.0,0.0,0.0,0.0,0.0,0.0,0.0,0.4478,0.0,0.5925,0.5418,0.563,0.5782,0.54,0.5312,0.55,0.6075,0.6176,0.6283,0.6536,0.6587,0.6693,0.6974,0.6975,0.6771,0.6224,0.6181,0.5655,0.4476,0.4389,0.4134,0.3624,0.358,0.358,0.358,0.3714,0.3839,0.3898,0.3956,0.4163,0.4437,0.1431,-0.0,0.0112,0.3041,0.4358,0.4187,0.1291,-0.0,0.0223,0.3143,0.4342,0.4056,0.1121,-0.0,-0.0,-0.0,0.0895,0.1952,0.0558,0.2007,0.4421,0.4479,0.4525,0.4519,0.4475,0.4479,0.4426,0.4506,0.4457,0.3715,0.0785,-0.0,-0.0,-0.0,-0.0,-0.0,-0.0,0.23,0.4342,0.4342,0.202,-0.0,-0.0,-0.0,-0.0,-0.0,-0.0,-0.0,-0.0,-0.0,-0.0,-0.0,-0.0,-0.0,-0.0,-0.0,-0.0,-0.0,-0.0,-0.0,-0.0,-0.0,-0.0,-0.0,-0.0,-0.0,-0.0,-0.0,-0.0,-0.0,-0.0,-0.0,-0.0,0.0,0.0,0.0,0.0,0.0,0.3631,0.4686,0.5577,0.5828,0.6014,0.6029,0.578,0.5491,0.5366,0.5527,0.5698,0.5939,0.6273,0.6495,0.6617,0.67,0.6894,0.6638,0.5653,0.5567,0.505,0.3924,0.3838,0.3751,0.3624,0.358,0.358,0.358,0.3619,0.3644,0.3701,0.3713,0.3764,0.3817,0.1207,-0.0,0.0054,0.0887,0.1235,0.1179,0.0336,-0.0,0.0056,0.0896,0.1233,0.1177,0.0336,-0.0,-0.0,-0.0,0.028,0.0727,0.1339,0.2119,0.3013,0.413,0.452,0.4519,0.4475,0.3744,0.3073,0.4166,0.2921,0.1065,0.0224,-0.0,-0.0,-0.0,-0.0,-0.0,-0.0,0.0673,0.1233,0.1233,0.056,-0.0,-0.0,-0.0,-0.0,-0.0,-0.0,-0.0,-0.0,-0.0,-0.0,-0.0,-0.0,-0.0,-0.0,-0.0,-0.0,-0.0,-0.0,-0.0,-0.0,-0.0,-0.0,-0.0,-0.0,-0.0,-0.0,-0.0,-0.0,-0.0,-0.0,-0.0,0.0224,-0.0514,0.0,0.0,0.0,0.0,0.2724,0.3885,0.4998,0.5752,0.612,0.6328,0.6367,0.6056,0.5793,0.5793,0.5795,0.5826,0.5964,0.6116,0.6269,0.6431,0.6463,0.6091,0.5208,0.499,0.457,0.3667,0.358,0.358,0.358,0.358,0.358,0.358,0.3129,0.309,0.3604,0.3618,0.3114,0.2105,0.0659,-0.0,-0.0,-0.0,-0.0,-0.0,-0.0,-0.0,-0.0,-0.0,-0.0,-0.0,-0.0,-0.0,-0.0,-0.0,-0.0,0.028,0.2407,0.3134,0.3298,0.419,0.452,0.452,0.448,0.3411,0.2233,0.2522,0.1345,-0.0,-0.0,-0.0,-0.0,-0.0,-0.0,-0.0,-0.0,-0.0,-0.0,-0.0,-0.0,-0.0,-0.0,-0.0,-0.0,-0.0,-0.0,-0.0,-0.0,-0.0,-0.0,-0.0,-0.0,-0.0,-0.0,-0.0,-0.0,-0.0,-0.0,-0.0,-0.0,-0.0,-0.0,-0.0,-0.0,-0.0,-0.0,-0.0,-0.0,-0.0,-0.0,-0.0,0.0453,0.0068,0.0,-0.0668,-0.0072,0.0,0.168,0.2919,0.4207,0.5277,0.5957,0.6448,0.6832,0.6665,0.6465,0.6394,0.6158,0.5888,0.5756,0.5726,0.5812,0.6112,0.59,0.5505,0.4939,0.4612,0.417,0.3595,0.3571,0.358,0.358,0.358,0.3534,0.3399,0.2502,0.2374,0.3203,0.3181,0.2137,-0.0,-0.0,-0.0,-0.0,-0.0,-0.0,-0.0,-0.0,-0.0,-0.0,-0.0,-0.0,-0.0,-0.0,-0.0,-0.0,-0.0,-0.0,0.0392,0.3258,0.4333,0.4496,0.4482,0.4472,0.4524,0.4492,0.3528,0.2122,0.0448,-0.0,-0.0,-0.0,-0.0,-0.0,-0.0,-0.0,-0.0,-0.0,-0.0,-0.0,-0.0,-0.0,-0.0,-0.0,-0.0,-0.0,-0.0,-0.0,-0.0,-0.0,-0.0,-0.0,-0.0,-0.0,-0.0,-0.0,-0.0,-0.0,-0.0,-0.0,-0.0,-0.0,-0.0,-0.0,-0.0,-0.0,-0.0,-0.0,-0.0,-0.0,-0.0,-0.0,-0.0,0.1225,0.0539,-0.0027,-0.0152,-0.0519,0.0,0.0213,0.1565,0.3056,0.4509,0.5103,0.5585,0.6228,0.6394,0.6276,0.5844,0.6067,0.6206,0.5902,0.5757,0.5735,0.5795,0.5986,0.5704,0.4739,0.4585,0.4207,0.3425,0.3509,0.358,0.358,0.358,0.3173,0.2187,0.2875,0.2428,0.0719,0.0725,0.0455,-0.0,-0.0,-0.0,-0.0,-0.0,-0.0,-0.0,-0.0,-0.0,-0.0,-0.0,-0.0,-0.0,-0.0,-0.0,-0.0,-0.0,-0.0,0.028,0.2012,0.3471,0.4496,0.4482,0.4477,0.448,0.4504,0.4281,0.3485,0.0785,-0.0,-0.0,-0.0,-0.0,-0.0,-0.0,-0.0,-0.0,-0.0,-0.0,-0.0,-0.0,-0.0,-0.0,-0.0,-0.0,-0.0,-0.0,-0.0,-0.0,-0.0,-0.0,-0.0,-0.0,-0.0,-0.0,-0.0,-0.0,-0.0,-0.0,-0.0,-0.0,-0.0,-0.0,-0.0,-0.0,-0.0,-0.0,-0.0,-0.0,-0.0,-0.0,-0.0,-0.0,0.1858,0.1604,0.1223,0.0767,-0.0238,0.0,0.0,0.1245,0.2369,0.3648,0.4252,0.4814,0.5685,0.5757,0.5691,0.5605,0.5715,0.5758,0.5654,0.5554,0.5498,0.5498,0.5541,0.5344,0.4798,0.461,0.4268,0.3701,0.3619,0.358,0.358,0.3585,0.3044,0.1829,0.1793,0.1213,-0.0,-0.0,-0.0,-0.0,-0.0,-0.0,-0.0,-0.0,-0.0,-0.0,-0.0,-0.0,-0.0,-0.0,-0.0,-0.0,-0.0,-0.0,0.0168,0.1682,0.2244,0.2355,0.3074,0.3863,0.4496,0.4482,0.397,0.3523,0.4279,0.343,0.1963,0.0448,-0.0,-0.0,-0.0,-0.0,-0.0,-0.0,-0.0,-0.0,-0.0,-0.0,-0.0,-0.0,-0.0,-0.0,-0.0,-0.0,-0.0,-0.0,-0.0,-0.0,-0.0,-0.0,-0.0,-0.0,-0.0,-0.0,-0.0,-0.0,-0.0,-0.0,-0.0,-0.0,-0.0,-0.0,-0.0,-0.0,-0.0,-0.0,-0.0,-0.0,-0.0,-0.0,-0.0,-0.0,0.2428,0.2615,0.2502,0.1713,0.0376,-0.0543,0.0,0.0,0.0,0.2384,0.3049,0.3688,0.4576,0.4644,0.4664,0.5046,0.5006,0.5002,0.5227,0.5122,0.513,0.5308,0.511,0.4968,0.4959,0.4477,0.4118,0.3922,0.3625,0.3476,0.3532,0.3591,0.3067,0.1962,0.0671,-0.0,-0.0,-0.0,-0.0,-0.0,-0.0,-0.0,-0.0,-0.0,-0.0,-0.0,-0.0,-0.0,-0.0,-0.0,-0.0,-0.0,-0.0,-0.0,0.028,0.2751,0.4,0.4514,0.4494,0.4492,0.4499,0.449,0.3241,0.2011,0.3257,0.1907,-0.0,-0.0,-0.0,-0.0,-0.0,-0.0,-0.0,-0.0,-0.0,-0.0,-0.0,-0.0,-0.0,-0.0,-0.0,-0.0,-0.0,-0.0,-0.0,-0.0,-0.0,-0.0,-0.0,-0.0,-0.0,-0.0,-0.0,-0.0,-0.0,-0.0,-0.0,-0.0,-0.0,-0.0,-0.0,-0.0,-0.0,-0.0,-0.0,-0.0,-0.0,-0.0,-0.0,-0.0,-0.0,-0.0,0.2956,0.2853,0.262,0.2337,0.109,-0.0344,-0.1284,0.0,-0.1246,0.0244,0.0,0.1494,0.1946,0.0,0.0,0.3242,0.3665,0.4118,0.4612,0.4377,0.4445,0.5297,0.5321,0.5222,0.5164,0.4125,0.3503,0.3625,0.3228,0.31,0.3319,0.3517,0.3231,0.2357,0.0803,-0.0,-0.0,-0.0,-0.0,-0.0,-0.0,-0.0,-0.0,-0.0,-0.0,-0.0,-0.0,-0.0,-0.0,-0.0,-0.0,-0.0,-0.0,-0.0,0.0056,0.0392,0.2191,0.4528,0.4514,0.4511,0.4512,0.4511,0.258,0.028,0.0448,0.028,-0.0,-0.0,-0.0,-0.0,-0.0,-0.0,-0.0,-0.0,-0.0,-0.0,-0.0,-0.0,-0.0,-0.0,-0.0,-0.0,-0.0,-0.0,-0.0,-0.0,-0.0,-0.0,-0.0,-0.0,-0.0,-0.0,-0.0,-0.0,-0.0,-0.0,-0.0,-0.0,-0.0,-0.0,-0.0,-0.0,-0.0,-0.0,-0.0,-0.0,-0.0,-0.0,-0.0,-0.0,-0.0,-0.0,0.2694,0.2829,0.2918,0.2537,0.1571,0.0448,-0.0442,-0.1299,-0.1633,-0.0646,0.0,0.0,0.0,0.0,0.0,0.0,0.1932,0.2645,0.3125,0.3506,0.4041,0.4936,0.4879,0.4833,0.496,0.4337,0.4064,0.4327,0.3858,0.3657,0.391,0.3709,0.346,0.3086,0.2424,0.1431,-0.0,-0.0,-0.0,-0.0,-0.0,-0.0,-0.0,-0.0,-0.0,-0.0,-0.0,0.0801,0.2109,0.2448,0.2093,0.128,0.1269,0.0727,-0.0,-0.0,0.1344,0.3147,0.314,0.3764,0.4228,0.247,0.1009,-0.0,-0.0,-0.0,-0.0,-0.0,-0.0,-0.0,-0.0,-0.0,-0.0,-0.0,-0.0,-0.0,-0.0,-0.0,-0.0,-0.0,-0.0,-0.0,-0.0,-0.0,-0.0,-0.0,-0.0,-0.0,-0.0,-0.0,-0.0,-0.0,-0.0,-0.0,-0.0,-0.0,-0.0,-0.0,-0.0,-0.0,-0.0,-0.0,-0.0,-0.0,-0.0,-0.0,-0.0,-0.0,-0.0,-0.0,-0.0,-0.0,0.1944,0.2136,0.2281,0.204,0.1551,0.0895,0.0074,-0.1014,-0.1758,-0.1331,-0.1732,0.0,0.0,0.0,-0.1475,-0.0923,0.0,0.1164,0.2078,0.2677,0.3406,0.4382,0.4469,0.4479,0.458,0.4328,0.4317,0.4673,0.4141,0.3954,0.4312,0.3974,0.3814,0.3953,0.3718,0.2739,0.1024,0.0669,0.0492,0.0493,0.0493,0.0493,0.0493,0.0135,0.0179,0.0493,0.0853,0.1782,0.3162,0.3943,0.3676,0.2844,0.2831,0.2164,0.1121,0.028,0.0671,0.1623,0.162,0.2351,0.2921,0.0729,-0.0,-0.0,-0.0,-0.0,-0.0,-0.0,-0.0,-0.0,-0.0,-0.0,-0.0,-0.0,-0.0,-0.0,-0.0,-0.0,-0.0224,-0.1065,-0.1233,-0.0952,-0.0168,-0.0,-0.0,-0.0,-0.0,-0.0,-0.0,-0.0,-0.0,-0.0,-0.0,-0.0,-0.0,-0.0,-0.0,-0.0,-0.0,-0.0,-0.0,-0.0,-0.0,-0.0,-0.0,-0.0,-0.0,-0.0,-0.0,-0.0,-0.0,-0.0,0.0622,0.0427,0.0193,0.0567,0.08,0.0588,-0.0598,-0.1489,-0.2101,-0.215,-0.2633,-0.3097,-0.3216,-0.3106,-0.3025,-0.2995,-0.1784,0.0,0.0,0.1997,0.2318,0.3593,0.4239,0.4451,0.4057,0.3729,0.3721,0.4176,0.3673,0.3575,0.4177,0.4181,0.4379,0.4843,0.4045,0.3581,0.35,0.2314,0.174,0.1741,0.1741,0.1741,0.1696,0.0536,0.0625,0.1786,0.2969,0.2879,0.193,0.3149,0.3926,0.4442,0.4447,0.4384,0.3997,0.1062,0.0056,0.0056,0.0056,0.0112,0.0112,0.0056,-0.0,-0.0,-0.0,-0.0,-0.0,-0.0,-0.0,-0.0,-0.0,-0.0,-0.0,-0.0,-0.0,-0.0,-0.0,-0.0,-0.0841,-0.3772,-0.4342,-0.3427,-0.0503,-0.0,-0.0,-0.0,-0.0,-0.0,-0.0,-0.0,-0.0,-0.0,-0.0,-0.0,-0.0,-0.0,-0.0,-0.0,-0.0,-0.0,-0.0,-0.0,-0.0,-0.0,-0.0,-0.0,-0.0,-0.0,-0.0,-0.0,-0.0,-0.0,-0.1705,-0.1607,-0.1516,-0.0625,-0.0141,-0.0107,-0.0857,-0.1597,-0.2206,-0.2581,-0.2901,-0.3238,-0.3688,-0.3659,-0.3469,-0.3224,-0.2861,-0.197,0.0,0.0759,0.137,0.1807,0.2861,0.3477,0.3303,0.3421,0.3739,0.4292,0.4147,0.4297,0.4891,0.4777,0.4807,0.5143,0.4701,0.42,0.3588,0.3194,0.2984,0.3003,0.3003,0.3003,0.2958,0.2552,0.2191,0.1875,0.3097,0.3368,0.3049,0.356,0.389,0.4056,0.4215,0.4359,0.4152,0.1108,-0.0,-0.0,-0.0,-0.0,-0.0,-0.0,-0.0,-0.0,-0.0,-0.0,-0.0,-0.0,-0.0,-0.0,-0.0,-0.0,-0.0,-0.0,-0.0,-0.0,-0.0,-0.0,-0.0897,-0.3941,-0.4514,-0.4168,-0.3136,-0.2123,-0.1118,-0.0168,-0.0,-0.0,-0.0,-0.0,-0.0,-0.0,-0.0,-0.0,-0.0,-0.0,-0.0,-0.0,-0.0,-0.0,-0.0,-0.0,-0.0,-0.0,-0.0,-0.0,-0.0,-0.0,-0.0,-0.0,-0.0,-0.0,-0.3271,-0.3098,-0.2875,-0.1983,-0.1572,-0.1416,-0.1558,-0.1957,-0.2428,-0.2866,-0.3086,-0.3348,-0.3901,-0.3824,-0.3529,-0.3077,-0.3126,-0.2755,0.0,-0.0368,0.0423,0.0847,0.1697,0.0,0.0,0.2882,0.337,0.3952,0.4007,0.4316,0.5023,0.4883,0.4995,0.5444,0.5173,0.4716,0.4069,0.3957,0.3785,0.359,0.359,0.359,0.359,0.359,0.3179,0.2499,0.3269,0.3587,0.3631,0.3734,0.3799,0.381,0.4014,0.4245,0.4175,0.1703,0.0447,-0.0,-0.0,-0.0,-0.0,-0.0,-0.0,-0.0,-0.0,-0.0,-0.0,-0.0,-0.0,-0.0,-0.0,-0.0,-0.0,-0.0,-0.0,-0.0,-0.0,-0.0841,-0.2018,-0.3425,-0.4104,-0.4501,-0.4492,-0.3691,-0.2512,-0.1006,-0.0783,-0.0783,-0.0783,-0.0783,-0.0783,-0.0783,-0.0336,-0.0,-0.0,-0.0,-0.0,-0.0,-0.0,-0.0,-0.0,-0.0,-0.0,-0.0,-0.0,-0.0,-0.0,-0.0,-0.0,-0.0,-0.0,-0.0]},{"header":{"parameterUnit":"m.s-1","parameterCategory":1,"la1":30.6,"la2":29.2853,"lo1":-89.7004,"lo2":-87.6739,"dy":0.0162,"dx":0.0183,"nx":112,"ny":82,"refTime":"2024-06-08T12:00:00:Z","depth":0,"parameterNumber":3,"parameterNumberName":"V-component_of_WINDS"},"data":[0.0,0.0,0.0,0.0,0.0,0.0,0.0,0.0,0.0,0.0,0.0,0.0,0.0,0.0,0.0,0.0,0.0,0.0,0.0,0.0,0.0,0.0,0.0,0.0,0.0,0.0,0.0,0.0,0.0,0.0,0.0,0.0,0.0,0.0,0.0,0.0,0.0,0.0,0.0,0.0,0.0,0.0,0.0,0.0,0.0,0.0,0.0,0.0,0.0,0.0,0.0,0.0,0.0,0.0,0.0,0.0,0.0,0.0,0.0,0.0,0.0,0.0,0.0,0.0,0.0,0.0,0.0,0.0,0.0,0.0,0.0,0.0,0.0,0.0,0.0,0.0,0.0,0.0,0.0,0.0,0.0,0.0,0.0,0.0,0.0,0.0,0.0,0.0,0.0,0.0,-1.954,-2.1495,-2.3148,-2.413,-2.4197,-2.3439,-2.2125,-2.0198,0.0,0.0,0.0,0.0,0.0,0.0,0.0,0.0,0.0,0.0,0.0,0.0,0.0,0.0,0.0,0.0,0.0,0.0,0.0,0.0,0.0,0.0,0.0,0.0,0.0,0.0,0.0,0.0,0.0,0.0,0.0,0.0,0.0,0.0,0.0,0.0,0.0,0.0,0.0,0.0,0.0,0.0,0.0,0.0,0.0,0.0,0.0,0.0,0.0,0.0,0.0,0.0,0.0,0.0,0.0,0.0,0.0,0.0,0.0,0.0,0.0,0.0,0.0,0.0,0.0,0.0,0.0,0.0,0.0,0.0,0.0,0.0,0.0,0.0,0.0,0.0,0.0,0.0,0.0,0.0,0.0,0.0,0.0,0.0,0.0,0.0,0.0,0.0,0.0,0.0,0.0,0.0,0.0,0.0,0.0,0.0,0.0,0.0,0.0,0.0,0.0,0.0,0.0,0.0,-1.9117,-2.2264,-2.3504,-2.4252,-2.4655,-2.4045,-2.2722,-2.0563,0.0,0.0,0.0,0.0,0.0,0.0,0.0,0.0,0.0,0.0,0.0,0.0,0.0,0.0,0.0,0.0,0.0,0.0,0.0,0.0,0.0,0.0,0.0,0.0,0.0,0.0,0.0,0.0,0.0,0.0,0.0,0.0,0.0,0.0,0.0,0.0,0.0,0.0,0.0,0.0,0.0,0.0,0.0,0.0,0.0,0.0,0.0,0.0,0.0,0.0,0.0,0.0,0.0,0.0,0.0,0.0,0.0,0.0,0.0,0.0,0.0,0.0,0.0,0.0,0.0,0.0,0.0,0.0,0.0,0.0,0.0,0.0,0.0,0.0,0.0,0.0,0.0,0.0,0.0,0.0,0.0,0.0,0.0,0.0,0.0,0.0,0.0,0.0,0.0,0.0,0.0,0.0,0.0,0.0,0.0,0.0,0.0,0.0,0.0,0.0,0.0,0.0,0.0,-1.81,-1.9879,-2.1879,-2.3199,-2.4014,-2.4243,-2.3882,-2.297,-2.1415,-1.9592,0.0,0.0,0.0,0.0,0.0,0.0,0.0,0.0,0.0,0.0,0.0,0.0,0.0,0.0,0.0,0.0,0.0,0.0,0.0,0.0,0.0,0.0,0.0,0.0,0.0,0.0,0.0,0.0,0.0,0.0,0.0,0.0,0.0,0.0,0.0,0.0,0.0,0.0,0.0,0.0,0.0,0.0,0.0,0.0,0.0,0.0,0.0,0.0,0.0,0.0,0.0,0.0,0.0,0.0,0.0,0.0,0.0,0.0,0.0,0.0,0.0,0.0,0.0,0.0,0.0,0.0,0.0,0.0,0.0,0.0,0.0,0.0,0.0,0.0,0.0,0.0,0.0,0.0,0.0,0.0,0.0,0.0,0.0,0.0,0.0,0.0,0.0,0.0,0.0,0.0,0.0,0.0,0.0,0.0,0.0,0.0,0.0,0.0,0.0,0.0,0.0,0.0,-1.9926,-2.1041,-2.1627,-2.3103,-2.4021,-2.397,-2.3464,-2.2642,-2.1444,-1.9276,0.0,0.0,0.0,0.0,0.0,0.0,0.0,0.0,0.0,0.0,0.0,0.0,0.0,0.0,0.0,0.0,0.0,0.0,0.0,0.0,0.0,0.0,0.0,0.0,0.0,0.0,0.0,0.0,0.0,0.0,0.0,0.0,0.0,0.0,0.0,0.0,0.0,0.0,0.0,0.0,0.0,0.0,0.0,0.0,0.0,0.0,0.0,0.0,0.0,0.0,0.0,0.0,0.0,0.0,0.0,0.0,0.0,0.0,0.0,0.0,0.0,0.0,0.0,0.0,0.0,0.0,0.0,0.0,0.0,0.0,0.0,0.0,0.0,0.0,0.0,0.0,0.0,0.0,0.0,0.0,0.0,0.0,0.0,0.0,0.0,0.0,0.0,0.0,0.0,0.0,0.0,0.0,0.0,0.0,0.0,0.0,0.0,0.0,0.0,0.0,0.0,0.0,-2.0384,-2.2321,-2.2243,-2.3742,-2.4651,-2.4468,-2.3005,-2.1354,-1.9592,-1.7927,0.0,0.0,0.0,0.0,0.0,0.0,0.0,0.0,0.0,0.0,0.0,0.0,0.0,0.0,0.0,0.0,0.0,0.0,0.0,0.0,0.0,0.0,0.0,0.0,0.0,0.0,0.0,0.0,0.0,0.0,0.0,0.0,0.0,0.0,0.0,0.0,0.0,0.0,0.0,0.0,0.0,0.0,0.0,0.0,0.0,0.0,0.0,0.0,0.0,0.0,0.0,0.0,0.0,0.0,0.0,0.0,0.0,0.0,0.0,0.0,0.0,0.0,0.0,0.0,0.0,0.0,0.0,0.0,0.0,0.0,0.0,0.0,0.0,0.0,0.0,0.0,0.0,0.0,0.0,0.0,0.0,0.0,0.0,0.0,0.0,0.0,0.0,0.0,0.0,0.0,0.0,0.0,0.0,0.0,0.0,0.0,0.0,0.0,0.0,0.0,0.0,0.0,-1.9397,-2.0939,0.0,-2.2881,-2.3767,-2.3705,-2.3032,-2.1897,-2.0161,0.0,0.0,0.0,0.0,0.0,0.0,0.0,0.0,0.0,0.0,0.0,0.0,0.0,0.0,0.0,0.0,0.0,0.0,0.0,0.0,0.0,0.0,0.0,0.0,0.0,0.0,0.0,0.0,0.0,0.0,0.0,0.0,0.0,0.0,0.0,0.0,0.0,0.0,0.0,0.0,0.0,0.0,0.0,0.0,0.0,0.0,0.0,0.0,0.0,0.0,0.0,0.0,0.0,0.0,0.0,0.0,0.0,0.0,0.0,0.0,0.0,0.0,0.0,0.0,0.0,0.0,0.0,0.0,0.0,0.0,0.0,0.0,0.0,0.0,0.0,0.0,0.0,0.0,0.0,0.0,0.0,0.0,0.0,0.0,0.0,0.0,0.0,0.0,0.0,0.0,0.0,0.0,0.0,0.0,0.0,0.0,0.0,0.0,0.0,0.0,0.0,0.0,-1.7151,-1.919,-2.0637,-2.119,-2.2613,-2.3404,-2.3154,-2.2563,-2.1493,-1.9833,0.0,0.0,0.0,0.0,0.0,0.0,0.0,0.0,0.0,0.0,0.0,0.0,0.0,0.0,0.0,0.0,0.0,0.0,0.0,0.0,0.0,0.0,0.0,0.0,0.0,0.0,0.0,0.0,0.0,0.0,0.0,0.0,0.0,0.0,0.0,0.0,0.0,0.0,0.0,0.0,0.0,0.0,0.0,0.0,0.0,0.0,0.0,0.0,0.0,0.0,0.0,0.0,0.0,0.0,0.0,0.0,0.0,0.0,0.0,0.0,0.0,0.0,0.0,0.0,0.0,0.0,0.0,0.0,0.0,0.0,0.0,0.0,0.0,0.0,0.0,0.0,0.0,0.0,0.0,0.0,0.0,0.0,0.0,0.0,0.0,0.0,0.0,0.0,0.0,0.0,0.0,0.0,0.0,0.0,0.0,0.0,0.0,0.0,0.0,0.0,0.0,0.0,-1.7097,-2.0056,-2.1955,-2.1811,-2.3235,-2.3869,-2.3079,-2.1465,-1.9815,0.0,0.0,0.0,0.0,0.0,0.0,0.0,0.0,0.0,0.0,0.0,0.0,0.0,0.0,0.0,0.0,0.0,0.0,0.0,0.0,0.0,0.0,0.0,0.0,0.0,0.0,0.0,0.0,0.0,0.0,0.0,0.0,0.0,0.0,0.0,0.0,0.0,0.0,0.0,0.0,0.0,0.0,0.0,0.0,0.0,0.0,0.0,0.0,0.0,0.0,0.0,0.0,0.0,0.0,0.0,0.0,0.0,0.0,0.0,0.0,0.0,0.0,0.0,0.0,0.0,0.0,0.0,0.0,0.0,0.0,0.0,0.0,0.0,0.0,0.0,0.0,0.0,0.0,0.0,0.0,0.0,0.0,0.0,0.0,0.0,0.0,0.0,0.0,0.0,0.0,0.0,0.0,0.0,0.0,0.0,0.0,0.0,0.0,0.0,0.0,0.0,0.0,0.0,-1.6946,-1.9906,-2.1835,-2.1803,-2.3235,-2.3869,-2.3079,-2.1844,-2.0277,-1.8229,0.0,0.0,0.0,0.0,0.0,0.0,0.0,0.0,0.0,0.0,0.0,0.0,0.0,0.0,0.0,0.0,0.0,0.0,0.0,0.0,0.0,0.0,0.0,0.0,0.0,0.0,0.0,0.0,0.0,0.0,0.0,0.0,0.0,0.0,0.0,0.0,0.0,0.0,0.0,0.0,0.0,0.0,0.0,0.0,0.0,0.0,0.0,0.0,0.0,0.0,0.0,0.0,0.0,0.0,0.0,0.0,0.0,0.0,0.0,0.0,0.0,0.0,0.0,0.0,0.0,0.0,0.0,0.0,0.0,0.0,0.0,0.0,0.0,0.0,0.0,0.0,0.0,0.0,0.0,0.0,0.0,0.0,0.0,0.0,0.0,0.0,0.0,0.0,0.0,0.0,0.0,0.0,0.0,0.0,0.0,0.0,0.0,0.0,0.0,0.0,0.0,0.0,-1.7324,-2.0059,-2.1931,-2.2235,-2.3306,-2.3668,-2.2864,-2.1817,-2.0272,-1.8088,0.0,0.0,0.0,0.0,0.0,0.0,0.0,0.0,0.0,0.0,0.0,0.0,0.0,0.0,0.0,0.0,0.0,0.0,0.0,0.0,0.0,0.0,0.0,0.0,0.0,0.0,0.0,0.0,0.0,0.0,0.0,0.0,0.0,0.0,0.0,0.0,0.0,0.0,0.0,0.0,0.0,0.0,0.0,0.0,0.0,0.0,0.0,0.0,0.0,0.0,0.0,0.0,0.0,0.0,0.0,0.0,0.0,0.0,0.0,0.0,0.0,0.0,0.0,0.0,0.0,0.0,0.0,0.0,0.0,0.0,0.0,0.0,0.0,0.0,0.0,0.0,0.0,0.0,0.0,0.0,0.0,0.0,0.0,0.0,0.0,0.0,0.0,0.0,0.0,0.0,0.0,0.0,0.0,0.0,0.0,0.0,0.0,0.0,0.0,0.0,0.0,0.0,-1.7964,-2.0412,-2.2189,-2.2932,-2.3424,-2.3377,-2.258,-2.1497,-1.9972,-1.792,0.0,0.0,0.0,0.0,0.0,0.0,0.0,0.0,0.0,0.0,0.0,0.0,0.0,0.0,0.0,0.0,0.0,0.0,0.0,0.0,0.0,0.0,0.0,0.0,0.0,0.0,0.0,0.0,0.0,0.0,0.0,0.0,0.0,0.0,0.0,0.0,0.0,0.0,0.0,0.0,0.0,0.0,0.0,0.0,0.0,0.0,0.0,0.0,0.0,0.0,0.0,0.0,0.0,0.0,0.0,0.0,0.0,0.0,0.0,0.0,-1.3931,-1.3421,0.0,0.0,0.0,0.0,0.0,0.0,0.0,0.0,0.0,0.0,0.0,0.0,0.0,0.0,0.0,0.0,0.0,0.0,0.0,0.0,0.0,0.0,0.0,0.0,0.0,0.0,0.0,0.0,0.0,0.0,0.0,0.0,0.0,0.0,0.0,0.0,0.0,0.0,0.0,0.0,-1.7992,-2.0838,-2.2813,-2.2988,-2.3424,-2.3377,-2.258,-2.1326,-1.9948,-1.8425,-1.6103,0.0,0.0,0.0,0.0,0.0,0.0,0.0,0.0,0.0,0.0,0.0,0.0,0.0,0.0,0.0,0.0,0.0,0.0,0.0,0.0,0.0,0.0,0.0,0.0,0.0,0.0,0.0,0.0,0.0,0.0,0.0,0.0,0.0,0.0,0.0,0.0,0.0,0.0,0.0,0.0,0.0,0.0,0.0,0.0,0.0,0.0,0.0,0.0,0.0,0.0,0.0,0.0,0.0,0.0,0.0,0.0,0.0,0.0,0.0,-1.6647,-1.5734,0.0,0.0,0.0,0.0,0.0,0.0,0.0,0.0,0.0,0.0,0.0,0.0,0.0,0.0,0.0,0.0,0.0,0.0,0.0,0.0,0.0,0.0,0.0,0.0,0.0,0.0,0.0,0.0,0.0,0.0,0.0,0.0,0.0,0.0,0.0,0.0,0.0,0.0,0.0,0.0,-1.9045,-2.1455,-2.3162,-2.3547,-2.3651,-2.3457,-2.2883,-2.1715,-2.0402,-1.8925,-1.7001,0.0,0.0,0.0,0.0,0.0,0.0,0.0,0.0,0.0,0.0,0.0,0.0,0.0,0.0,0.0,0.0,0.0,0.0,0.0,0.0,0.0,0.0,0.0,0.0,0.0,0.0,0.0,0.0,0.0,0.0,0.0,0.0,0.0,0.0,0.0,0.0,0.0,0.0,0.0,0.0,0.0,0.0,0.0,0.0,0.0,0.0,0.0,0.0,0.0,0.0,0.0,0.0,0.0,-1.9131,-1.995,-2.0702,-2.0736,-2.11,-2.162,-1.9625,-1.8614,-1.835,-1.8205,0.0,0.0,0.0,0.0,0.0,0.0,0.0,0.0,0.0,0.0,0.0,0.0,0.0,0.0,0.0,0.0,0.0,0.0,0.0,0.0,0.0,0.0,-2.0132,-1.981,-2.0354,-2.0347,-1.821,0.0,0.0,0.0,0.0,0.0,0.0,0.0,0.0,0.0,0.0,0.0,-2.0237,-2.208,-2.3465,-2.4125,-2.3896,-2.3566,-2.3221,-2.2207,-2.1001,-1.9636,-1.8014,-1.6712,0.0,0.0,0.0,0.0,0.0,0.0,0.0,0.0,0.0,0.0,0.0,0.0,0.0,0.0,0.0,0.0,0.0,0.0,0.0,0.0,0.0,0.0,0.0,0.0,0.0,0.0,0.0,0.0,0.0,0.0,0.0,0.0,-1.1134,-1.1909,0.0,0.0,0.0,0.0,0.0,0.0,0.0,0.0,0.0,0.0,0.0,0.0,0.0,-1.7718,-1.941,-2.0104,-2.0568,-2.0813,-2.1692,-2.2179,-2.2305,-2.2412,-2.2524,-2.2639,-2.289,0.0,-2.0937,-2.0254,0.0,0.0,0.0,0.0,0.0,0.0,0.0,0.0,0.0,0.0,0.0,0.0,0.0,0.0,0.0,0.0,0.0,0.0,0.0,0.0,0.0,0.0,-2.3423,-2.1845,-2.2088,-2.24,-2.1363,-2.0088,-1.8687,-1.7174,-1.6957,-1.6475,0.0,0.0,0.0,0.0,0.0,0.0,-2.0457,-2.2575,-2.408,-2.419,-2.3896,-2.3566,-2.3221,-2.2207,-2.1418,-2.0959,-1.9044,-1.7892,-1.7737,-1.6062,0.0,0.0,0.0,0.0,0.0,0.0,0.0,0.0,0.0,0.0,0.0,0.0,0.0,0.0,0.0,0.0,0.0,0.0,0.0,0.0,0.0,0.0,0.0,0.0,0.0,0.0,0.0,0.0,0.0,-1.0757,-1.1272,-1.2146,-1.1928,-1.1788,0.0,0.0,0.0,0.0,0.0,0.0,0.0,0.0,0.0,-1.9636,-1.9703,-2.0324,-2.1597,-2.2383,-2.2824,-2.2882,-2.3716,-2.4058,-2.3942,-2.4018,-2.4006,-2.3943,-2.423,-2.3986,-2.3258,-2.2046,-2.1015,-2.0155,0.0,0.0,0.0,0.0,-2.0347,-2.0592,-2.1902,-2.1882,-2.1281,-2.1176,0.0,0.0,0.0,0.0,0.0,0.0,0.0,-2.1413,-2.2262,-2.3149,-2.3733,-2.3409,-2.3501,-2.3584,-2.3217,-2.2565,-2.1478,-1.9537,-1.9527,-1.9201,-1.7182,-1.7443,0.0,0.0,0.0,-2.1475,-2.1867,-2.3353,-2.4339,-2.4209,-2.4074,-2.3846,-2.3513,-2.3057,-2.24,-2.1472,-2.0573,-1.9746,-1.9035,-1.7779,-1.6644,0.0,0.0,0.0,0.0,0.0,0.0,0.0,0.0,0.0,0.0,0.0,0.0,0.0,0.0,0.0,0.0,0.0,0.0,0.0,0.0,0.0,0.0,0.0,0.0,0.0,0.0,0.0,0.0,-1.1432,-1.1838,-1.2724,-1.3012,-1.313,0.0,0.0,0.0,0.0,0.0,0.0,-1.8581,-1.8667,-1.9744,-2.2091,-2.2168,-2.2581,-2.3428,-2.4072,-2.438,-2.4341,-2.4946,-2.513,-2.4959,-2.4959,-2.4891,-2.4804,-2.4746,-2.4731,-2.4618,-2.331,-2.2372,-2.1717,-2.1053,-2.0822,-2.0963,-2.1788,-2.2122,-2.2379,-2.3889,-2.4274,-2.4033,-2.3581,-2.3293,-2.2899,-2.1648,0.0,0.0,0.0,0.0,-2.2323,-2.3693,-2.3865,-2.3805,-2.4314,-2.4303,-2.4199,-2.4199,-2.4122,-2.3538,-2.1698,-2.1813,-2.1622,-1.9722,-1.9814,0.0,-2.0091,-2.1373,-2.2517,-2.3003,-2.3909,-2.4444,-2.4284,-2.4228,-2.4065,-2.3723,-2.3692,-2.3227,-2.207,-2.1827,-2.1309,-2.0362,-1.9438,-1.8458,-1.7464,0.0,0.0,0.0,0.0,0.0,0.0,0.0,0.0,0.0,0.0,0.0,0.0,0.0,0.0,0.0,0.0,0.0,0.0,0.0,0.0,0.0,0.0,0.0,0.0,0.0,0.0,0.0,0.0,0.0,-1.4454,-1.5184,0.0,0.0,0.0,0.0,-1.7439,-1.8318,-1.954,-2.1225,-2.1312,-2.2129,-2.3908,-2.3975,-2.436,-2.5168,-2.5216,-2.5136,-2.4965,-2.5003,-2.4946,-2.4809,-2.4809,-2.4804,-2.479,-2.4601,-2.4512,-2.4454,-2.3742,-2.3417,-2.3304,-2.2443,-2.2224,-2.249,-2.3359,-2.381,-2.4091,-2.4947,-2.4736,-2.4225,-2.4947,-2.4659,-2.4023,-2.3927,-2.3331,0.0,0.0,-2.3957,-2.4081,-2.4608,-2.4747,-2.4638,-2.4294,-2.4218,-2.4199,-2.4199,-2.3946,-2.3597,-2.3162,-2.3115,-2.2864,-2.1971,0.0,-2.1825,-2.1699,-2.2576,-2.3253,-2.3284,-2.4001,-2.4495,-2.4495,-2.4312,-2.4065,-2.3723,-2.3692,-2.3526,-2.3136,-2.2454,-2.2052,-2.1994,-2.0779,-1.9732,-1.8902,-1.6739,0.0,0.0,0.0,0.0,0.0,0.0,0.0,0.0,0.0,0.0,0.0,0.0,0.0,0.0,0.0,0.0,0.0,0.0,0.0,0.0,0.0,0.0,0.0,0.0,0.0,0.0,0.0,0.0,-1.666,-1.7126,0.0,-1.8039,-1.8855,-1.9573,-2.0104,-2.0946,-2.1955,-2.3109,-2.3177,-2.3697,-2.4841,-2.487,-2.5014,-2.5293,-2.5163,-2.5067,-2.5001,-2.4907,-2.4785,-2.4617,-2.4617,-2.4545,-2.4401,-2.433,-2.4303,-2.4293,-2.406,-2.4024,-2.4123,-2.395,-2.3921,-2.4026,-2.4329,-2.454,-2.4728,-2.5004,-2.5002,-2.4918,-2.5207,-2.5111,-2.487,-2.487,-2.4659,-2.4476,-2.4784,-2.4782,-2.4725,-2.4892,-2.4776,-2.4568,-2.4436,-2.4284,-2.4199,-2.4199,-2.4103,-2.4002,-2.387,-2.3675,-2.3277,-2.2464,-2.2932,-2.3216,-2.2666,-2.343,-2.4026,-2.3896,-2.4242,-2.4453,-2.4312,-2.4238,-2.4142,-2.4025,-2.4016,-2.3876,-2.3535,-2.3284,-2.2588,-2.1391,-2.1066,-2.0318,-1.902,-1.7833,-1.6445,0.0,0.0,0.0,0.0,0.0,0.0,0.0,0.0,0.0,0.0,0.0,0.0,0.0,0.0,0.0,0.0,0.0,0.0,0.0,0.0,0.0,0.0,0.0,0.0,0.0,-1.5007,-1.6411,-1.8015,-1.892,-1.9611,-2.0086,-2.0963,-2.1713,-2.224,-2.2871,-2.361,-2.4457,-2.4437,-2.4657,-2.5174,-2.5203,-2.5182,-2.5126,-2.5044,-2.494,-2.4831,-2.4741,-2.4591,-2.441,-2.441,-2.4339,-2.4199,-2.4199,-2.4199,-2.4217,-2.4483,-2.469,-2.4781,-2.4638,-2.4639,-2.47,-2.47,-2.479,-2.4971,-2.5243,-2.5313,-2.5379,-2.5874,-2.5844,-2.5662,-2.595,-2.5991,-2.5877,-2.5612,-2.5444,-2.5259,-2.4921,-2.4672,-2.4478,-2.4418,-2.4303,-2.4199,-2.4199,-2.4113,-2.4025,-2.4025,-2.3937,-2.3703,-2.3166,-2.3698,-2.4015,-2.3492,-2.4032,-2.4444,-2.4321,-2.4418,-2.4453,-2.4321,-2.4247,-2.4199,-2.4199,-2.4199,-2.4103,-2.3887,-2.3613,-2.2906,-2.1662,-2.123,-2.0553,-1.9519,-1.8316,-1.7041,-1.5683,0.0,0.0,0.0,0.0,0.0,0.0,0.0,0.0,0.0,0.0,0.0,0.0,0.0,0.0,0.0,0.0,0.0,0.0,0.0,0.0,0.0,0.0,0.0,-1.5025,-1.7,-1.8469,-1.8544,-2.0611,-2.1749,-2.0988,-2.1807,-2.2779,-2.3764,-2.4013,-2.4476,-2.5235,-2.5099,-2.4989,-2.4989,-2.4989,-2.4933,-2.4804,-2.492,-2.4818,-2.4495,-2.4495,-2.4393,-2.4199,-2.4199,-2.4199,-2.4199,-2.4226,-2.4236,-2.43,-2.5118,-2.5449,-2.5366,-2.4575,-2.4386,-2.4579,-2.4579,-2.4682,-2.4988,-2.5759,-2.5745,-2.5589,-2.7036,-2.6923,-2.6386,-2.7227,-2.7356,-2.7043,-2.6268,-2.5998,-2.5778,-2.4787,-2.4513,-2.4436,-2.4247,-2.4199,-2.4199,-2.4199,-2.3946,-2.3726,-2.3726,-2.3987,-2.4209,-2.4199,-2.419,-2.4199,-2.4199,-2.4366,0.0,-2.4495,-2.4495,-2.4495,-2.4495,-2.4321,-2.4199,-2.4199,-2.4199,-2.4199,-2.4199,-2.3446,-2.2997,-2.2988,-2.141,-2.0521,-2.0494,-1.8183,-1.6578,-1.5766,0.0,0.0,0.0,0.0,0.0,0.0,0.0,0.0,0.0,0.0,0.0,0.0,0.0,0.0,0.0,0.0,0.0,0.0,0.0,0.0,0.0,-1.6214,-1.7681,-1.7662,-1.8709,-2.0098,-2.1764,-2.2536,-2.3076,-2.3442,-2.3853,-2.4233,-2.4492,-2.4669,-2.4812,-2.4936,-2.4892,-2.4846,-2.4846,-2.4846,-2.4851,-2.4804,-2.4697,-2.4598,-2.4495,-2.4339,-2.4256,-2.4199,-2.4199,-2.4199,-2.4226,-2.4814,-2.5081,-2.5136,-2.5933,-2.6273,-2.6254,-2.6034,-2.5974,-2.6016,-2.6016,-2.6153,-2.6372,-2.674,-2.6792,-2.6735,-2.7153,-2.7113,-2.6971,-2.7214,-2.7242,-2.7156,-2.693,-2.6343,-2.5721,-2.5445,-2.4819,-2.4275,-2.4209,-2.4199,-2.4199,-2.4199,-2.4238,-2.4275,-2.4275,-2.4467,-2.4467,-2.393,-2.4045,-2.4199,-2.4199,-2.4247,-2.4284,-2.4284,-2.4284,-2.4284,-2.4284,-2.4228,-2.4199,-2.4199,-2.4199,-2.4199,-2.4199,-2.3446,-2.2914,-2.2724,-2.188,-2.1152,-2.0503,-1.928,-1.8243,0.0,0.0,0.0,0.0,0.0,0.0,0.0,0.0,0.0,0.0,0.0,0.0,0.0,0.0,0.0,0.0,0.0,0.0,0.0,0.0,0.0,0.0,-1.8195,-1.9735,-2.0805,-2.1288,-2.199,-2.3242,-2.3714,-2.4054,-2.4346,-2.4552,-2.467,-2.467,-2.4823,-2.4877,-2.4795,-2.4716,-2.467,-2.467,-2.467,-2.4623,-2.4552,-2.4528,-2.447,-2.4375,-2.4266,-2.4373,-2.4694,-2.4694,-2.4887,-2.5227,-2.5695,-2.5897,-2.5961,-2.6768,-2.7099,-2.7071,0.0,0.0,0.0,0.0,-2.686,-2.7088,-2.7573,-2.7557,-2.7434,-2.8053,-2.7943,-2.7659,-2.8005,-2.8045,-2.7876,-2.755,-2.7027,-2.6494,-2.6151,-2.5708,-2.5319,-2.5319,-2.5412,-2.5399,-2.5028,-2.5056,-2.5026,-2.4689,-2.4716,0.0,-2.4237,-2.4319,-2.4418,-2.433,-2.4393,-2.4418,-2.433,-2.4339,-2.4284,-2.4218,-2.4199,-2.4199,-2.4199,-2.4199,0.0,0.0,0.0,-2.2786,-2.2281,-2.2096,0.0,0.0,0.0,0.0,0.0,-1.9512,0.0,0.0,-1.8589,-1.8802,0.0,0.0,0.0,0.0,0.0,0.0,0.0,0.0,0.0,0.0,0.0,0.0,0.0,0.0,0.0,0.0,-2.0042,-2.1533,-2.3783,-2.4023,-2.389,-2.3699,-2.4341,-2.4654,-2.4275,-2.4393,-2.4495,-2.447,-2.4654,-2.476,-2.4731,-2.4568,0.0,0.0,0.0,-2.4467,-2.4465,-2.456,-2.456,-2.4465,-2.4465,-2.4832,-2.555,-2.555,-2.5915,-2.6612,-2.6704,-2.6741,-2.6805,-2.7594,-2.7934,-2.786,-2.7154,-2.6878,-2.6891,-2.7101,-2.7294,-2.7568,-2.8362,0.0,0.0,-2.9249,-2.9008,-2.8355,-2.9119,-2.9191,-2.8861,-2.8171,-2.7917,-2.7678,-2.6981,-2.6877,-2.6952,-2.6952,-2.7135,-2.7091,-2.632,-2.6084,-2.5815,-2.5106,-2.4903,-2.4851,-2.4823,-2.4809,-2.4746,-2.4568,-2.4685,-2.4731,-2.4552,-2.4536,-2.447,-2.4266,-2.4256,0.0,-2.4247,-2.4256,-2.4275,-2.4275,-2.3594,-2.2847,-2.2018,-2.2379,-2.2393,-2.1998,-2.2108,-2.2099,-2.1981,-2.2718,-2.2796,-2.226,-2.0142,-1.9992,0.0,0.0,0.0,0.0,0.0,0.0,0.0,0.0,0.0,0.0,0.0,0.0,0.0,0.0,0.0,-1.9867,-2.1965,-2.36,-2.4043,-2.463,-2.4933,-2.4726,-2.4755,-2.47,-2.447,-2.4478,-2.4436,-2.4275,-2.4444,-2.4495,-2.433,-2.4275,-2.456,-2.5205,-2.4597,-2.4872,-2.6126,-2.5535,-2.5535,-2.6144,-2.6144,0.0,-2.6374,-2.6374,-2.6456,-2.6649,-2.7291,-2.7567,-2.7631,-2.8448,-2.8778,-2.8737,-2.859,-2.8535,-2.8571,-2.8827,-2.8939,-2.9026,-2.9351,-2.9278,-2.9073,-2.9371,-2.9168,-2.8864,-2.903,-2.903,0.0,-2.9073,-2.8569,-2.8071,-2.8116,-2.7683,-2.7217,-2.7217,-2.7258,-2.7242,-2.7081,-2.6617,-2.6199,-2.6037,-2.5573,-2.515,-2.4996,-2.4873,-2.479,-2.4746,-2.4775,-2.479,-2.4746,-2.4746,-2.467,-2.4461,-2.4584,-2.4617,-2.4453,-2.4601,-2.4685,-2.4685,-2.4535,-2.4065,-2.3206,-2.3917,-2.3955,-2.3187,-2.3201,-2.3201,-2.3168,-2.3338,-2.3709,-2.4237,-2.3093,-2.282,0.0,0.0,0.0,0.0,0.0,0.0,0.0,0.0,0.0,0.0,0.0,-1.708,0.0,0.0,-2.0895,-2.2059,-2.3353,-2.4322,-2.4649,-2.5053,-2.5234,-2.5013,-2.4877,-2.476,-2.4654,-2.4461,-2.4348,-2.4348,-2.4348,-2.4303,-2.4218,-2.4575,-2.497,-2.5394,-2.5392,-2.5796,-2.6594,-2.6199,-2.6199,-2.6603,-2.6603,-2.6814,-2.72,-2.7292,-2.7511,-2.7833,-2.8372,-2.8516,-2.8438,-2.8819,-2.8994,-2.8994,-2.8994,-2.8994,-2.9044,-2.9406,-2.9542,-2.957,-2.9789,-2.9731,-2.9523,-2.9434,-2.931,-2.9191,-2.9191,-2.927,-2.9386,-2.9523,-2.9242,-2.8932,-2.9074,-2.8878,-2.8658,-2.8658,-2.8751,-2.8725,-2.8286,-2.794,-2.7577,-2.7184,-2.6472,-2.6062,-2.6391,-2.5669,-2.5022,-2.4926,-2.4987,-2.5012,-2.4917,-2.4904,-2.4846,-2.467,-2.4746,-2.476,-2.4654,-2.4746,-2.4804,-2.4804,-2.486,-2.4674,-2.4176,-2.4721,-2.4762,-2.4153,-2.4219,-2.4219,-2.4143,-2.4143,-2.437,-2.4795,-2.4424,-2.4293,0.0,0.0,0.0,0.0,0.0,0.0,0.0,0.0,-1.5404,-1.7302,-1.8265,-1.9224,-2.0741,-2.1728,-2.2717,-2.3991,-2.4345,-2.4658,-2.5216,-2.5293,-2.5244,-2.5088,-2.493,-2.4837,-2.4804,-2.4461,-2.4321,-2.4436,-2.4284,-2.4263,-2.4419,-2.5063,-2.555,-2.5871,-2.6337,-2.6759,-2.7071,-2.6915,-2.6915,-2.708,-2.708,-2.7423,-2.8126,-2.829,-2.8652,-2.916,-2.9321,-2.9255,-2.8994,-2.8994,-2.903,-2.9076,-2.9076,-2.9102,-2.9172,-2.9533,-2.9652,-2.9678,-2.9924,-2.9877,-2.9678,-2.9561,-2.9503,-2.9454,-2.9454,-2.957,-2.9713,-2.9755,-2.9755,-2.9772,-2.9815,-2.9958,-3.0075,-3.0075,-3.0244,-3.0217,-2.9496,-2.9217,-2.8909,-2.8255,-2.7438,-2.7082,-2.7775,-2.6746,-2.5686,-2.5356,-2.5299,-2.5244,-2.5088,-2.5055,-2.4996,-2.4846,-2.4869,-2.4892,-2.4892,-2.4892,-2.4892,-2.4892,-2.4993,-2.5018,-2.4906,-2.5158,-2.5171,-2.4906,-2.5005,-2.5005,-2.4892,-2.4892,-2.4892,-2.4906,-2.5005,-2.5044,-1.373,-1.44,-1.528,-1.6003,-1.5706,-1.6027,0.0,0.0,-1.8256,-2.0723,-2.135,-2.1757,-2.2725,-2.3564,-2.4126,-2.4194,-2.4853,-2.5341,-2.5303,-2.5293,-2.5293,-2.5264,-2.5098,-2.4933,-2.4809,-2.4601,-2.4401,-2.4247,-2.4209,-2.4502,-2.5237,-2.5357,-2.6055,-2.7484,-2.6934,-2.7301,-2.8709,-2.8016,-2.8016,-2.8718,-2.8718,-2.8903,-2.9232,-2.9243,-2.9381,-2.9607,-2.9464,-2.9255,-2.8994,-2.8994,-2.9147,-2.9351,-2.9351,-2.9455,-2.9616,-2.9484,-2.9434,-2.9484,-2.9877,-2.9877,-2.9731,-2.9877,-2.9813,-2.967,-2.967,-2.9678,-2.9738,-2.9924,-2.9969,-3.0023,-3.0264,-3.0343,-3.0355,-3.0355,-3.0376,-3.0369,-3.0285,-2.965,-2.9063,-2.8977,-2.8304,-2.7784,-2.788,-2.7736,-2.7342,-2.6542,-2.5783,-2.5293,-2.5264,-2.5264,-2.5183,-2.4998,-2.5139,-2.5243,-2.5243,-2.5243,-2.5243,-2.5243,-2.5253,-2.5264,-2.5243,-2.5283,-2.5283,-2.5243,-2.5253,-2.5264,-2.5243,-2.5243,-2.5243,-2.5243,-2.5264,-2.5163,-1.6105,-1.6561,-1.6949,0.0,-1.7545,-1.8042,-1.9441,-1.9633,-1.9951,-2.148,-2.2236,-2.2837,-2.3641,-2.4088,-2.4458,0.0,-2.5195,-2.5409,-2.5303,-2.5293,-2.5293,-2.5293,-2.512,-2.4986,-2.492,-2.4566,-2.4348,-2.4375,-2.4708,-2.5063,-2.5384,-2.6303,-2.7099,-2.7769,-2.7934,-2.8328,-2.8984,-2.8677,-2.8758,-2.9225,-2.9225,-2.9344,-2.957,-2.9696,-2.9721,-2.9696,-2.9616,-2.9435,-2.9246,-2.9355,-2.9475,-2.957,-2.957,-2.9634,-2.9704,-2.9738,-2.9755,-2.9763,-2.993,-2.9945,-2.9877,-2.9829,-2.9845,-2.9867,-2.9867,-2.9973,-3.0118,-3.0205,-3.0232,-3.0254,-3.0367,-3.0398,-3.0398,-3.0398,-3.0398,-3.0398,-3.0398,-3.0112,-2.9862,-2.9862,-2.9179,-2.8756,-2.9275,-2.8554,-2.7938,-2.8034,-2.6909,-2.587,-2.537,-2.5293,-2.5264,-2.5183,-2.5244,-2.5293,-2.5293,-2.5293,-2.5293,-2.5293,-2.5293,-2.5293,-2.5293,-2.5293,-2.5293,-2.5293,-2.5293,-2.5293,-2.5293,-2.5293,-2.5293,-2.5293,-2.5293,-2.5254,-1.7389,-1.7878,0.0,-1.832,-1.8994,-1.9639,-1.9648,-2.0146,-2.0833,-2.1625,-2.2301,-2.3052,-2.4038,-2.4267,-2.4541,-2.5274,-2.5399,-2.538,-2.5303,-2.5293,-2.5293,-2.5293,-2.5086,-2.4937,-2.4937,-2.454,-2.4312,-2.4401,-2.5031,-2.5504,-2.5713,-2.6833,-2.7668,-2.8117,-2.8484,-2.8787,-2.8994,-2.9067,-2.9212,-2.9403,-2.9454,-2.9589,-2.9789,-3.0018,-2.9994,-2.978,-2.978,-2.9661,-2.9494,-2.9634,-2.9738,-2.978,-2.978,-2.9832,-2.9912,-3.0056,-3.0023,-2.9924,-2.9984,-2.9999,-2.9984,-2.9912,-2.9988,-3.0113,-3.0113,-3.0254,-3.0398,-3.0398,-3.0398,-3.0398,-3.0398,-3.0398,-3.0398,-3.0398,-3.0398,-3.0398,-3.0398,-3.0398,-3.0398,-3.0398,-2.989,-2.966,-3.0294,-2.939,-2.8707,-2.9044,-2.788,-2.664,-2.5774,-2.5447,-2.5293,-2.5293,-2.5293,-2.5293,-2.5293,-2.5293,-2.5293,-2.5293,-2.5293,-2.5293,-2.5293,-2.5293,-2.5293,-2.5293,-2.5293,-2.5293,-2.5293,-2.5293,-2.5293,-2.5293,-2.5293,-2.5293,-1.676,0.0,-1.9163,-1.9158,-1.9824,-2.0478,-2.0547,-2.0576,-2.0829,-2.1629,-2.1824,-2.2334,-2.3991,-2.4293,-2.4543,-2.5274,-2.5399,-2.538,-2.5303,-2.5293,-2.5293,-2.5293,-2.5009,-2.4804,0.0,-2.4607,-2.4401,-2.4228,-2.4953,-2.5731,-2.6521,-2.6612,-2.7356,-2.8902,-2.8227,-2.8209,-2.8984,-2.9255,-2.9383,-2.9403,-2.9607,-2.9806,-2.9999,-3.0276,-3.0232,-2.9999,-2.9999,-2.9877,-2.9696,-2.9696,-2.9813,-2.9999,-2.9999,-3.015,-3.0376,-3.0398,-3.009,-2.9738,-2.993,-2.9999,-3.0037,-3.0299,-3.0376,-3.0388,-3.0388,-3.0388,-3.0398,-3.0398,-3.0398,-3.0398,-3.0398,-3.0398,-3.0398,-3.0398,-3.0398,-3.0398,-3.0398,-3.0398,-3.0398,-3.0398,-3.0379,-3.0369,-3.0398,-3.0359,-3.0054,-2.9217,-2.839,-2.7544,-2.6669,-2.5822,-2.5293,-2.5293,-2.5293,-2.5293,-2.5293,-2.5293,-2.5293,-2.5293,-2.5293,-2.5293,-2.5293,-2.5293,-2.5293,-2.5293,-2.5293,-2.5293,-2.5293,-2.5293,-2.5293,-2.5293,-2.5293,-2.5293,-1.864,0.0,-1.9267,-1.9851,-2.0248,-2.0508,-2.0527,-2.1016,-2.1532,-2.1752,-2.1763,-2.2074,-2.3174,-2.3331,-2.3582,-2.4399,-2.4995,-2.5322,-2.5293,-2.5293,-2.5293,-2.5293,-2.4997,0.0,0.0,0.0,0.0,-2.4218,-2.5438,-2.6309,-2.6594,-2.7622,-2.8434,-2.8966,-2.875,-2.8813,-2.9267,-2.9342,-2.9523,-2.9796,-3.0052,-3.0192,-3.0276,-3.0355,-3.0244,-3.0013,-3.0196,-3.0132,-2.9908,-3.009,-3.0205,-3.0276,-3.0276,-3.0311,-3.0398,-3.0398,-3.0299,-3.0178,-3.0241,-3.0276,-3.0276,-3.0367,-3.0398,-3.0398,-3.0398,-3.0398,-3.0398,-3.0398,-3.0398,-3.0398,-3.0398,-3.0398,-3.0398,-3.0398,-3.0398,-3.0398,-3.0398,-3.0398,-3.0398,-3.0398,-3.0398,-3.0398,-3.0398,-3.0398,-3.0102,-2.9227,-2.7919,-2.6717,-2.5851,-2.5476,-2.5293,-2.5293,-2.5293,-2.5293,-2.5293,-2.5293,-2.5293,-2.5293,-2.5293,-2.5293,-2.5293,-2.5293,-2.5293,-2.5293,-2.5293,-2.5293,-2.5293,-2.5293,-2.5293,-2.5293,-2.5293,-2.5293,-1.9389,-1.9458,-1.9271,-2.0148,-2.0414,-2.047,-2.0487,-2.0986,-2.1406,-2.1321,-2.1276,-2.1468,-2.226,-2.2359,-2.2716,-2.3908,-2.4524,-2.4976,-2.5255,-2.5293,-2.5293,-2.5293,-2.5049,-2.4873,0.0,0.0,0.0,-2.4209,-2.5419,-2.63,-2.6585,-2.7594,-2.8397,-2.8966,-2.8785,-2.891,-2.9412,-2.9542,-2.9799,-3.0159,-3.0321,-3.0398,-3.0398,-3.0398,-3.0311,-3.015,-3.0333,-3.0301,-3.0159,-3.0333,-3.0398,-3.0398,-3.0398,-3.0398,-3.0398,-3.0398,-3.0398,-3.0398,-3.0398,-3.0398,-3.0398,-3.0398,-3.0398,-3.0398,-3.0398,-3.0398,-3.0398,-3.0398,-3.0398,-3.0398,-3.0398,-3.0398,-3.0398,-3.0398,-3.0398,-3.0398,-3.0398,-3.0398,-3.0398,-3.0398,-3.0398,-3.0398,-3.0398,-3.0398,-3.0102,-2.9227,-2.8179,-2.7073,-2.5918,-2.5765,-2.5649,-2.5322,-2.5293,-2.5293,-2.5293,-2.5293,-2.5293,-2.5293,-2.5293,-2.5293,-2.5293,-2.5293,-2.5293,-2.5293,-2.5293,-2.5293,-2.5293,-2.5293,-2.5293,-2.5293,-2.5293,-2.5293,-1.9049,-1.9069,-1.9271,-2.009,-2.035,-2.0405,-2.0477,-2.0508,-2.0494,-2.036,-2.0299,-2.0483,0.0,0.0,-2.1985,-2.3696,-2.4043,-2.4389,-2.5187,-2.5293,-2.5303,0.0,0.0,0.0,0.0,0.0,0.0,-2.4312,-2.5047,-2.5847,-2.6654,-2.6737,-2.7463,-2.8984,-2.8493,-2.8585,-2.9425,-2.9813,-3.015,-3.0398,-3.0398,-3.0398,-3.0398,-3.0398,-3.0398,-3.0398,-3.0398,-3.0398,-3.0398,-3.0398,-3.0398,-3.0398,-3.0398,-3.0398,-3.0398,-3.0398,-3.0398,-3.0398,-3.0398,-3.0398,-3.0398,-3.0398,-3.0398,-3.0398,-3.0398,-3.0398,-3.0398,-3.0398,-3.0398,-3.0398,-3.0398,-3.0398,-3.0398,-3.0398,-3.0398,-3.0398,-3.0398,-3.0398,-3.0398,-3.0398,-3.0398,-3.0398,-3.0398,-3.0398,-3.0121,-2.9284,-2.9169,-2.8534,-2.6822,-2.6601,-2.6274,-2.5389,-2.5293,-2.5293,-2.5293,-2.5293,-2.5293,-2.5293,-2.5293,-2.5293,-2.5293,-2.5293,-2.5293,-2.5293,-2.5293,-2.5293,-2.5293,-2.5293,-2.5293,-2.5293,-2.5293,-2.5293,-1.9792,-1.9975,-2.0023,-2.0244,-2.0312,-2.0335,-2.0356,-1.9944,-1.9551,-1.9513,-1.8945,-1.8519,0.0,0.0,0.0,-2.1985,-2.3254,0.0,-2.5187,-2.5293,0.0,-2.5099,0.0,-2.4962,-2.486,-2.4823,0.0,-2.5489,-2.6279,-2.7122,-2.7974,-2.8567,-2.9101,-2.9504,-2.9372,-2.946,-2.9836,-3.0155,-3.0333,-3.0398,-3.0398,-3.0398,-3.0398,-3.0398,-3.0398,-3.0398,-3.0398,-3.0398,-3.0398,-3.0398,-3.0398,-3.0398,-3.0398,-3.0398,-3.0398,-3.0398,-3.0398,-3.0398,-3.0398,-3.0398,-3.0398,-3.0398,-3.0398,-3.0398,-3.0398,-3.0398,-3.0398,-3.0398,-3.0398,-3.0398,-3.0398,-3.0398,-3.0398,-3.0398,-3.0398,-3.0398,-3.0398,-3.0398,-3.0398,-3.0398,-3.0398,-3.0398,-3.0398,-3.0398,-3.0311,-3.0102,-3.0073,-2.9236,-2.6899,-2.6601,-2.6274,-2.5389,-2.5293,-2.5293,-2.5293,-2.5293,-2.5293,-2.5293,-2.5293,-2.5293,-2.5293,-2.5293,-2.5293,-2.5293,-2.5293,-2.5293,-2.5293,-2.5293,-2.5293,-2.5293,-2.5293,-2.5293,-2.0169,-2.0302,-2.0302,-2.0302,-2.0302,-2.0212,-1.9845,-1.9477,-1.9075,-1.8668,-1.8171,0.0,-1.7757,-1.8838,0.0,0.0,0.0,0.0,-2.513,-2.5293,-2.5264,0.0,-2.5131,0.0,-2.5022,-2.5365,-2.5949,-2.6768,-2.6725,-2.7211,-2.8426,-2.8929,-2.9336,-2.9687,-2.9789,-2.9949,-3.0173,-3.0323,-3.0398,-3.0398,-3.0398,-3.0398,-3.0398,-3.0398,-3.0398,-3.0398,-3.0398,-3.0398,-3.0398,-3.0398,-3.0398,-3.0398,-3.0398,-3.0398,-3.0398,-3.0398,-3.0398,-3.0398,-3.0398,-3.0398,-3.0398,-3.0398,-3.0398,-3.0398,-3.0398,-3.0398,-3.0398,-3.0398,-3.0398,-3.0398,-3.0398,-3.0398,-3.0398,-3.0398,-3.0398,-3.0398,-3.0398,-3.0398,-3.0398,-3.0398,-3.0398,-3.0398,-3.0398,-3.0398,-3.0398,-3.0398,-3.0398,-2.9621,-2.7448,-2.7169,-2.6688,-2.5428,-2.5639,-2.5726,-2.5322,-2.5649,-2.5707,-2.5312,-2.5293,-2.5293,-2.5293,-2.5293,-2.5293,-2.5293,-2.5293,-2.5293,-2.5293,-2.5293,-2.5293,-2.5293,-2.5293,-2.5495,-2.0302,-2.0302,-2.0302,-2.0302,-2.0302,-2.009,-1.9271,-1.8965,-1.8606,-1.7793,0.0,-1.7295,-1.7366,-1.8078,-1.9251,-2.1052,0.0,-2.3245,-2.5043,-2.5293,-2.5293,-2.5264,-2.5274,-2.5293,-2.5264,-2.6072,-2.6957,-2.7823,-2.6982,-2.7104,-2.8667,-2.8742,-2.9067,-2.977,-2.9964,-3.0163,-3.0398,-3.0398,-3.0398,-3.0398,-3.0398,-3.0398,-3.0398,-3.0398,-3.0398,-3.0398,-3.0398,-3.0398,-3.0398,-3.0398,-3.0398,-3.0398,-3.0398,-3.0398,-3.0398,-3.0398,-3.0398,-3.0398,-3.0398,-3.0398,-3.0398,-3.0398,-3.0398,-3.0398,-3.0398,-3.0398,-3.0398,-3.0398,-3.0398,-3.0398,-3.0398,-3.0398,-3.0398,-3.0398,-3.0398,-3.0398,-3.0398,-3.0398,-3.0398,-3.0398,-3.0398,-3.0398,-3.0398,-3.0398,-3.0398,-3.0398,-3.0398,-2.9794,-2.8121,-2.79,-2.7226,-2.5485,-2.5986,-2.612,-2.536,-2.5995,-2.6101,-2.5351,-2.5293,-2.5293,-2.5293,-2.5293,-2.5293,-2.5293,-2.5293,-2.5293,-2.5293,-2.5293,-2.5293,-2.5293,-2.5293,-2.5774,-2.0302,-2.0302,-2.0302,-2.0302,-2.0302,-2.0071,-1.9213,-1.7943,0.0,0.0,-1.558,-1.4791,-1.5503,-1.6349,-1.7715,-2.0119,0.0,0.0,0.0,0.0,-2.5244,0.0,0.0,-2.5224,-2.5067,-2.5991,0.0,-2.7823,-2.8307,-2.9003,-3.0017,-3.0065,-3.0132,-3.0276,-3.0311,-3.0345,-3.0398,-3.0398,-3.0398,-3.0398,-3.0398,-3.0398,-3.0398,-3.0398,-3.0398,-3.0398,-3.0398,-3.0398,-3.0398,-3.0398,-3.0398,-3.0398,-3.0398,-3.0398,-3.0398,-3.0398,-3.0398,-3.0398,-3.0398,-3.0398,-3.0398,-3.0398,-3.0398,-3.0398,-3.0398,-3.0398,-3.0398,-3.0398,-3.0398,-3.0398,-3.0398,-3.0398,-3.0398,-3.0398,-3.0398,-3.0398,-3.0398,-3.0398,-3.0398,-3.0398,-3.0398,-3.0398,-3.0398,-3.0398,-3.0398,-3.0398,-3.0398,-2.9794,-2.8121,-2.79,-2.7226,-2.5485,-2.5437,-2.5457,-2.5303,-2.5437,-2.5457,-2.5303,-2.5293,-2.5293,-2.5293,-2.5293,-2.5293,-2.5293,-2.5293,-2.5293,-2.5293,-2.5293,-2.5293,-2.5293,-2.5293,-2.5774,-2.0302,-2.0302,-2.0302,-2.0302,-1.9956,-1.9398,-1.852,0.0,0.0,0.0,-1.4157,-1.3531,-1.4372,0.0,0.0,0.0,0.0,0.0,0.0,0.0,0.0,0.0,0.0,-2.5264,0.0,-2.6435,-2.7448,-2.7871,-2.9073,-2.9967,-3.0379,-3.0398,-3.0398,-3.0398,-3.0398,-3.0398,-3.0398,-3.0398,-3.0398,-3.0398,-3.0398,-3.0398,-3.0398,-3.0398,-3.0398,-3.0398,-3.0398,-3.0398,-3.0398,-3.0398,-3.0398,-3.0398,-3.0398,-3.0398,-3.0398,-3.0398,-3.0398,-3.0398,-3.0398,-3.0398,-3.0398,-3.0398,-3.0398,-3.0398,-3.0398,-3.0398,-3.0398,-3.0398,-3.0398,-3.0398,-3.0398,-3.0398,-3.0398,-3.0398,-3.0398,-3.0398,-3.0398,-3.0398,-3.0398,-3.0398,-3.0398,-3.0398,-3.0398,-3.0398,-3.0398,-3.0398,-3.0398,-2.9958,-2.8688,-2.8515,-2.7698,-2.5524,-2.5717,-2.5793,-2.5341,-2.5726,-2.5784,-2.5322,-2.5293,-2.5293,-2.5293,-2.5293,-2.5293,-2.5293,-2.5293,-2.5293,-2.5293,-2.5293,-2.5293,-2.5293,-2.5293,-2.6015,-2.0006,-2.0132,-2.0251,-2.0294,-1.9623,-1.8741,-1.7888,-1.6263,0.0,0.0,-1.3093,-1.2699,-1.3702,0.0,-1.5798,0.0,-1.9571,0.0,0.0,0.0,0.0,0.0,0.0,0.0,-2.5293,-2.688,0.0,-2.79,-2.9458,-3.0398,-3.0398,-3.0398,-3.0398,-3.0398,-3.0398,-3.0398,-3.0398,-3.0398,-3.0398,-3.0398,-3.0398,-3.0398,-3.0398,-3.0398,-3.0398,-3.0398,-3.0398,-3.0398,-3.0398,-3.0398,-3.0398,-3.0398,-3.0398,-3.0398,-3.0398,-3.0398,-3.0398,-3.0398,-3.0398,-3.0398,-3.0398,-3.0398,-3.0398,-3.0398,-3.0398,-3.0398,-3.0398,-3.0398,-3.0398,-3.0398,-3.0398,-3.0398,-3.0398,-3.0398,-3.0398,-3.0398,-3.0398,-3.0398,-3.0398,-3.0398,-3.0398,-3.0398,-3.0398,-3.0398,-3.0398,-3.0398,-3.0398,-3.0092,-2.9208,-2.9092,-2.8265,-2.6092,-2.6303,-2.6255,-2.537,-2.5938,-2.6034,-2.5341,-2.5293,-2.5293,-2.5293,-2.5293,-2.5293,-2.5293,-2.5293,-2.5293,-2.5293,-2.5293,-2.5293,-2.5293,-2.5293,-2.6236,-1.9085,-1.9565,-2.0069,-2.0249,-1.9557,-1.8617,-1.7867,0.0,0.0,-1.3838,-1.2544,-1.1923,-1.351,-1.3863,-1.5044,-1.8446,0.0,-2.0291,0.0,0.0,0.0,0.0,0.0,0.0,-2.5293,-2.688,-2.79,-2.79,-2.9458,-3.0398,-3.0398,-3.0398,-3.0398,-3.0398,-3.0398,-3.0398,-3.0398,-3.0398,-3.0398,-3.0398,-3.0398,-3.0398,-3.0398,-3.0398,-3.0398,-3.0398,-3.0398,-3.0398,-3.0398,-3.0398,-3.0398,-3.0398,-3.0398,-3.0398,-3.0398,-3.0398,-3.0398,-3.0398,-3.0398,-3.0398,-3.0398,-3.0398,-3.0398,-3.0398,-3.0398,-3.0398,-3.0398,-3.0398,-3.0398,-3.0398,-3.0398,-3.0398,-3.0398,-3.0398,-3.0398,-3.0398,-3.0398,-3.0398,-3.0398,-3.0398,-3.0398,-3.0398,-3.0398,-3.0398,-3.0398,-3.0398,-3.0398,-3.0092,-2.9208,-2.9092,-2.8727,-2.7755,-2.7024,-2.6255,-2.537,-2.537,-2.5389,-2.5303,-2.5293,-2.5293,-2.5293,-2.5293,-2.5293,-2.5293,-2.5293,-2.5293,-2.5293,-2.5293,-2.5293,-2.5293,-2.5293,-2.6236,-1.8736,-1.9315,-1.9901,-1.9982,-1.8935,-1.7824,-1.7528,0.0,-1.2988,-1.2962,-1.162,-1.0975,-1.2651,-1.302,-1.3987,-1.6799,-1.7317,-1.839,-2.1291,0.0,0.0,0.0,-2.5014,0.0,0.0,0.0,-2.7534,-2.8544,-2.9236,-2.9852,-3.0369,-3.0398,-3.0398,-3.0398,-3.0398,-3.0398,-3.0398,-3.0398,-3.0398,-3.0398,-3.0398,-3.0398,-3.0398,-3.0398,-3.0398,-3.0398,-3.0398,-3.0398,-3.0398,-3.0398,-3.0398,-3.0398,-3.0398,-3.0398,-3.0398,-3.0398,-3.0398,-3.0398,-3.0398,-3.0398,-3.0398,-3.0398,-3.0398,-3.0398,-3.0398,-3.0398,-3.0398,-3.0398,-3.0398,-3.0398,-3.0398,-3.0398,-3.0398,-3.0398,-3.0398,-3.0398,-3.0398,-3.0398,-3.0398,-3.0398,-3.0398,-3.0398,-3.0398,-3.0398,-3.0398,-3.0398,-3.0398,-3.0275,-2.9929,-2.9881,-2.9563,-2.8707,-2.788,-2.7236,-2.689,-2.638,-2.6082,-2.6082,-2.5582,-2.5293,-2.5293,-2.5293,-2.5293,-2.5293,-2.5293,-2.5293,-2.5293,-2.5293,-2.5293,-2.5293,-2.5293,-2.6236,-1.8084,-1.8787,-1.9404,-1.9441,-1.8324,-1.7192,0.0,-1.4592,-1.2395,-1.2373,-1.1232,-1.0661,-1.2111,-1.2641,-1.3578,-1.5751,-1.6373,-1.7499,-2.004,-2.1136,0.0,0.0,0.0,-2.5171,-2.5203,-2.6052,-2.7303,-2.8967,-2.9092,-2.9477,-3.034,-3.0398,-3.0398,-3.0398,-3.0398,-3.0398,-3.0398,-3.0398,-3.0398,-3.0398,-3.0398,-3.0398,-3.0398,-3.0398,-3.0398,-3.0398,-3.0398,-3.0398,-3.0398,-3.0398,-3.0398,-3.0398,-3.0398,-3.0398,-3.0398,-3.0398,-3.0398,-3.0398,-3.0398,-3.0398,-3.0398,-3.0398,-3.0398,-3.0398,-3.0398,-3.0398,-3.0398,-3.0398,-3.0398,-3.0398,-3.0398,-3.0398,-3.0398,-3.0398,-3.0398,-3.0398,-3.0398,-3.0398,-3.0398,-3.0398,-3.0398,-3.0398,-3.0398,-3.0398,-3.0398,-3.0398,-3.0398,-3.0302,-3.0054,-3.0246,-3.0073,-2.9188,-2.8813,-2.8332,-2.7582,-2.6948,-2.6495,-2.6236,-2.5639,-2.5293,-2.5293,-2.5293,-2.5293,-2.5293,-2.5293,-2.5293,-2.5293,-2.5293,-2.5293,-2.5293,-2.5293,-2.6236,-1.6847,-1.7855,-1.845,-1.8581,-1.7851,-1.6937,0.0,-1.4194,-1.238,-1.2313,-1.16,-1.1259,-1.2139,-1.2953,-1.4055,-1.5819,-1.6772,-1.8179,-2.0732,-2.1774,0.0,0.0,0.0,-2.4855,-2.4998,-2.597,-2.7303,-2.8967,-2.9092,-2.9477,-3.034,-3.0398,-3.0398,-3.0398,-3.0398,-3.0398,-3.0398,-3.0398,-3.0398,-3.0398,-3.0398,-3.0398,-3.0398,-3.0398,-3.0398,-3.0398,-3.0398,-3.0398,-3.0398,-3.0398,-3.0398,-3.0398,-3.0398,-3.0398,-3.0398,-3.0398,-3.0398,-3.0398,-3.0398,-3.0398,-3.0398,-3.0398,-3.0398,-3.0398,-3.0398,-3.0398,-3.0398,-3.0398,-3.0398,-3.0398,-3.0398,-3.0398,-3.0398,-3.0398,-3.0398,-3.0398,-3.0398,-3.0398,-3.0398,-3.0398,-3.0398,-3.0398,-3.0398,-3.0398,-3.0398,-3.0398,-3.0398,-3.0092,-2.9217,-2.9871,-3.0073,-2.9188,-2.9862,-2.9352,-2.6832,-2.6611,-2.6236,-2.537,-2.5303,-2.5293,-2.5293,-2.5293,-2.5293,-2.5293,-2.5293,-2.5293,-2.5293,-2.5293,-2.5293,-2.5293,-2.5293,-2.6236,-1.4449,-1.5464,-1.643,-1.5924,-1.5554,-1.5113,-1.4357,-1.3142,-1.203,-1.1458,-1.1119,-1.1183,-1.2013,-1.2901,-1.4184,-1.6302,-1.6939,-1.8085,0.0,0.0,0.0,-2.4161,-2.4803,-2.516,0.0,-2.5513,-2.6188,-2.7313,-2.7938,-2.864,-2.9467,-3.0083,-3.0398,-3.0398,-3.0398,-3.0398,-3.0398,-3.0398,-3.0398,-3.0398,-3.0398,-3.0398,-3.0398,-3.0398,-3.0398,-3.0398,-3.0398,-3.0398,-3.0398,-3.0398,-3.0398,-3.0398,-3.0398,-3.0398,-3.0398,-3.0398,-3.0398,-3.0398,-3.0398,-3.0398,-3.0398,-3.0398,-3.0398,-3.0398,-3.0398,-3.0398,-3.0398,-3.0398,-3.0398,-3.0398,-3.0398,-3.0398,-3.0398,-3.0398,-3.0398,-3.0398,-3.0398,-3.0398,-3.0398,-3.0398,-3.0398,-3.0398,-3.0398,-3.0398,-3.0398,-3.0398,-3.0398,-3.0292,-3.0025,-2.9708,-2.941,-2.9121,-2.9342,-2.9429,-2.9227,-2.865,-2.7957,-2.713,-2.6524,-2.5928,-2.5312,-2.5293,-2.5293,-2.5293,-2.5293,-2.5293,-2.5293,-2.5293,-2.5293,-2.5322,-2.6524,-2.7371,0.0,-1.3927,-1.4664,-1.4114,-1.3975,-1.3764,-1.296,-1.2146,-1.1424,-1.0922,-1.1105,-1.1526,-1.2077,-1.3114,-1.4353,-1.5833,-1.6675,-1.7931,0.0,0.0,0.0,-2.4205,0.0,0.0,-2.5183,-2.5264,-2.5658,-2.6534,-2.7101,-2.79,-2.9034,-2.9333,-2.9756,-3.0379,-3.0398,-3.0398,-3.0398,-3.0398,-3.0398,-3.0398,-3.0398,-3.0398,-3.0398,-3.0398,-3.0398,-3.0398,-3.0398,-3.0398,0.0,-3.0398,-3.0398,-3.0398,-3.0398,-3.0398,-3.0398,-3.0398,-3.0398,-3.0398,-3.0398,-3.0398,-3.0398,-3.0398,-3.0398,-3.0398,-3.0398,-3.0398,-3.0398,-3.0398,-3.0398,-3.0398,-3.0398,-3.0398,-3.0398,-3.0398,-3.0398,-3.0398,-3.0398,-3.0398,-3.0398,-3.0398,-3.0398,-3.0398,-3.0398,-3.0398,-3.0398,-3.0398,-3.0398,-3.0167,-2.9544,-2.9246,-2.8977,-2.8679,-2.865,-2.8986,-2.9842,-2.941,-2.8756,-2.7948,-2.7082,-2.6361,-2.5813,-2.5466,-2.5293,-2.5293,-2.5293,-2.5293,-2.5293,-2.5293,-2.5293,-2.5322,-2.6755,-2.7592,0.0,-1.2986,0.0,-1.2886,-1.2891,-1.2717,-1.1907,-1.12,0.0,-1.0629,-1.136,-1.2087,-1.2338,-1.3511,-1.4576,-1.4986,-1.6324,0.0,0.0,-2.1409,0.0,0.0,-2.4956,0.0,-2.5022,-2.5194,-2.5639,-2.6447,-2.6563,-2.7284,-2.8832,-2.8265,-2.8611,-3.0167,-3.0215,-3.0273,-3.0398,-3.0273,-3.0244,-3.0302,-3.0302,-3.0302,-3.0302,-3.0369,-3.0398,-3.0398,-3.0398,-3.0398,-3.0398,-3.0398,-3.0398,-3.0398,-3.0398,-3.0398,-3.0398,-3.0398,-3.0398,-3.0398,-3.0398,-3.035,-3.0302,-3.0302,-3.034,-3.0398,-3.0398,-3.0398,-3.0398,-3.0398,-3.0398,-3.0398,-3.0398,-3.0398,-3.0398,-3.0398,-3.0398,-3.0398,-3.0398,-3.0398,-3.0398,-3.0398,-3.0398,-3.0398,-3.0398,-3.0398,-3.0398,-3.0398,-3.034,-2.9775,-2.8265,-2.8563,-2.8679,-2.8044,-2.788,-2.814,-2.8948,-2.9006,-2.8669,-2.7861,-2.7053,-2.6572,-2.6515,-2.5726,-2.5293,-2.5293,-2.5293,-2.5293,-2.5293,-2.5293,-2.5293,-2.5312,-2.6197,-2.7073,-1.0294,0.0,-1.1278,-1.0531,-1.0811,-1.1055,0.0,-1.0394,-1.0529,0.0,0.0,0.0,-1.2962,-1.3495,-1.4801,-1.8076,0.0,0.0,-2.2379,0.0,0.0,-2.5133,-2.5213,-2.5234,-2.5234,-2.5274,-2.538,-2.5582,-2.6226,-2.6774,-2.7169,-2.764,-2.8073,-2.8477,-2.8486,-2.9102,-3.0388,-2.9131,-2.8794,-2.941,-2.941,-2.941,-2.9429,-3.0102,-3.0398,-3.0398,-3.0398,-3.0398,-3.0398,-3.0398,-3.0398,-3.0398,-3.0398,-3.0398,-3.0398,-3.0398,-3.0398,-3.0398,-3.0398,-2.9967,-2.941,-2.941,-2.9862,-3.0398,-3.0398,-3.0398,-3.0398,-3.0398,-3.0398,-3.0398,-3.0398,-3.0398,-3.0398,-3.0398,-3.0398,-3.0398,-3.0398,-3.0398,-3.0398,-3.0398,-3.0398,-3.0398,-3.0398,-3.0398,-3.0398,-3.0398,-2.9833,-2.9496,-2.9785,-2.8284,-2.7611,-2.8698,-2.7669,-2.7246,-2.8111,-2.8179,-2.7813,-2.6957,-2.6707,-2.6303,-2.563,-2.5409,-2.5293,-2.5293,-2.5293,-2.5293,-2.5293,-2.5293,-2.5293,-2.5312,-2.6197,-2.7073,-0.958,-1.0218,-1.0757,-1.0186,-1.0329,-1.0507,-1.0141,0.0,0.0,0.0,0.0,0.0,0.0,0.0,0.0,0.0,-1.8742,0.0,0.0,0.0,-2.5293,-2.5293,-2.5293,-2.5293,-2.5293,-2.5293,-2.5293,-2.5293,-2.5745,-2.6188,-2.6582,-2.6669,-2.7073,-2.7871,-2.7121,-2.7534,-2.9246,-2.8352,-2.8121,-2.8544,-2.8919,-2.9092,-2.9121,-3.0006,-3.0398,-3.0398,-3.0398,-3.0398,-3.0398,-3.0398,-3.0398,-3.0398,-3.0398,-3.0398,-3.034,-2.9948,-2.9804,-2.9756,-2.9381,-2.8938,-2.8602,-2.8977,-2.9419,-2.9881,-3.0285,-3.0398,-3.0398,-3.0398,-3.0398,-3.0398,-3.0398,-3.0398,-3.0398,-3.0398,-3.0398,-3.0398,-3.0398,-3.0398,-3.0398,-3.0398,-3.0398,-3.0398,-3.0398,-3.0398,-3.0265,-2.9862,-2.94,-2.8986,-2.8698,-2.7457,-2.6948,-2.7861,-2.6784,-2.6361,-2.7226,-2.7303,-2.7265,-2.7198,-2.7198,-2.6976,-2.6515,-2.5716,-2.5293,-2.5293,-2.5293,-2.5293,-2.5293,-2.5293,-2.5293,-2.5303,-2.5784,-2.6678,-0.9756,-1.04,-1.0949,-1.0575,-1.0605,-1.0707,0.0,0.0,0.0,0.0,0.0,0.0,0.0,0.0,0.0,0.0,0.0,0.0,-2.3793,-2.4812,-2.5312,-2.5312,-2.5312,-2.5303,-2.5293,-2.5293,-2.5293,-2.5293,-2.5293,-2.562,-2.6361,-2.5697,-2.5986,-2.7457,-2.6072,-2.5995,-2.7445,-2.7485,-2.7573,-2.7707,-2.839,-2.8717,-2.8746,-2.9756,-3.0208,-3.0208,-3.0208,-3.0208,-3.0198,-3.0073,-3.0025,-3.0025,-3.0025,-3.0025,-2.9938,-2.9188,-2.8919,-2.8794,-2.7977,-2.7784,-2.7986,-2.8534,-2.8804,-2.9044,-2.9794,-3.0102,-3.0208,-3.0208,-3.0304,-3.0398,-3.0398,-3.0398,-3.0398,-3.0398,-3.0398,-3.0359,-3.0237,-3.0208,-3.0208,-3.0208,-3.0208,-3.0246,-3.0379,-3.0294,-2.9948,-2.9208,-2.8871,-2.8246,-2.6957,-2.6572,-2.6505,-2.6774,-2.5909,-2.5707,-2.6707,-2.6803,-2.7111,-2.7852,-2.79,-2.7832,-2.7707,-2.6284,-2.5437,-2.5293,-2.5293,-2.5293,-2.5293,-2.5293,-2.5293,-2.5293,-2.5293,-2.6159,-1.0474,-1.1167,-1.1329,-0.9876,-1.0615,-1.1484,-1.0716,0.0,0.0,0.0,0.0,0.0,0.0,0.0,-1.6286,0.0,0.0,-2.3649,0.0,0.0,-2.538,-2.538,-2.538,-2.5361,-2.5303,-2.5293,-2.5293,-2.5293,-2.5293,-2.536,-2.5485,-2.537,-2.5418,-2.5687,-2.5437,-2.5348,-2.5438,-2.5607,-2.6072,-2.6803,-2.6919,-2.6976,-2.7044,-2.8592,-2.9294,-2.9294,-2.9294,-2.9294,-2.9246,-2.8554,-2.8275,-2.8275,-2.8275,-2.8275,-2.8265,-2.813,-2.8073,-2.7957,-2.7101,-2.7274,-2.7794,-2.7178,-2.7476,-2.8111,-2.8236,-2.8756,-2.9294,-2.9294,-2.9833,-3.0398,-3.0398,-3.0398,-3.0398,-3.0398,-3.0398,-3.0208,-2.9458,-2.9294,-2.9294,-2.9294,-2.9294,-2.9525,-3.0275,-2.9794,-2.9246,-2.9111,-2.789,-2.7159,-2.764,-2.6409,-2.6063,-2.7534,-2.6265,-2.5957,-2.7553,-2.7698,-2.7755,-2.789,-2.79,-2.7573,-2.6832,-2.6544,-2.6053,-2.5303,-2.5293,-2.5293,-2.5293,-2.5293,-2.5293,-2.5293,-2.5293,-2.5842,-1.0099,-1.0722,-1.1023,-1.0256,-1.123,-1.2319,-1.2079,0.0,0.0,0.0,0.0,0.0,0.0,0.0,-1.815,-2.1641,0.0,-2.4264,-2.4726,-2.5111,-2.5341,-2.5341,-2.5341,-2.5322,-2.5293,-2.5293,-2.5293,-2.5293,-2.5293,-2.5293,-2.5293,-2.5293,-2.5244,-2.5142,-2.5141,-2.5063,-2.4891,-2.4987,-2.5261,-2.5746,-2.6215,-2.6488,-2.664,-2.789,-2.8448,-2.8448,-2.8448,-2.8448,-2.8419,-2.8044,-2.79,-2.79,-2.79,-2.79,-2.7832,-2.7371,-2.6899,-2.6438,-2.6043,-2.6159,-2.6515,-2.6582,-2.6871,-2.7284,-2.7755,-2.8159,-2.8448,-2.8448,-2.939,-3.0398,-3.0398,-3.0054,-2.9698,-2.9698,-2.9371,-2.8938,-2.8534,-2.8448,-2.8448,-2.8448,-2.8448,-2.8573,-2.8977,-2.8717,-2.8284,-2.7823,-2.7092,-2.6572,-2.6505,-2.5803,-2.5601,-2.6409,-2.5784,-2.562,-2.6428,-2.7361,-2.79,-2.79,-2.8304,-2.7746,-2.5976,-2.6803,-2.6669,-2.5322,-2.5293,-2.5293,-2.5293,-2.5293,-2.5312,-2.5341,-2.5312,-2.5784,-0.9829,-1.0268,-1.0688,-1.0927,0.0,-1.2765,-1.3386,0.0,0.0,0.0,0.0,0.0,0.0,-1.8409,0.0,-2.2467,-2.3687,-2.4601,-2.5226,-2.5312,-2.5312,-2.5312,-2.5312,-2.5312,-2.5293,-2.5293,-2.5293,-2.5293,-2.5293,-2.5293,-2.5293,-2.5264,-2.5163,-2.5001,-2.4974,-2.4881,-2.4731,-2.4775,-2.486,-2.501,-2.5688,-2.6094,-2.6332,-2.7198,-2.7601,-2.7601,-2.7601,-2.7601,-2.7582,-2.738,-2.7284,-2.7284,-2.7284,-2.7284,-2.7207,-2.6544,-2.587,-2.5293,-2.5293,-2.5293,-2.5409,-2.6082,-2.6303,-2.6419,-2.7092,-2.7428,-2.7601,-2.7601,-2.8669,-2.9813,-2.9813,-2.9323,-2.8813,-2.8813,-2.8342,-2.7832,-2.764,-2.7601,-2.7601,-2.7601,-2.7601,-2.7659,-2.7861,-2.7727,-2.7371,-2.6697,-2.6428,-2.6053,-2.5389,-2.5293,-2.5293,-2.5293,-2.5476,-2.5687,-2.589,-2.713,-2.7803,-2.7611,-2.8534,-2.8044,-2.5697,-2.689,-2.6871,-2.5322,-2.5293,-2.5293,-2.5293,-2.5293,-2.5322,-2.538,-2.5312,-2.5697,-1.0421,-1.053,-1.0649,-1.1585,-1.1887,0.0,-1.389,-1.4316,0.0,-1.6578,0.0,0.0,0.0,-2.0753,-2.2581,-2.2764,-2.4159,-2.5255,-2.538,-2.539,-2.539,-2.539,-2.539,-2.537,-2.5303,-2.5293,-2.5293,-2.5293,-2.5293,-2.5293,-2.5293,-2.512,-2.5013,-2.5001,-2.4887,-2.4721,-2.4519,-2.47,-2.486,-2.5001,-2.5068,-2.5195,-2.5418,-2.6303,-2.6688,-2.6688,-2.6688,-2.6688,-2.663,-2.5822,-2.5485,-2.5485,-2.5485,-2.5485,-2.5476,-2.5418,-2.5351,-2.5293,-2.5293,-2.5293,-2.5303,-2.537,-2.5389,-2.5409,-2.5466,-2.6053,-2.6688,-2.6688,-2.7361,-2.8073,-2.8073,-2.8025,-2.7986,-2.7986,-2.7938,-2.7678,-2.6871,-2.6688,-2.6688,-2.6688,-2.6688,-2.6948,-2.7755,-2.7226,-2.6669,-2.6611,-2.5918,-2.537,-2.5303,-2.5293,-2.5293,-2.5293,-2.6024,-2.6832,-2.764,-2.7823,-2.7544,-2.6746,-2.8207,-2.8313,-2.6582,-2.663,-2.6255,-2.5312,-2.5293,-2.5293,-2.5293,-2.5293,-2.5293,-2.5303,-2.5293,-2.5332,-0.987,-1.0257,-1.0822,-1.1787,-1.1958,0.0,0.0,-1.5174,-1.6383,-1.7776,-1.8471,0.0,0.0,0.0,-2.2168,-2.2706,-2.3783,-2.4736,-2.5264,-2.5332,-2.5332,-2.5332,-2.5332,-2.5322,-2.5293,-2.5293,-2.5293,-2.5293,-2.5293,-2.5253,-2.512,-2.5034,-2.4901,-2.4693,-2.4645,-2.4584,-2.4495,-2.4584,-2.4737,-2.5001,-2.4917,-2.4956,-2.512,-2.5445,-2.5608,-2.561,-2.5734,-2.5793,-2.5774,-2.5437,-2.5293,-2.5293,-2.5293,-2.5293,-2.5293,-2.5293,-2.5293,-2.5293,-2.5293,-2.5293,-2.5293,-2.5293,-2.5293,-2.5293,-2.5293,-2.5524,-2.5793,-2.5793,-2.6034,-2.6534,-2.7621,-2.7496,-2.7092,-2.7092,-2.6678,-2.6197,-2.5861,-2.5793,-2.5793,-2.5793,-2.5793,-2.5909,-2.6236,-2.6015,-2.5793,-2.5793,-2.5505,-2.5293,-2.5293,-2.5293,-2.5293,-2.5293,-2.5582,-2.614,-2.7024,-2.7092,-2.6948,-2.6621,-2.7698,-2.7582,-2.5861,-2.6313,-2.6217,-2.539,-2.5312,-2.5312,-2.5361,-2.5312,-2.5312,-2.5361,-2.5312,-2.5312,-0.9517,-0.9897,-1.0539,0.0,0.0,0.0,-1.4337,-1.5682,-1.6986,-1.8582,-1.9415,-1.9942,-2.0251,0.0,0.0,-2.2658,-2.3533,-2.4389,-2.5187,-2.5293,-2.5293,-2.5293,-2.5293,-2.5293,-2.5293,-2.5293,-2.5293,-2.5293,-2.5293,-2.5244,-2.5099,-2.5034,-2.4872,-2.4607,-2.4591,-2.4568,-2.4495,-2.4604,-2.4762,-2.5001,-2.4904,-2.4943,-2.509,-2.509,-2.509,-2.5099,-2.5244,-2.5293,-2.5293,-2.5293,-2.5293,-2.5293,-2.5293,-2.5293,-2.5293,-2.5293,-2.5293,-2.5293,-2.5293,-2.5293,-2.5293,-2.5293,-2.5293,-2.5293,-2.5293,-2.5293,-2.5293,-2.5293,-2.5293,-2.5562,-2.6774,-2.664,-2.6197,-2.6197,-2.5726,-2.5293,-2.5293,-2.5293,-2.5293,-2.5293,-2.5293,-2.5293,-2.5293,-2.5293,-2.5293,-2.5293,-2.5293,-2.5293,-2.5293,-2.5293,-2.5409,-2.5678,-2.5457,-2.5649,-2.6534,-2.6351,-2.6197,-2.6197,-2.6774,-2.6572,-2.5351,-2.589,-2.5967,-2.5418,-2.5377,-2.5377,-2.5399,-2.5341,-2.5332,-2.537,-2.5312,-2.5332,-0.9534,-0.9509,0.0,0.0,0.0,0.0,-1.5251,-1.5756,-1.6454,-1.9066,-1.9813,-2.0069,-2.0259,-2.0948,0.0,-2.2658,-2.3523,-2.437,-2.5187,-2.5293,-2.5293,-2.5293,-2.5293,-2.5293,-2.5293,-2.5293,-2.5293,-2.5293,-2.5293,-2.5293,-2.5303,-2.5109,-2.4946,-2.4795,-2.4804,-2.4691,-2.4512,-2.4822,-2.5001,-2.5001,-2.5001,-2.5109,-2.5303,-2.5303,-2.5303,-2.5303,-2.5303,-2.5293,-2.5293,-2.5293,-2.5293,-2.5293,-2.5293,-2.5293,-2.5293,-2.5293,-2.5293,-2.5293,-2.5293,-2.5293,-2.5293,-2.5293,-2.5293,-2.5293,-2.5293,-2.5293,-2.5293,-2.5293,-2.5293,-2.5293,-2.5293,-2.5293,-2.5293,-2.5293,-2.5293,-2.5293,-2.5293,-2.5293,-2.5293,-2.5293,-2.5293,-2.5293,-2.5293,-2.5293,-2.5293,-2.5293,-2.5293,-2.5293,-2.5293,-2.5293,-2.563,-2.6505,-2.5822,-2.5649,-2.6515,-2.5803,-2.5293,-2.5293,-2.5361,-2.537,-2.5293,-2.537,-2.5399,-2.5399,-2.5467,-2.5473,-2.5399,-2.5399,-2.537,-2.5293,-2.5293,-2.5332,-0.9394,-1.0322,0.0,0.0,0.0,0.0,0.0,-1.6699,0.0,0.0,-1.988,-1.9993,-1.9952,-2.0222,-2.0929,-2.2411,-2.2959,-2.3678,-2.5091,-2.5293,-2.5293,-2.5293,-2.5293,-2.5293,-2.5293,-2.5293,-2.5293,-2.5293,-2.5293,-2.5244,-2.5099,-2.5034,-2.4946,-2.4795,-2.4804,-2.4814,-2.4858,-2.4952,-2.5067,-2.5214,-2.5214,-2.5172,-2.5088,-2.5088,-2.5088,-2.5088,-2.5088,-2.5172,-2.5293,-2.5293,-2.5293,-2.5293,-2.5293,-2.5293,-2.5293,-2.5293,-2.5293,-2.5293,-2.5293,-2.5293,-2.5293,-2.5293,-2.5293,-2.5293,-2.5293,-2.5293,-2.5293,-2.5293,-2.5293,-2.5293,-2.5293,-2.5293,-2.5293,-2.5293,-2.5293,-2.5293,-2.5293,-2.5293,-2.5293,-2.5293,-2.5293,-2.5293,-2.5293,-2.5293,-2.5293,-2.5293,-2.5293,-2.5293,-2.5293,-2.5293,-2.5399,-2.5658,-2.5447,-2.5399,-2.5658,-2.5447,-2.5312,-2.537,-2.539,-2.539,-2.537,-2.5428,-2.5476,-2.5476,-2.5444,-2.5435,-2.5476,-2.5418,-2.5409,-2.5438,-2.5438,-2.5457,-0.9852,0.0,0.0,0.0,0.0,-1.5099,-1.7083,0.0,0.0,0.0,-1.9813,-1.9824,-1.9811,-1.9869,-2.04,-2.1853,-2.2441,-2.318,-2.4521,-2.4982,-2.5161,-2.5115,-2.5103,-2.5103,-2.5103,-2.5103,-2.5103,-2.5103,-2.5103,-2.5049,-2.493,-2.4974,-2.4946,-2.4795,-2.4932,-2.4965,-2.492,-2.4965,-2.5032,-2.5103,-2.516,-2.512,-2.5001,-2.5078,-2.512,-2.512,-2.512,-2.5183,-2.5293,-2.5293,-2.5293,-2.5293,-2.5293,-2.5293,-2.5293,-2.5293,-2.5293,-2.5293,-2.5293,-2.5293,-2.5293,-2.5293,-2.5293,-2.5293,-2.5293,-2.5293,-2.5293,-2.5293,-2.5293,-2.5293,-2.5293,-2.5293,-2.5293,-2.5293,-2.5293,-2.5293,-2.5293,-2.5293,-2.5293,-2.5293,-2.5293,-2.5293,-2.5293,-2.5293,-2.5293,-2.5293,-2.5293,-2.5293,-2.5293,-2.5312,-2.5322,-2.5293,-2.5312,-2.5322,-2.5293,-2.5293,-2.5312,-2.5361,-2.5388,-2.5404,-2.5404,-2.5466,-2.5505,-2.5505,-2.5462,-2.5452,-2.5505,-2.5466,-2.5447,-2.5462,-2.5462,-2.5469,-1.0612,0.0,0.0,0.0,0.0,0.0,-1.7847,-1.8867,-1.939,-1.9716,0.0,-1.9627,-1.9738,-1.9764,-2.0117,-2.1085,-2.1927,-2.2739,-2.3545,-2.4367,-2.4822,-2.4696,-2.4757,-2.4804,-2.4804,-2.4804,-2.4804,-2.4804,-2.4804,-2.4804,-2.4804,-2.4917,-2.493,-2.4795,-2.5103,-2.5115,-2.4804,-2.492,-2.492,-2.4823,-2.4937,-2.501,-2.5034,-2.5214,-2.5293,-2.5274,-2.5293,-2.5293,-2.5274,-2.5293,-2.5293,-2.5293,-2.5293,-2.5293,-2.5293,-2.5293,-2.5293,-2.5293,-2.5293,-2.5293,-2.5293,-2.5293,-2.5293,-2.5293,-2.5293,-2.5293,-2.5293,-2.5293,-2.5293,-2.5293,-2.5293,-2.5293,-2.5293,-2.5293,-2.5293,-2.5293,-2.5293,-2.5293,-2.5293,-2.5293,-2.5293,-2.5293,-2.5293,-2.5293,-2.5293,-2.5293,-2.5293,-2.5293,-2.5303,-2.5361,-2.538,-2.5322,-2.537,-2.538,-2.5303,-2.5303,-2.5303,-2.5303,-2.5377,-2.5405,-2.5415,-2.5468,-2.5504,-2.5486,-2.5505,-2.5505,-2.5495,-2.5505,-2.5463,-2.5405,-2.5412,-2.5451,0.0,-1.1202,0.0,0.0,0.0,-1.6608,-1.7321,-1.842,-1.9374,-1.96,-1.9623,-1.9555,-1.9429,-1.9536,-1.9928,-2.0767,-2.1196,-2.1697,-2.2511,-2.3313,-2.381,-2.3779,-2.4379,-2.4804,-2.4804,-2.4804,-2.4804,-2.4804,-2.4804,-2.4804,-2.4804,-2.4837,-2.4837,-2.4804,-2.4865,-2.4865,-2.4804,-2.4837,-2.4877,-2.4959,-2.4986,-2.5078,-2.5234,-2.5283,-2.5214,-2.5067,-2.5234,-2.5214,-2.5088,-2.5224,-2.5293,-2.5293,-2.5293,-2.5293,-2.5293,-2.5293,-2.5293,-2.5293,-2.5293,-2.5293,-2.5293,-2.5293,-2.5293,-2.5293,-2.5293,-2.5293,-2.5293,-2.5293,-2.5293,-2.5293,-2.5293,-2.5293,-2.5293,-2.5293,-2.5293,-2.5293,-2.5293,-2.5293,-2.5293,-2.5293,-2.5293,-2.5293,-2.5293,-2.5293,-2.5293,-2.5293,-2.5293,-2.5312,-2.537,-2.539,-2.5416,-2.5447,-2.5477,-2.5457,-2.538,-2.538,-2.538,-2.538,-2.5389,-2.5418,-2.5484,-2.5537,-2.5532,-2.5418,-2.5524,-2.5534,-2.5418,-2.5476,-2.5497,-2.5483,-2.5474,-2.5513,0.0,0.0,0.0,0.0,0.0,0.0,-1.7431,-1.8195,-1.886,-1.9359,-1.9456,-1.9418,-1.932,-1.9389,-1.9629,-2.0136,-2.0637,-2.1097,-2.1516,-2.2281,-2.2754,-2.2688,-2.3098,-2.3502,-2.3903,-2.395,-2.4092,-2.4474,-2.4502,-2.4502,-2.4502,-2.4591,-2.47,-2.4804,-2.486,-2.486,-2.4804,-2.486,-2.485,-2.4771,-2.4927,-2.5109,-2.5293,-2.5293,-2.5244,-2.5152,-2.5244,-2.5244,-2.5152,-2.5264,-2.5293,-2.5293,-2.5293,-2.5293,-2.5293,-2.5293,-2.5293,-2.5293,-2.5293,-2.5293,-2.5293,-2.5293,-2.5293,-2.5293,-2.5293,-2.5293,-2.5293,-2.5293,-2.5293,-2.5293,-2.5293,-2.5293,-2.5293,-2.5293,-2.5293,-2.5293,-2.5293,-2.5293,-2.5293,-2.5293,-2.5293,-2.5293,-2.5293,-2.5293,-2.5293,-2.5293,-2.5293,-2.5303,-2.5341,-2.5412,-2.5454,-2.5452,-2.5508,-2.5519,-2.5444,-2.5445,-2.5457,-2.5457,-2.5457,-2.5466,-2.5505,-2.5561,-2.5548,-2.5447,-2.5524,-2.5524,-2.5457,-2.5524,-2.5532,-2.55,-2.5532,-2.5572,0.0,0.0,0.0,0.0,0.0,0.0,-1.733,-1.7765,-1.8124,-1.8922,-1.9198,-1.9305,-1.9305,-1.9305,-1.935,-1.9527,-2.0108,-2.0536,-2.0491,-2.1173,-2.1646,-2.1539,-2.1615,-2.1962,-2.2712,-2.2749,-2.3088,-2.3933,-2.3988,-2.4052,-2.419,-2.4366,-2.4536,-2.4746,-2.4864,-2.4881,-2.4804,-2.4917,-2.4841,-2.4598,-2.4898,-2.5131,-2.5293,-2.5293,-2.5293,-2.5293,-2.5293,-2.5293,-2.5293,-2.5293,-2.5293,-2.5293,-2.5293,-2.5293,-2.5293,-2.5293,-2.5293,-2.5293,-2.5293,-2.5293,-2.5293,-2.5293,-2.5293,-2.5293,-2.5293,-2.5293,-2.5293,-2.5293,-2.5293,-2.5293,-2.5293,-2.5293,-2.5293,-2.5303,-2.5303,-2.5293,-2.5293,-2.5293,-2.5293,-2.5312,-2.5312,-2.5303,-2.5293,-2.5293,-2.5293,-2.5293,-2.5293,-2.5303,-2.5322,-2.5427,-2.5489,-2.5464,-2.5551,-2.5591,-2.5518,-2.5522,-2.5517,-2.5503,-2.5503,-2.5503,-2.5503,-2.5563,-2.5572,-2.5524,-2.553,-2.5519,-2.5503,-2.5563,-2.5572,-2.5503,-2.5561,-2.5591,0.0,0.0,0.0,0.0,0.0,-1.5506,0.0,0.0,-1.7284,0.0,-1.8803,-1.9305,-1.9305,-1.9305,-1.9305,-1.9344,-1.9427,-1.9439,-1.9264,-1.9928,-2.0427,-2.0418,-2.0828,-2.1326,-2.1888,-2.1744,-2.2034,-2.3079,-2.3171,-2.3465,-2.4162,-2.4228,-2.433,-2.4536,-2.4559,-2.4645,-2.4804,-2.4823,-2.485,-2.4949,-2.5161,-2.5274,-2.5293,-2.5293,-2.5293,-2.5293,-2.5293,-2.5293,-2.5293,-2.5293,-2.5293,-2.5293,-2.5293,-2.5293,-2.5293,-2.5293,-2.5293,-2.5293,-2.5293,-2.5293,-2.5293,-2.5293,-2.5293,-2.5293,-2.5293,-2.5293,-2.5293,-2.5293,-2.5293,-2.5293,-2.5293,-2.5293,-2.5303,-2.537,-2.5332,-2.5293,-2.5293,-2.5293,-2.5312,-2.538,-2.539,-2.537,-2.5303,-2.5293,-2.5293,-2.5293,-2.5293,-2.5332,-2.5466,-2.5486,-2.5546,-2.565,-2.5683,-2.5664,-2.5594,-2.5591,-2.5559,-2.5503,-2.5502,-2.5502,-2.5502,-2.5564,-2.5601,-2.5591,-2.5642,-2.5625,-2.5502,-2.5575,-2.5566,-2.5502,-2.5511,-2.5536,-1.1018,0.0,0.0,0.0,0.0,-1.4882,-1.5449,0.0,-1.6463,-1.7257,-1.7706,-1.8234,-1.9124,-1.9305,-1.9305,-1.9305,-1.9305,-1.9268,-1.9182,-1.9474,-1.9702,-1.9702,-1.99,-2.0316,-2.1007,-2.0957,-2.1479,-2.2887,-2.3103,-2.3515,-2.4338,-2.4478,-2.4614,-2.4776,-2.4776,-2.4818,-2.4907,-2.5024,-2.5105,-2.5172,-2.5264,-2.5293,-2.5293,-2.5332,-2.5332,-2.5293,-2.5293,-2.5293,-2.5293,-2.5293,-2.5293,-2.5293,-2.5293,-2.5293,-2.5293,-2.5293,-2.5293,-2.5293,-2.5293,-2.5293,-2.5293,-2.5293,-2.5293,-2.5293,-2.5293,-2.5293,-2.5293,-2.5293,-2.5293,-2.5293,-2.5293,-2.5322,-2.5361,-2.539,-2.5412,-2.5401,-2.5361,-2.5322,-2.5312,-2.539,-2.5399,-2.5399,-2.5409,-2.5341,-2.5322,-2.5399,-2.538,-2.539,-2.5495,-2.5534,-2.5579,-2.5646,-2.5683,-2.5693,-2.5664,-2.5664,-2.5643,-2.5607,-2.5607,-2.5607,-2.5607,-2.5633,-2.5659,-2.5659,-2.5678,-2.5652,-2.5559,-2.5622,-2.5618,-2.5563,-2.5596,-2.5629,0.0,0.0,0.0,0.0,0.0,-1.4085,0.0,0.0,-1.5559,-1.6422,-1.6597,-1.7018,-1.8427,-1.8858,-1.9051,-1.9277,-1.9305,-1.9274,-1.9236,-1.9221,-1.9221,-1.9221,-1.9155,-1.9408,-2.0127,-2.0142,-2.0753,-2.2323,-2.2574,-2.302,-2.387,-2.4061,-2.4212,-2.4369,-2.436,-2.4498,-2.4772,-2.5138,-2.5322,-2.5322,-2.5332,-2.5341,-2.5341,-2.5399,-2.5399,-2.5347,-2.5322,-2.5322,-2.5322,-2.5322,-2.5322,-2.5322,-2.5332,-2.5332,-2.5322,-2.5332,-2.5322,-2.5293,-2.5312,-2.5303,-2.5293,-2.5293,-2.5293,-2.5293,-2.5293,-2.5293,-2.5293,-2.5312,-2.5322,-2.5322,-2.5341,-2.539,-2.5428,-2.5457,-2.5481,-2.5481,-2.5408,-2.537,-2.5361,-2.539,-2.5432,-2.5463,-2.5486,-2.5418,-2.5387,-2.5476,-2.5465,-2.5454,-2.5524,-2.5572,-2.561,-2.5621,-2.5668,-2.5703,-2.5703,-2.5703,-2.5703,-2.5703,-2.5703,-2.5703,-2.5703,-2.5702,-2.5696,-2.5696,-2.5698,-2.5684,-2.5635,-2.5684,-2.5666,-2.5626,-2.5681,-2.5703,0.0,0.0,0.0,0.0,0.0,0.0,0.0,0.0,-1.4563,-1.5566,-1.5756,-1.6022,-1.6872,-1.7642,-1.8408,-1.917,-1.9305,-1.9236,-1.9035,-1.9027,-1.9027,-1.9027,-1.8789,-1.8834,-1.9323,-1.9181,-1.9585,-2.0814,-2.0923,-2.1339,-2.2276,-2.2327,-2.2429,-2.2621,-2.2631,-2.3117,-2.4139,-2.4986,-2.539,-2.5399,-2.5466,-2.5495,-2.5495,-2.5495,-2.5495,-2.5493,-2.5422,-2.539,-2.539,-2.539,-2.539,-2.5399,-2.5466,-2.5457,-2.5399,-2.5476,-2.5409,-2.5303,-2.537,-2.5341,-2.5293,-2.5293,-2.5293,-2.5293,-2.5293,-2.5293,-2.5303,-2.538,-2.539,-2.5409,-2.5476,-2.5495,-2.5515,-2.5572,-2.5539,-2.5481,-2.5408,-2.5457,-2.5476,-2.5409,-2.5503,-2.5571,-2.5511,-2.549,-2.5492,-2.5505,-2.5498,-2.5515,-2.5582,-2.5601,-2.5621,-2.5687,-2.5703,-2.5703,-2.5703,-2.5703,-2.5703,-2.5703,-2.5703,-2.5703,-2.5703,-2.5703,-2.5702,-2.5702,-2.5703,-2.5703,-2.5693,-2.5703,-2.5703,-2.5692,-2.5703,-2.5703,0.0,0.0,0.0,0.0,-1.2667,-1.3034,-1.335,-1.384,-1.4304,-1.4658,-1.4734,-1.5018,-1.5951,-1.678,-1.7587,-1.8399,-1.8528,-1.8672,-1.9141,-1.9189,-1.9189,-1.9189,-1.9115,-1.9171,-1.9462,-1.9427,-1.9814,-2.0842,-2.1045,-2.1488,-2.2358,-2.2509,-2.2622,-2.269,-2.269,-2.2882,-2.3263,-2.4177,-2.463,-2.4639,-2.5217,-2.5496,-2.5499,-2.5541,-2.5552,-2.5561,-2.5543,-2.5501,-2.5466,-2.5466,-2.5462,-2.5467,-2.5486,-2.5486,-2.5473,-2.5484,-2.547,-2.5427,-2.5417,-2.538,-2.5361,-2.5303,-2.5293,-2.5293,-2.5293,-2.5322,-2.537,-2.539,-2.543,-2.5467,-2.5486,-2.5526,-2.5581,-2.5653,-2.5613,-2.5564,-2.553,-2.5553,-2.5563,-2.5534,-2.5571,-2.5613,-2.5636,-2.556,-2.5532,-2.5619,-2.5589,-2.5592,-2.566,-2.5661,-2.5666,-2.5703,-2.5703,-2.5703,-2.5703,-2.5703,-2.5703,-2.5703,-2.5703,-2.5703,-2.5703,-2.5703,-2.5703,-2.5703,-2.5703,-2.5703,-2.5703,-2.5703,-2.5703,-2.5703,-2.5703,-2.5703,-1.0698,0.0,0.0,0.0,0.0,-1.2519,-1.3379,-1.3639,-1.38,-1.4216,-1.4257,-1.4424,-1.5163,-1.5725,-1.645,-1.7513,-1.7697,-1.7986,-1.8775,-1.8895,-1.8996,-1.9277,-1.9305,-1.9389,-1.9578,-1.9605,-1.9903,-2.0601,-2.079,-2.1129,-2.1722,-2.1884,-2.1956,-2.1956,-2.2216,-2.237,-2.2399,-2.3619,-2.4235,-2.4245,-2.5143,-2.5574,-2.5571,-2.5608,-2.563,-2.563,-2.5624,-2.56,-2.5528,-2.5522,-2.5538,-2.5544,-2.5559,-2.5554,-2.5538,-2.5558,-2.5539,-2.5503,-2.5473,-2.5445,-2.539,-2.5341,-2.5312,-2.5293,-2.5322,-2.5361,-2.5409,-2.5457,-2.5497,-2.5537,-2.5557,-2.5596,-2.5634,-2.5687,-2.5673,-2.5629,-2.5632,-2.5622,-2.5601,-2.5601,-2.5619,-2.5654,-2.5693,-2.5631,-2.5601,-2.5693,-2.5658,-2.5654,-2.5692,-2.5703,-2.5703,-2.5703,-2.5703,-2.5703,-2.5703,-2.5703,-2.5703,-2.5703,-2.5703,-2.5703,-2.5703,-2.5703,-2.5703,-2.5703,-2.5703,-2.5703,-2.5703,-2.5703,-2.5703,-2.5703,-2.5703,-2.5703,0.0,0.0,0.0,0.0,0.0,0.0,-1.3988,0.0,-1.3001,-1.4207,-1.4292,-1.4221,-1.4443,-1.4497,-1.501,-1.6578,-1.6853,-1.7147,-1.7959,-1.8096,-1.839,-1.9161,-1.9295,-1.9389,-1.9592,-1.9605,-1.9723,-1.9983,-2.0003,-2.0097,-2.0294,-2.0302,-2.0302,-2.0302,-2.1062,-2.1496,-2.1555,-2.3329,-2.4225,-2.4236,-2.5203,-2.5664,-2.5664,-2.569,-2.5697,-2.5706,-2.57,-2.5664,-2.5604,-2.5599,-2.5601,-2.5608,-2.5669,-2.5664,-2.5605,-2.5684,-2.5619,-2.5511,-2.558,-2.5507,-2.5399,-2.5399,-2.5341,-2.5303,-2.538,-2.5399,-2.5428,-2.5553,-2.5601,-2.5621,-2.5681,-2.5703,-2.5703,-2.5703,-2.5703,-2.5703,-2.5703,-2.5649,-2.5601,-2.5601,-2.5663,-2.5703,-2.5703,-2.5703,-2.5703,-2.5703,-2.5703,-2.5703,-2.5703,-2.5703,-2.5703,-2.5703,-2.5703,-2.5703,-2.5703,-2.5703,-2.5703,-2.5703,-2.5703,-2.5703,-2.5703,-2.5703,-2.5703,-2.5703,-2.5703,-2.5703,-2.5703,-2.5703,-2.5703,-2.5703,-2.5703,-2.5703,-1.0244,0.0,0.0,0.0,0.0,0.0,-1.1695,-1.182,-1.2097,-1.3012,-1.3121,-1.3307,-1.4127,-1.4399,-1.4643,-1.5084,-1.5655,-1.6316,-1.7119,-1.7724,-1.8179,-1.8408,-1.8941,-1.9414,-1.9713,-1.9738,-1.9886,-2.0188,-2.0215,-2.0241,-2.0294,-2.0302,-2.0302,-2.0302,-2.0523,-2.0667,-2.0727,-2.1894,-2.249,-2.2511,-2.4032,-2.4756,-2.4775,-2.5404,-2.5703,-2.5705,-2.5701,-2.5693,-2.5674,-2.5668,-2.5673,-2.5666,-2.5691,-2.5693,-2.5674,-2.5693,-2.5682,-2.5624,-2.5551,-2.5498,-2.5457,-2.5359,-2.5312,-2.5303,-2.538,-2.5429,-2.5489,-2.5581,-2.5635,-2.5681,-2.5702,-2.5703,-2.5703,-2.5703,-2.5703,-2.5703,-2.5703,-2.5694,-2.5673,-2.5673,-2.5687,-2.5703,-2.5703,-2.5703,-2.5703,-2.5703,-2.5703,-2.5703,-2.5703,-2.5703,-2.5703,-2.5703,-2.5703,-2.5703,-2.5703,-2.5703,-2.5703,-2.5703,-2.5703,-2.5703,-2.5703,-2.5703,-2.5703,-2.5703,-2.5703,-2.5703,-2.5703,-2.5703,-2.5703,-2.5703,-2.5703,-2.5703,-1.0251,-1.0231,0.0,0.0,0.0,0.0,-1.1347,-1.1283,-1.1425,-1.2478,-1.2618,-1.2831,-1.3732,-1.4096,-1.4248,-1.4248,-1.471,-1.5379,-1.6276,-1.6802,-1.7225,-1.755,-1.8379,-1.9029,-1.9269,-1.965,-1.9992,-2.0277,-2.0302,-2.0302,-2.0302,-2.0302,-2.0302,-2.0302,-2.0327,-2.0372,-2.0437,-2.1336,-2.181,-2.1862,-2.3213,-2.3867,-2.3926,-2.4766,-2.5156,-2.5176,-2.5537,-2.5703,-2.5703,-2.5703,-2.5703,-2.5703,-2.5703,-2.5703,-2.5703,-2.5703,-2.5703,-2.5682,-2.558,-2.5521,-2.5481,-2.5379,-2.5312,-2.5312,-2.5409,-2.5476,-2.5518,-2.5608,-2.5668,-2.5703,-2.5703,-2.5703,-2.5703,-2.5703,-2.5703,-2.5703,-2.5703,-2.5703,-2.5703,-2.5703,-2.5703,-2.5703,-2.5703,-2.5703,-2.5703,-2.5703,-2.5703,-2.5703,-2.5703,-2.5703,-2.5703,-2.5703,-2.5703,-2.5703,-2.5703,-2.5703,-2.5703,-2.5703,-2.5703,-2.5703,-2.5703,-2.5703,-2.5703,-2.5703,-2.5703,-2.5703,-2.5703,-2.5703,-2.5703,-2.5703,-2.5703,-2.5703,-1.0371,-1.042,0.0,-1.1328,-1.0947,0.0,-1.1953,-1.139,-1.0959,-1.2209,-1.2349,-1.2453,-1.3123,-1.3514,-1.3708,-1.3634,-1.3913,-1.4483,-1.5395,-1.5625,-1.5967,-1.6679,-1.7633,-1.8291,-1.8432,-1.921,-1.983,-2.0131,-2.0254,-2.0302,-2.0302,-2.0302,-2.03,-2.0313,-2.0374,-2.0439,-2.0513,-2.1287,-2.1702,-2.1768,-2.2578,-2.2998,-2.3076,-2.3887,-2.4307,-2.4443,-2.5225,-2.5605,-2.5703,-2.5703,-2.5703,-2.5703,-2.5703,-2.5703,-2.5703,-2.5703,-2.5703,-2.569,-2.5614,-2.5553,-2.5495,-2.5418,-2.5361,-2.5332,-2.5476,-2.5509,-2.5537,-2.566,-2.5703,-2.5703,-2.5703,-2.5703,-2.5703,-2.5703,-2.5703,-2.5703,-2.5703,-2.5703,-2.5703,-2.5703,-2.5703,-2.5703,-2.5703,-2.5703,-2.5703,-2.5703,-2.5703,-2.5703,-2.5703,-2.5703,-2.5703,-2.5703,-2.5703,-2.5703,-2.5703,-2.5703,-2.5703,-2.5703,-2.5703,-2.5703,-2.5703,-2.5703,-2.5703,-2.5703,-2.5703,-2.5703,-2.5703,-2.5703,-2.5703,-2.5703,-2.5703,-2.5703,-1.1419,-1.1755,-1.2168,-1.163,-1.1893,0.0,-1.0828,-1.0628,-1.0746,-1.0954,-1.082,-1.0844,-1.1531,-1.2217,-1.2519,-1.1981,-1.301,-1.402,-1.4425,-1.5196,-1.5756,-1.5922,-1.6673,-1.7297,-1.7535,-1.7727,-1.8222,-1.9179,-1.9898,-2.0302,-2.0302,-2.0302,-2.032,-2.0381,-2.0453,-2.0511,-2.0583,-2.0749,-2.0845,-2.0859,-2.1719,-2.2139,-2.2178,-2.2988,-2.374,-2.4414,-2.458,-2.5049,-2.5703,-2.5703,-2.5703,-2.5703,-2.5703,-2.5703,-2.5703,-2.5703,-2.5703,-2.5682,-2.5565,-2.5507,-2.5495,-2.5418,-2.539,-2.5409,-2.5543,-2.5582,-2.5604,-2.5681,-2.5703,-2.5703,-2.5703,-2.5703,-2.5703,-2.5703,-2.5703,-2.5703,-2.5703,-2.5703,-2.5703,-2.5703,-2.5703,-2.5703,-2.5703,-2.5703,-2.5703,-2.5703,-2.5703,-2.5703,-2.5703,-2.5703,-2.5703,-2.5703,-2.5703,-2.5703,-2.5703,-2.5703,-2.5703,-2.5703,-2.5703,-2.5703,-2.5703,-2.5703,-2.5703,-2.5703,-2.5703,-2.5703,-2.5703,-2.5703,-2.5703,-2.5703,-2.5703,-2.5703,-1.157,-1.1786,-1.2146,-1.2114,-1.2127,0.0,0.0,-1.0522,-1.0468,-1.1064,-1.0794,-1.0749,-1.1721,-1.2347,-1.256,-1.2159,-1.3222,-1.3988,-1.3651,-1.4469,-1.5105,-1.5105,-1.5867,-1.6448,-1.6596,-1.7054,-1.7776,-1.8819,-1.9769,-2.0302,-2.0302,-2.0331,-2.0369,-2.0397,-2.0498,-2.057,-2.0596,-2.0596,-2.0596,-2.0605,-2.1035,-2.125,-2.1279,-2.2119,-2.2744,-2.3184,-2.3613,-2.4277,-2.5049,-2.5049,-2.5312,-2.5703,-2.5703,-2.5703,-2.5703,-2.5658,-2.5654,-2.5634,-2.5499,-2.547,-2.5495,-2.5418,-2.5424,-2.547,-2.5572,-2.5621,-2.5657,-2.5689,-2.5703,-2.5703,-2.5703,-2.5703,-2.5703,-2.5703,-2.5703,-2.5703,-2.5703,-2.5703,-2.5703,-2.5703,-2.5703,-2.5703,-2.5703,-2.5703,-2.5703,-2.5703,-2.5703,-2.5703,-2.5703,-2.5703,-2.5703,-2.5703,-2.5703,-2.5703,-2.5703,-2.5703,-2.5703,-2.5703,-2.5703,-2.5703,-2.5703,-2.5703,-2.5703,-2.5703,-2.5703,-2.5703,-2.5703,-2.5703,-2.5703,-2.5703,-2.5703,-2.5703,-1.1933,-1.2044,-1.2297,-1.2589,-1.2318,-1.1843,0.0,0.0,0.0,-1.1464,-1.1184,-1.1103,-1.2239,-1.2589,-1.2644,-1.2412,-1.3214,-1.356,-1.2697,-1.3431,-1.4095,-1.4196,-1.5055,-1.5636,-1.5608,-1.6422,-1.732,-1.8255,-1.9092,-1.9715,-2.0033,-2.0111,-2.0218,-2.0374,-2.0507,-2.0576,-2.0576,-2.0586,-2.0596,-2.0596,-2.0596,-2.0596,-2.0615,-2.1328,-2.1738,-2.1943,-2.2637,-2.3408,-2.416,-2.4326,-2.4814,-2.5469,-2.5635,-2.5703,-2.5692,-2.5634,-2.5617,-2.5601,-2.5486,-2.5476,-2.5515,-2.5466,-2.5478,-2.5546,-2.5604,-2.5662,-2.5703,-2.5703,-2.5703,-2.5703,-2.5703,-2.5703,-2.5703,-2.5703,-2.5703,-2.5703,-2.5703,-2.5703,-2.5703,-2.5703,-2.5703,-2.5703,-2.5703,-2.5703,-2.5703,-2.5703,-2.5703,-2.5703,-2.5703,-2.5703,-2.5703,-2.5703,-2.5703,-2.5703,-2.5703,-2.5703,-2.5703,-2.5703,-2.5703,-2.5703,-2.5703,-2.5703,-2.5703,-2.5703,-2.5703,-2.5703,-2.5703,-2.5703,-2.5703,-2.5703,-2.5703,-2.5703,-1.3758,-1.4179,-1.4492,-1.2925,-1.3119,-1.312,-1.0852,0.0,-1.1151,-1.1169,0.0,-1.116,-1.1784,0.0,0.0,-1.0946,-1.1449,-1.1709,-1.1133,-1.1865,-1.264,-1.3111,-1.4045,-1.4644,-1.4581,-1.5,-1.5638,-1.6521,-1.6802,-1.758,-1.9069,-1.9212,-1.9569,-2.0293,-2.0443,-2.0508,-2.0508,-2.0566,-2.0596,-2.0596,-2.0596,-2.0596,-2.0596,-2.0703,-2.1172,-2.1914,-2.2002,-2.25,-2.331,-2.4082,-2.4463,-2.4619,-2.54,-2.5703,-2.5703,-2.569,-2.5688,-2.5678,-2.5601,-2.5582,-2.5591,-2.5582,-2.5622,-2.5682,-2.5689,-2.5692,-2.5703,-2.5703,-2.5703,-2.5703,-2.5703,-2.5703,-2.5703,-2.5703,-2.5703,-2.5703,-2.5703,-2.5703,-2.5703,-2.5703,-2.5703,-2.5703,-2.5703,-2.5703,-2.5703,-2.5703,-2.5703,-2.5703,-2.5703,-2.5703,-2.5703,-2.5703,-2.5703,-2.5703,-2.5703,-2.5703,-2.5703,-2.5703,-2.5703,-2.5703,-2.5703,-2.5703,-2.5703,-2.5703,-2.5703,-2.5703,-2.5703,-2.5703,-2.5703,-2.5703,-2.5703,-2.5703,-1.4021,-1.4223,-1.4345,-1.3524,-1.3276,-1.2834,-1.1261,-1.0772,-1.0924,-1.1838,0.0,0.0,0.0,0.0,0.0,0.0,-1.1865,-1.1807,-1.1081,-1.1744,-1.2529,-1.3115,-1.3137,-1.3279,-1.3721,-1.441,-1.5168,-1.6008,-1.6227,-1.6844,-1.8008,-1.8648,-1.9133,-1.9484,-2.0108,-2.0458,-2.0498,-2.0527,-2.0557,-2.0596,-2.0596,-2.0596,-2.0596,-2.0596,-2.0801,-2.1152,-2.1152,-2.1596,-2.2411,-2.329,-2.3922,-2.442,-2.5261,-2.5634,-2.5703,-2.5664,-2.5639,-2.5628,-2.557,-2.5564,-2.561,-2.5653,-2.5683,-2.5703,-2.5703,-2.5703,-2.5703,-2.5703,-2.5703,-2.5703,-2.5703,-2.5703,-2.5703,-2.5703,-2.5703,-2.5703,-2.5703,-2.5703,-2.5703,-2.5703,-2.5703,-2.5703,-2.5703,-2.5703,-2.5703,-2.5703,-2.5703,-2.5703,-2.5703,-2.5703,-2.5703,-2.5703,-2.5703,-2.5703,-2.5703,-2.5703,-2.5703,-2.5703,-2.5703,-2.5703,-2.5703,-2.5703,-2.5703,-2.5703,-2.5703,-2.5703,-2.5703,-2.5703,-2.5703,-2.5703,-2.5703,-2.5703,-1.4282,-1.4294,-1.4203,-1.3647,-1.3102,-1.2409,-1.1299,-1.0782,-1.0944,-1.2399,-1.232,0.0,0.0,0.0,-1.2698,-1.2427,0.0,-1.1818,-1.0947,-1.1369,-1.1976,-1.2548,-1.2278,-1.2306,-1.2934,-1.3421,-1.412,-1.5166,-1.5188,-1.5711,-1.698,-1.7744,-1.8338,-1.8798,-1.9582,-2.0127,-2.0384,-2.0448,-2.0502,-2.0551,-2.0551,-2.0551,-2.0551,-2.0556,-2.0556,-2.0551,-2.0558,-2.0891,-2.1477,-2.236,-2.3207,-2.4031,-2.4849,-2.5377,-2.5669,-2.5623,-2.5606,-2.5622,-2.5564,-2.5586,-2.5635,-2.5683,-2.5703,-2.5703,-2.5703,-2.5703,-2.5703,-2.5703,-2.5703,-2.5703,-2.5703,-2.5703,-2.5703,-2.5703,-2.5703,-2.5703,-2.5703,-2.5703,-2.5692,-2.5681,-2.5673,-2.5666,-2.5673,-2.5693,-2.5703,-2.5703,-2.5703,-2.5703,-2.5703,-2.5703,-2.5703,-2.5703,-2.5703,-2.5703,-2.5703,-2.5703,-2.5703,-2.5703,-2.5703,-2.5703,-2.5703,-2.5703,-2.5703,-2.5703,-2.5703,-2.5703,-2.5703,-2.5703,-2.5703,-2.5703,-2.5703,-2.5703,-1.4997,-1.5062,-1.4745,-1.2976,-1.2621,-1.2251,-1.053,-1.0767,-1.1618,-1.2512,-1.3237,-1.3967,-1.4811,-1.4305,-1.3503,-1.2719,-1.1938,0.0,0.0,-1.0157,-1.0349,-1.0815,-1.1489,-1.1983,-1.2215,-1.1562,-1.18,-1.3449,-1.2916,-1.358,-1.6007,-1.6167,-1.6933,-1.8558,-1.8828,-1.9319,-2.0108,-2.0308,-2.0404,-2.0414,-2.0414,-2.0414,-2.0408,-2.0471,-2.0469,-2.041,-2.0479,-2.0482,-2.0515,-2.139,-2.2264,-2.3122,-2.3996,-2.4861,-2.5598,-2.5603,-2.5644,-2.5703,-2.5693,-2.5693,-2.5703,-2.5703,-2.5703,-2.5703,-2.5703,-2.5703,-2.5703,-2.5703,-2.5703,-2.5703,-2.5703,-2.5703,-2.5703,-2.5703,-2.5703,-2.5703,-2.5703,-2.5703,-2.568,-2.5622,-2.5601,-2.5602,-2.56,-2.5664,-2.5703,-2.5703,-2.5703,-2.5703,-2.5703,-2.5703,-2.5703,-2.5703,-2.5703,-2.5703,-2.5703,-2.5703,-2.5703,-2.5703,-2.5703,-2.5703,-2.5703,-2.5703,-2.5703,-2.5703,-2.5703,-2.5703,-2.5703,-2.5703,-2.5703,-2.5703,-2.5703,-2.5703,-1.4962,-1.4973,-1.4737,-1.3638,-1.2958,-1.2294,-1.1207,-1.1185,-1.1619,-1.241,-1.3221,-1.4026,-1.4791,-1.4275,-1.3658,-1.3427,-1.2269,-1.1314,0.0,-1.0529,-1.0231,-1.0381,-1.1475,-1.2027,-1.1518,-1.1188,-1.1682,-1.3309,-1.2669,-1.3031,-1.4942,-1.5624,-1.6491,-1.7645,-1.8343,-1.9144,-2.0092,-2.0168,-2.027,-2.0395,-2.0395,-2.0395,-2.0402,-2.0417,-2.042,-2.0402,-2.0421,-2.0398,-2.0398,-2.1276,-2.1784,-2.2151,-2.3601,-2.4409,-2.4811,-2.5386,-2.5644,-2.5703,-2.5703,-2.5703,-2.5703,-2.5703,-2.5703,-2.5703,-2.5703,-2.5703,-2.5703,-2.5703,-2.5703,-2.5703,-2.5703,-2.5703,-2.5703,-2.5703,-2.5703,-2.5703,-2.5703,-2.5703,-2.5678,-2.5607,-2.5601,-2.5591,-2.5541,-2.5547,-2.5601,-2.5693,-2.5703,-2.5703,-2.5703,-2.5703,-2.5703,-2.5703,-2.5703,-2.5703,-2.5703,-2.5703,-2.5703,-2.5703,-2.5703,-2.5703,-2.5703,-2.5703,-2.5703,-2.5703,-2.5703,-2.5703,-2.5703,-2.5703,-2.5703,-2.5703,-2.5703,-2.5703,-1.4909,-1.4896,-1.4791,-1.4336,-1.3797,-1.3196,-1.2462,-1.2534,-1.2789,-1.2928,-1.364,-1.4361,-1.4817,-1.4525,-1.4026,-1.3461,-1.2536,-1.1701,0.0,-1.055,-1.0196,-1.0199,-1.1023,0.0,0.0,-1.0662,-1.1285,-1.2925,-1.2519,-1.2901,-1.4486,-1.514,-1.5842,-1.6632,-1.7605,-1.8571,-1.9562,-1.9893,-2.0175,-2.036,-2.036,-2.036,-2.036,-2.036,-2.0359,-2.0355,-2.0354,-2.034,-2.0333,-2.0909,-2.1275,-2.161,-2.2764,-2.3477,-2.3985,-2.5138,-2.5621,-2.5703,-2.5703,-2.5703,-2.5703,-2.5703,-2.5703,-2.5703,-2.5703,-2.5703,-2.5703,-2.5703,-2.5703,-2.5703,-2.5703,-2.5703,-2.5703,-2.5703,-2.5703,-2.5703,-2.5703,-2.568,-2.5643,-2.5582,-2.5551,-2.5524,-2.5476,-2.5456,-2.5502,-2.5605,-2.5633,-2.5633,-2.5633,-2.5633,-2.5633,-2.5633,-2.5652,-2.5674,-2.5703,-2.5703,-2.5703,-2.5703,-2.5703,-2.5703,-2.5703,-2.5703,-2.5703,-2.5703,-2.5703,-2.5703,-2.5703,-2.5703,-2.5703,-2.5703,-2.5703,-2.5703]}]]